GFSCGP_sfc_wetblb_063.txt.gz
Wetbulb
43.26 37.15 33.79 37.98 40.09 40.95 40.17 38.48 37.36 40.46 43.68 41.27 40.16 40.84 43.09 45.52 45.89 47.33 50.51 52.37 53.93 55.15 57.77 58.77 59.35 61.20 61.21 65.08 64.68 64.62 65.71 67.46 65.99 66.80 66.46 65.91 65.47 64.90 67.31 68.47 69.90 69.30 71.83 71.61
38.19 33.90 40.85 42.97 42.63 41.05 39.95 37.63 37.05 40.61 43.18 41.37 40.09 39.80 42.82 44.35 44.79 45.99 46.75 50.05 53.27 54.95 55.96 57.69 58.54 59.35 61.27 64.63 64.52 63.92 64.29 65.34 65.58 66.86 66.11 65.12 64.50 65.24 66.01 67.98 68.57 69.96 70.85 71.15
35.46 38.82 43.36 42.28 40.29 38.94 38.67 37.10 37.54 37.49 41.01 41.77 39.88 37.69 40.14 43.63 44.94 46.13 47.43 48.39 51.86 55.02 55.52 57.02 58.14 58.81 60.61 64.67 64.83 65.25 65.42 65.93 64.68 66.56 67.05 66.11 66.44 67.55 68.04 67.28 67.83 70.25 70.86 70.91
37.50 40.91 40.85 40.23 38.91 39.82 35.23 41.86 41.13 39.65 36.27 30.73 38.46 29.08 36.91 40.73 41.91 44.28 46.23 47.07 48.87 52.15 56.17 56.22 56.87 57.77 62.64 64.30 65.00 65.23 65.72 65.43 66.15 66.39 66.26 65.64 65.83 64.36 65.24 67.56 68.95 69.97 70.75 70.41
36.29 38.15 38.65 37.90 39.33 41.18 37.65 42.23 40.39 39.37 35.15 31.99 33.79 29.83 34.53 39.46 39.18 41.48 44.02 46.78 48.99 51.47 55.10 55.98 56.65 57.15 62.86 63.59 63.86 64.49 65.63 65.70 66.39 67.92 67.51 66.02 64.96 65.81 65.46 68.18 68.61 68.79 69.42 70.12
39.32 43.45 41.11 41.14 42.68 42.08 43.42 39.60 38.82 37.43 31.60 26.05 32.02 30.93 31.54 35.21 38.45 41.66 44.21 46.16 48.90 51.37 53.91 56.17 56.50 56.59 59.75 62.05 63.23 63.13 63.13 63.85 64.71 65.55 67.23 65.21 64.30 65.70 66.82 67.27 68.75 68.90 68.63 68.85
38.03 38.23 41.50 44.02 38.35 41.09 39.03 35.15 26.14 22.33 21.93 23.65 34.44 32.10 32.54 39.16 42.43 42.65 43.65 45.46 46.82 48.33 51.20 55.15 54.04 54.80 56.72 57.83 58.93 61.37 61.86 62.85 65.35 65.55 66.96 66.91 64.74 65.50 66.43 67.83 68.99 68.62 67.44 66.85
29.62 28.03 37.74 42.76 39.01 36.18 35.25 33.21 26.38 21.38 21.12 24.78 34.27 28.00 32.94 41.90 44.89 45.93 45.73 46.68 46.62 47.85 51.27 54.37 55.17 54.59 54.75 57.16 57.52 59.31 60.13 59.44 64.00 65.20 66.95 67.16 66.33 68.43 67.90 69.37 69.41 68.90 68.15 67.68
28.11 31.44 41.22 41.68 41.14 39.02 34.65 30.52 34.61 28.39 29.77 26.47 28.41 33.72 39.39 42.49 43.24 45.47 46.51 47.62 47.03 48.70 52.46 53.35 53.38 53.73 54.08 54.96 56.19 56.64 56.51 61.91 64.00 66.10 66.00 68.42 67.81 69.24 69.58 69.16 69.62 68.61 67.95 68.40
36.04 28.97 38.21 40.17 41.74 40.89 38.27 38.92 28.73 30.68 20.10 21.35 27.16 29.58 31.07 38.46 40.24 41.70 42.57 44.84 48.50 49.82 53.46 52.80 54.81 56.74 59.51 60.87 61.68 62.02 59.32 63.11 64.33 65.63 67.90 68.68 69.00 69.99 70.96 70.81 69.13 68.55 68.49 68.90
38.15 32.86 33.40 37.72 35.18 34.21 34.48 32.16 34.81 33.54 30.86 24.05 21.53 26.67 40.47 39.04 40.95 40.34 41.87 44.22 46.64 49.75 52.56 51.56 54.25 59.91 61.04 61.77 61.62 61.85 60.55 62.55 66.54 68.52 68.51 68.61 69.46 70.45 70.57 69.82 69.28 69.25 69.44 69.21
38.33 33.66 28.23 32.43 38.54 41.31 38.06 34.30 35.10 29.34 26.79 28.74 28.99 28.34 41.50 40.92 41.65 42.64 42.18 45.50 48.41 51.82 50.01 54.86 60.19 61.08 61.30 61.12 61.35 61.61 60.58 67.43 68.79 69.26 69.43 69.66 69.25 69.38 68.30 67.41 66.97 67.83 67.67 67.65
38.00 31.81 25.43 27.72 32.20 37.74 34.32 36.48 36.60 34.63 34.01 28.85 26.46 29.24 41.60 42.30 41.49 42.64 43.14 46.25 47.76 48.59 50.18 50.48 59.39 59.38 60.31 60.44 60.58 62.00 67.14 68.47 69.34 69.76 69.14 68.90 69.09 68.65 66.97 65.72 65.47 65.95 64.92 64.58
42.57 33.37 30.09 25.95 29.26 33.01 31.27 35.31 36.95 32.91 26.80 29.69 31.46 33.86 39.03 39.72 40.00 41.60 43.04 44.91 46.12 49.02 48.76 48.81 53.04 58.93 60.75 62.93 63.15 67.11 67.55 68.64 69.10 68.18 67.66 67.26 67.46 67.17 66.01 65.47 64.76 64.78 64.27 63.59
38.48 32.32 34.22 35.37 36.93 36.77 35.54 35.67 36.44 33.98 34.30 30.70 33.76 34.84 37.76 40.14 40.65 42.35 44.87 46.24 46.30 46.91 48.36 49.65 50.33 59.03 61.25 62.72 64.55 66.88 67.76 68.17 68.28 67.94 67.51 67.01 66.86 65.84 65.81 64.78 64.37 63.73 63.62 63.50
39.66 32.85 35.14 33.07 36.38 36.32 34.15 36.22 36.29 37.36 36.61 36.04 37.14 36.65 42.47 43.10 44.19 43.93 44.98 45.94 46.23 48.37 49.62 49.34 51.28 54.43 62.35 62.28 63.09 65.75 66.42 66.86 67.47 66.80 66.68 66.94 66.26 65.27 63.78 63.41 63.18 63.11 62.53 62.46
37.37 34.81 33.31 28.39 35.03 34.03 28.81 34.38 36.03 37.16 38.65 37.10 33.36 37.28 43.18 42.40 43.30 43.92 45.44 46.99 49.37 51.93 52.14 50.85 51.42 57.89 61.11 62.57 62.86 64.86 65.74 66.73 66.39 66.22 66.44 66.01 64.80 63.89 63.03 63.54 63.44 62.74 62.00 62.89
36.61 34.33 34.23 28.91 31.08 21.71 33.79 39.82 40.59 38.36 39.37 38.70 40.18 41.17 42.04 42.42 44.08 45.98 48.16 48.78 48.59 50.04 51.00 51.96 50.47 55.62 61.32 63.74 62.42 65.34 65.98 65.68 66.23 65.71 65.30 64.33 64.28 63.80 63.21 62.99 62.35 63.43 61.19 62.61
39.61 36.59 30.57 26.45 25.14 31.64 34.81 38.76 37.84 35.52 34.29 41.60 40.21 41.70 42.60 43.47 43.65 44.06 50.64 48.63 47.87 49.07 50.29 52.05 54.53 58.15 61.78 63.54 63.93 64.23 64.74 65.13 64.49 63.21 62.88 63.76 64.11 63.09 62.04 62.00 62.86 62.18 61.28 60.56
40.11 39.65 33.32 28.91 22.46 18.84 33.79 41.37 42.81 39.94 29.10 41.79 41.12 40.30 40.72 42.06 36.11 39.30 46.17 47.35 47.94 49.50 50.44 51.23 53.84 55.22 62.93 62.23 63.26 63.24 63.22 63.22 62.49 62.18 62.85 64.22 64.15 63.19 61.74 61.34 62.30 61.72 61.32 61.38
34.77 34.20 30.03 29.28 27.43 31.05 41.09 42.34 42.08 30.07 29.88 41.58 41.05 40.52 40.02 38.89 41.34 43.86 45.83 47.00 48.52 49.34 49.91 52.22 53.26 53.71 58.41 63.02 59.63 62.71 62.65 61.76 61.98 62.86 62.76 64.33 64.54 63.87 63.44 63.42 62.49 61.97 61.75 61.45
28.69 30.27 30.13 32.01 29.58 24.34 44.16 41.57 35.20 37.45 41.59 41.88 41.96 41.86 41.13 42.74 44.31 44.39 45.84 46.52 47.74 48.17 49.82 51.52 52.14 53.17 56.65 62.30 63.62 62.74 63.06 60.72 62.45 62.46 64.01 64.25 64.00 64.63 64.41 63.11 61.59 61.93 61.07 60.13
30.08 35.81 33.89 34.55 32.93 42.18 44.85 43.12 43.62 44.39 42.26 42.39 42.33 42.55 43.06 43.42 43.71 44.05 44.42 46.10 47.21 47.98 48.68 50.96 51.44 52.87 55.25 61.52 64.35 63.09 63.90 61.33 63.55 63.09 63.00 62.54 62.90 63.46 62.74 62.05 61.48 61.48 60.84 60.32
39.26 40.89 35.74 36.63 40.39 42.54 44.14 45.45 45.94 45.71 45.13 44.31 44.42 44.13 44.32 43.81 44.28 44.58 44.99 45.62 47.04 47.98 48.55 50.77 51.92 52.93 57.42 63.04 64.62 64.75 65.07 63.18 63.82 62.19 62.15 62.49 62.43 61.98 62.81 62.77 61.69 61.38 60.30 60.61
37.52 39.26 37.73 38.16 41.69 42.99 43.84 45.06 45.21 45.62 45.09 44.32 44.37 44.37 43.52 44.02 43.82 44.75 45.83 46.43 47.35 47.68 48.73 50.99 52.55 57.06 59.80 63.92 64.74 65.60 65.33 64.23 62.75 62.37 62.36 61.81 61.89 61.62 55.67 51.94 52.37 58.21 52.91 55.73
39.55 40.08 37.97 37.06 42.84 41.81 41.74 45.34 46.62 44.74 44.03 44.42 43.05 42.11 43.17 43.43 43.77 45.65 46.28 47.41 47.44 47.74 49.34 51.16 53.69 58.88 60.55 64.32 63.83 65.09 64.48 64.11 62.97 61.85 61.83 61.45 61.85 60.04 57.51 55.63 53.56 42.01 41.28 41.25

GFSCGP_sfc_wetblb_066.txt.gz
Wetbulb
40.30 34.78 31.40 35.10 36.82 38.73 37.56 36.01 34.76 38.06 41.50 39.52 39.05 39.23 41.74 44.06 43.38 43.35 44.17 45.69 46.84 49.15 54.11 56.32 58.09 57.90 58.28 59.21 61.18 64.12 69.11 68.74 69.38 67.85 67.86 66.61 67.31 66.76 66.72 67.28 68.61 68.82 70.13 69.14
36.14 32.11 38.67 40.69 40.57 38.84 37.25 34.98 34.70 38.45 41.60 39.56 38.31 38.32 41.73 43.40 43.24 43.45 44.34 45.33 45.97 47.08 48.86 53.79 56.85 55.93 55.90 58.53 61.91 62.07 67.78 69.69 70.13 69.53 68.91 66.10 66.54 63.89 64.33 66.09 67.38 68.44 70.35 69.64
32.65 36.97 41.52 39.74 38.73 37.60 36.06 34.52 35.50 35.93 40.31 40.69 37.58 35.66 38.39 42.24 42.98 43.86 44.32 44.82 46.04 46.65 47.77 50.16 54.08 56.64 56.56 56.57 61.42 62.67 65.43 68.48 69.43 68.63 64.56 63.64 64.01 64.63 65.00 64.94 64.89 67.26 69.82 70.64
35.68 39.61 39.21 38.02 37.50 38.36 32.71 39.96 39.14 38.02 34.92 28.34 36.48 27.38 35.13 38.37 39.02 41.75 43.22 43.38 43.68 45.17 47.17 49.27 52.30 55.61 56.64 57.07 61.88 62.88 63.63 66.39 66.99 65.30 64.70 62.38 61.70 61.55 62.57 63.94 66.40 67.80 69.47 70.24
34.71 35.98 36.58 36.17 38.09 40.65 36.16 40.29 38.45 38.10 34.04 31.17 32.78 26.68 33.38 37.27 36.98 39.22 41.22 42.89 44.35 45.69 46.83 47.59 50.20 53.74 56.82 58.41 61.73 63.28 63.64 64.08 65.04 64.79 64.80 63.66 61.93 62.50 62.93 65.34 66.09 67.73 68.15 69.38
37.38 41.55 39.60 39.94 41.91 40.99 41.26 37.99 36.11 33.93 30.77 23.90 30.76 28.01 30.25 33.64 36.05 38.56 41.87 43.98 45.27 45.21 45.92 47.67 48.98 49.83 53.57 57.50 61.18 62.48 62.71 63.24 63.42 64.09 63.97 63.00 62.50 63.30 64.08 64.89 65.61 66.75 67.07 67.77
36.14 36.60 39.16 42.87 36.92 38.59 35.59 31.69 22.86 21.95 20.90 21.97 31.77 29.11 31.11 37.31 40.43 41.59 42.59 43.89 45.83 47.06 48.26 47.65 47.36 48.79 51.27 56.47 59.80 61.20 61.43 61.86 61.97 63.10 63.14 63.57 63.24 63.39 64.15 65.11 66.60 66.44 66.26 66.07
27.87 26.46 36.40 40.99 36.67 31.70 31.75 30.80 23.41 20.49 20.87 24.13 32.65 25.40 30.90 39.09 43.44 44.99 45.63 44.76 45.63 45.85 46.98 48.48 49.49 48.18 49.03 54.01 60.15 61.14 60.84 61.37 61.39 61.30 62.13 64.24 63.93 63.57 64.41 66.05 68.18 68.36 68.30 67.85
26.38 30.15 39.59 40.79 40.81 37.33 32.44 27.04 32.93 28.22 27.35 21.67 25.91 31.41 36.88 43.00 42.57 43.18 42.86 44.07 44.00 45.28 46.50 48.41 50.56 50.45 52.02 54.22 59.08 60.66 60.84 60.93 60.45 62.09 62.65 62.92 64.38 63.61 64.87 67.08 68.61 68.50 68.03 67.81
33.89 27.93 37.46 39.19 40.16 38.93 35.58 37.07 26.41 27.75 17.87 17.86 25.27 27.29 28.67 36.94 39.04 40.81 40.86 41.76 43.43 45.18 46.73 49.29 50.44 52.50 54.91 54.62 57.46 56.85 59.61 59.86 59.43 61.64 63.13 64.77 64.86 66.53 66.63 67.93 67.79 67.75 67.30 68.29
34.47 31.20 32.06 35.96 33.34 30.92 31.69 30.08 34.04 30.23 28.90 23.23 22.23 24.84 38.02 38.34 39.90 39.57 40.78 42.62 43.66 45.15 47.72 49.93 49.83 54.49 55.16 57.41 58.52 57.36 55.99 58.47 60.44 62.71 63.28 65.37 66.47 67.50 68.56 68.53 68.12 67.39 67.70 67.57
36.69 32.33 27.60 31.13 37.49 38.97 36.16 32.96 31.68 23.00 25.13 28.54 25.62 26.27 40.47 39.83 40.31 41.21 42.06 42.92 44.26 46.56 48.55 49.46 50.49 50.41 59.21 58.18 59.22 59.68 58.21 60.35 62.67 65.63 66.42 66.63 67.28 68.38 68.53 68.87 68.13 68.04 67.83 68.16
36.53 29.81 26.41 26.65 30.74 34.97 32.24 34.17 32.81 31.80 31.45 26.44 24.38 25.98 40.53 41.81 42.15 41.94 42.86 44.19 45.44 47.64 49.06 49.28 49.88 50.79 58.58 59.53 59.44 59.75 60.45 63.99 66.29 67.46 67.25 67.05 67.48 68.00 67.23 67.09 67.95 68.35 67.84 66.89
41.62 32.64 29.05 24.23 28.77 30.75 30.16 33.46 35.24 33.35 29.38 27.88 29.05 31.36 36.97 40.23 40.61 42.42 43.38 44.61 46.40 48.49 49.15 48.51 49.44 50.52 56.67 61.96 61.09 60.37 64.56 66.94 67.88 68.06 67.73 66.94 66.26 66.13 66.02 66.29 65.98 66.81 66.27 65.58
36.06 30.55 33.10 33.69 35.26 35.89 34.66 34.29 34.31 32.05 32.95 29.83 32.04 32.92 37.04 39.79 41.47 43.11 44.98 45.64 46.98 47.66 48.11 49.31 51.63 50.95 59.29 61.15 62.06 64.64 66.79 67.60 68.00 67.50 66.43 65.77 65.78 65.91 65.60 65.05 63.73 64.05 63.79 64.05
36.31 30.62 34.18 31.88 35.40 35.71 33.69 35.46 35.81 35.26 35.24 34.31 35.14 33.94 41.26 42.82 43.89 44.11 45.21 46.02 46.17 48.49 50.09 50.10 50.37 51.45 55.42 59.38 59.68 63.19 66.08 67.08 67.29 66.31 65.56 65.93 65.84 65.29 64.90 64.49 62.97 62.76 61.88 61.47
33.85 33.00 33.05 27.02 33.79 32.99 28.25 32.98 33.92 35.75 37.02 35.61 30.94 36.11 41.05 41.15 42.04 42.32 43.96 46.04 47.16 46.90 47.77 48.07 49.02 50.47 54.61 59.00 59.63 60.70 63.85 66.24 66.11 65.71 65.68 65.58 65.49 64.36 63.50 63.10 62.08 60.72 59.66 59.32
36.08 35.81 33.91 28.09 28.10 21.26 32.25 40.53 40.03 37.93 38.76 37.96 37.96 40.61 41.33 41.38 42.60 43.51 45.05 46.29 45.61 45.55 46.04 47.15 48.62 50.11 53.40 60.50 60.71 63.34 64.58 65.14 65.32 65.09 64.85 65.36 64.39 62.92 62.73 61.84 61.00 60.01 59.70 59.43
38.02 36.24 30.77 26.98 22.79 30.01 33.53 38.60 37.47 35.07 34.33 41.04 39.75 39.86 40.69 42.08 41.79 41.33 45.66 46.08 45.04 44.92 46.30 47.79 49.13 50.30 53.86 59.29 60.83 60.95 62.24 64.84 64.94 64.74 64.14 63.85 63.83 62.19 61.93 60.83 60.61 59.62 60.44 62.04
37.97 38.61 32.93 28.07 24.52 21.10 28.85 40.06 41.95 39.17 29.61 42.12 40.14 39.20 39.37 40.28 33.98 37.27 43.45 44.56 45.07 46.09 47.54 48.03 49.14 50.40 56.86 57.59 59.58 58.52 59.64 63.98 63.55 63.69 63.83 63.69 63.14 61.84 60.83 60.49 60.66 60.83 60.04 60.18
34.94 33.99 30.29 30.03 26.99 29.95 37.60 41.41 41.80 26.32 31.65 41.77 40.85 40.22 39.78 37.95 40.02 42.53 44.19 44.37 45.72 46.03 47.15 48.83 48.88 48.93 53.88 57.82 57.48 57.61 58.14 61.13 63.28 63.58 63.63 63.34 62.65 61.21 60.49 60.44 60.60 59.51 60.22 60.40
28.05 30.36 29.11 30.56 28.39 22.52 42.44 40.29 32.40 35.46 40.57 42.54 41.41 41.70 40.85 41.76 42.80 43.15 43.90 44.43 45.12 45.19 46.80 48.38 48.14 48.46 51.08 57.48 58.73 57.39 58.07 61.31 62.57 63.64 63.19 62.72 62.27 62.97 61.95 61.22 60.06 60.40 59.76 59.12
28.97 33.49 31.81 33.58 29.95 37.59 41.62 40.95 43.46 43.55 42.90 41.99 42.65 42.51 42.08 41.98 42.27 43.02 43.57 44.54 44.91 45.22 46.24 47.48 47.89 48.57 51.13 58.09 61.34 61.66 59.93 62.02 61.69 62.81 62.51 62.57 62.73 62.26 62.41 61.48 60.20 59.73 59.21 58.75
37.83 39.50 33.86 33.74 36.85 39.11 42.19 44.43 44.74 44.70 43.74 44.81 43.84 43.23 43.06 41.90 42.85 43.68 44.25 43.82 44.70 45.60 46.25 47.84 47.63 47.75 50.66 58.08 59.17 61.50 61.14 62.32 62.81 62.55 62.69 62.63 60.93 60.56 61.04 61.48 61.25 60.35 59.53 58.81
35.63 35.88 34.70 35.19 39.15 41.73 43.28 44.71 44.30 44.86 44.83 44.61 44.20 43.65 43.71 44.25 43.55 42.96 42.62 43.34 44.56 45.98 47.10 47.76 47.63 48.19 51.55 57.26 57.42 61.48 61.82 62.96 62.02 61.87 62.20 61.47 61.07 59.72 55.32 50.48 53.10 59.47 57.26 57.66
37.30 35.97 33.99 34.43 40.93 41.81 42.02 44.43 45.39 44.35 43.58 44.12 43.73 44.07 44.89 44.33 42.84 43.00 42.25 43.52 44.32 45.58 47.20 47.31 48.22 50.63 53.63 56.91 57.55 58.82 63.19 62.86 62.36 61.19 61.55 60.79 58.73 56.92 55.06 54.12 51.20 41.02 41.18 41.61

GFSCGP_sfc_wetblb_069.txt.gz
Wetbulb
38.36 33.58 30.08 33.56 35.29 36.70 35.40 33.63 32.59 36.14 39.88 37.19 36.88 37.94 40.78 42.71 42.54 42.45 43.74 44.73 45.33 46.31 48.88 49.99 50.52 53.60 55.84 58.07 59.09 60.73 62.52 64.17 68.25 67.64 66.60 66.82 67.05 67.74 67.08 67.40 67.86 67.85 68.08 67.42
34.80 30.35 37.21 38.94 38.12 36.98 35.46 32.57 32.32 36.60 40.60 38.93 37.05 37.38 41.08 41.92 41.33 41.94 42.96 43.78 44.37 45.18 46.38 48.43 49.73 50.49 52.52 54.23 58.62 59.40 61.91 64.72 65.88 67.37 67.60 66.71 67.92 65.30 67.77 67.26 67.32 67.87 68.03 68.22
31.54 35.81 40.01 38.05 36.88 36.06 33.69 32.46 33.17 33.95 38.00 38.89 36.25 34.74 36.67 39.89 41.57 42.59 42.53 43.04 44.22 44.16 44.48 46.10 47.71 48.08 48.86 51.70 53.82 58.95 61.01 65.00 67.68 68.22 64.92 62.88 63.74 64.08 63.46 63.30 64.14 65.80 67.50 68.91
34.05 38.05 37.85 35.71 35.95 36.89 31.04 38.11 37.62 35.72 32.87 26.52 35.73 25.52 33.67 36.25 37.77 39.70 40.95 40.76 41.75 42.87 44.15 45.25 46.42 46.96 47.99 49.46 52.96 56.60 59.45 63.12 67.51 68.64 65.27 64.23 65.27 65.30 64.83 63.45 63.48 64.36 66.72 69.20
34.10 34.63 34.79 34.11 36.24 39.33 34.75 39.34 36.38 35.70 32.60 29.23 31.16 25.26 30.41 36.46 35.27 36.65 38.66 40.28 41.52 45.09 46.85 47.97 49.43 49.54 48.32 48.78 49.93 54.29 59.43 61.30 65.48 67.72 67.43 65.88 61.68 62.83 61.69 63.44 63.53 64.75 66.56 69.18
35.69 39.20 37.99 37.63 40.44 39.95 40.03 35.16 33.95 32.17 27.92 21.67 29.37 27.51 30.20 31.93 34.04 36.38 39.23 43.50 45.30 46.06 47.03 47.69 49.24 50.36 51.01 51.09 49.18 51.64 57.66 60.59 63.01 66.25 65.97 65.69 65.38 61.98 61.47 62.95 63.37 65.31 66.43 68.24
34.18 34.81 37.82 41.60 35.43 36.80 33.48 27.12 20.12 19.72 20.27 20.78 29.85 26.90 30.68 36.10 38.96 39.85 41.78 43.70 44.47 44.96 45.16 45.96 46.35 47.88 49.77 50.96 51.09 52.40 56.49 59.71 61.50 64.06 64.95 65.57 64.36 63.22 62.31 63.15 63.64 65.14 65.46 66.18
26.84 25.79 34.99 39.78 35.38 31.70 30.79 28.30 19.72 16.49 19.64 22.15 31.39 24.37 29.25 37.41 42.70 44.22 44.76 44.37 45.03 44.46 44.82 45.37 46.35 47.51 49.79 50.86 52.06 49.79 52.64 59.04 61.14 62.47 63.44 64.59 63.83 61.94 62.20 63.67 64.68 65.79 66.78 66.99
25.32 29.12 38.62 39.87 39.02 36.35 30.79 26.10 30.31 24.71 25.13 20.44 24.70 30.02 35.57 39.01 41.60 42.66 41.94 43.41 42.17 43.57 44.91 45.66 47.16 48.97 50.41 51.22 52.37 53.02 51.42 58.12 60.68 61.72 62.96 62.37 62.05 60.69 61.95 63.49 65.46 66.35 66.53 67.25
32.66 27.06 36.09 38.18 38.40 37.89 33.65 35.14 25.22 21.28 14.28 16.23 23.79 25.73 27.59 33.38 36.18 40.36 40.40 40.57 42.37 44.13 44.85 45.74 46.96 48.97 51.15 51.99 52.24 55.35 54.89 56.41 60.37 61.08 61.91 61.53 62.32 62.09 62.13 64.99 66.06 66.58 66.15 67.14
33.34 30.16 30.78 34.89 32.00 29.41 29.53 27.81 29.98 26.61 28.46 22.14 20.65 24.09 33.86 35.75 38.57 38.65 39.71 41.29 42.34 43.85 45.13 46.19 47.70 49.37 50.61 51.90 51.77 55.34 53.82 57.46 59.04 57.36 59.38 60.46 62.04 63.13 64.24 65.44 66.42 66.78 66.74 67.25
35.11 30.62 27.24 30.32 36.83 37.42 34.23 30.80 29.98 21.82 23.05 25.91 24.87 25.77 38.21 38.42 39.28 40.05 39.92 42.23 43.67 43.97 45.81 47.14 48.78 49.76 51.19 51.70 51.99 55.90 53.10 56.62 57.63 58.60 60.72 62.28 63.01 64.92 65.30 65.87 66.56 66.44 66.60 67.43
35.12 29.76 25.95 26.24 30.07 34.12 32.40 33.44 32.23 30.81 30.65 25.90 24.22 26.26 38.37 39.54 40.38 41.60 40.46 42.80 43.90 44.27 46.17 48.56 49.33 50.46 50.67 52.57 52.33 57.87 55.93 56.20 57.95 60.40 61.36 63.33 64.69 65.77 66.06 66.44 66.33 66.58 66.67 66.81
40.70 32.54 30.70 25.18 28.08 29.69 30.25 33.73 33.80 30.54 28.14 26.68 28.11 30.29 35.34 37.57 38.87 41.19 41.98 44.54 46.47 45.20 49.57 49.70 50.07 50.14 50.98 52.82 59.59 61.55 58.89 61.37 62.71 63.70 63.85 64.50 65.84 66.51 66.51 66.73 66.71 66.85 66.94 66.81
35.11 28.07 31.26 32.97 34.76 34.90 33.83 33.66 34.58 32.90 32.18 27.47 30.26 30.87 35.09 37.40 38.89 41.51 44.67 45.84 46.71 45.32 49.08 48.59 47.77 48.68 49.98 51.46 57.98 59.98 60.79 63.72 65.11 65.47 65.31 65.30 65.88 65.63 66.10 66.53 66.75 66.22 66.36 65.96
34.15 29.44 34.46 30.56 34.23 34.39 32.77 34.70 34.93 35.12 34.67 33.47 33.41 32.34 38.21 41.01 41.98 42.94 44.20 44.79 45.57 46.71 47.44 46.97 47.26 48.20 49.19 51.66 57.30 58.91 61.58 65.38 65.95 65.77 64.98 65.18 65.06 65.22 64.93 64.75 64.93 64.83 64.59 63.94
30.75 29.21 29.10 26.48 32.92 31.92 27.79 32.61 33.66 33.83 35.19 35.01 30.50 35.02 39.37 39.45 40.77 40.99 41.71 42.88 45.01 45.51 45.78 45.56 46.69 47.97 48.53 51.80 58.14 59.00 59.72 65.42 65.70 65.21 65.24 64.82 64.80 64.48 64.04 64.32 64.16 63.35 62.08 61.38
31.53 32.40 34.49 29.01 27.65 20.59 31.03 39.32 39.70 36.79 37.26 37.22 36.07 38.00 40.34 40.26 41.61 42.41 43.67 44.19 43.31 44.61 44.90 45.49 47.01 47.45 48.81 55.38 58.01 59.59 61.07 63.87 64.42 64.50 64.36 64.32 64.27 63.44 63.53 62.75 61.62 59.64 59.83 59.89
35.89 34.47 31.47 27.26 24.49 28.59 31.90 36.98 37.04 33.87 33.30 38.31 38.68 39.19 39.85 41.38 41.33 41.03 44.57 44.21 44.18 44.73 45.62 45.98 46.89 47.74 48.28 53.43 56.92 59.11 59.92 59.92 63.90 64.02 63.83 63.87 63.93 62.87 62.19 60.86 60.04 59.11 58.97 58.30
35.66 36.97 33.39 29.21 24.74 16.90 28.54 39.62 41.51 37.78 30.08 39.21 39.77 38.42 38.59 39.98 35.05 38.73 43.31 44.93 44.93 45.53 46.25 45.48 46.56 47.67 47.01 49.41 55.60 57.03 58.77 59.33 58.69 63.74 63.63 63.78 63.79 62.35 61.19 60.41 59.42 58.59 59.97 59.17
33.72 33.57 29.52 29.09 27.02 28.56 36.22 40.90 42.14 30.69 29.47 39.64 40.18 40.50 39.50 38.36 40.07 43.21 44.42 44.15 45.05 45.49 45.47 46.06 46.21 46.10 47.43 50.04 55.07 56.85 58.40 58.60 59.61 63.97 63.89 63.39 62.62 61.25 60.80 59.79 59.99 58.93 59.11 58.25
26.99 29.78 28.33 30.73 28.14 24.37 42.06 39.93 33.40 36.54 37.98 42.09 43.27 42.72 41.71 42.38 42.72 43.08 43.61 43.80 44.24 44.53 45.38 46.10 45.53 46.11 48.41 49.99 56.61 57.54 57.38 58.84 60.29 60.92 62.54 61.08 60.72 61.40 60.83 59.53 60.55 60.39 59.33 58.13
26.18 31.07 31.45 32.23 29.02 37.35 41.15 40.40 42.14 42.55 43.06 43.32 42.17 42.90 43.01 42.35 42.17 42.82 42.68 43.06 43.87 44.30 45.11 46.21 46.08 46.97 48.35 50.86 56.69 57.68 57.89 59.33 59.58 61.44 61.12 60.67 60.78 60.59 60.27 59.59 59.19 58.79 59.07 58.36
34.64 36.64 30.98 31.45 35.13 37.24 39.37 41.96 44.35 44.75 44.17 44.96 44.47 42.96 43.39 42.10 42.61 42.69 42.66 43.34 43.64 43.72 44.18 45.55 46.16 46.44 47.47 51.23 56.84 58.99 60.39 59.63 60.51 60.91 60.93 60.62 60.13 59.73 60.22 60.45 60.15 59.07 58.44 58.50
34.20 34.76 32.04 32.36 36.37 38.75 40.99 42.83 44.70 44.86 45.10 44.38 44.56 43.89 43.46 43.02 43.05 42.77 43.58 43.91 43.92 44.01 44.12 44.76 46.15 46.58 48.33 51.40 57.06 59.64 59.83 61.50 60.40 60.95 60.82 60.03 59.74 59.92 56.77 51.67 55.26 59.18 58.09 57.83
35.14 33.43 32.27 31.98 38.25 38.45 38.76 43.34 44.53 43.41 43.84 43.40 42.97 42.01 42.54 42.61 42.95 44.91 43.80 44.11 43.92 43.79 43.87 44.65 46.56 47.81 49.29 53.62 55.74 58.29 58.61 60.19 61.88 61.12 60.75 60.42 59.05 57.60 55.21 54.07 50.98 40.91 41.02 43.31

GFSCGP_sfc_wetblb_072.txt.gz
Wetbulb
37.16 33.25 29.74 32.77 34.19 34.83 33.80 31.97 31.22 34.63 38.21 36.24 35.45 36.71 39.24 41.97 41.95 41.73 43.04 44.34 45.31 46.49 48.78 50.37 50.33 50.34 50.82 54.34 54.79 55.70 60.53 64.28 66.37 65.29 64.38 64.91 64.89 66.00 66.60 67.15 67.30 67.13 66.84 66.68
33.52 29.71 35.85 37.56 36.76 35.22 33.62 31.09 30.52 35.11 38.66 37.08 35.45 36.16 39.67 41.17 40.80 41.38 42.30 43.05 44.11 45.96 46.78 48.83 48.82 49.03 48.42 48.97 51.25 53.68 55.40 59.16 64.70 66.94 66.92 66.76 66.64 67.10 67.64 67.99 67.62 67.74 67.57 67.33
30.91 34.66 39.02 36.91 34.70 34.59 32.81 31.52 31.11 32.48 36.26 36.94 34.52 31.85 34.27 38.26 39.83 41.53 41.82 42.60 43.28 43.61 45.27 46.07 48.33 48.69 47.58 47.18 48.09 52.04 54.02 55.87 60.16 65.77 64.93 64.16 64.80 64.76 64.75 65.44 67.00 67.85 68.08 68.18
32.77 36.51 36.59 33.95 34.03 35.49 29.44 36.55 36.15 34.50 30.98 24.79 34.54 23.42 31.73 36.10 37.56 38.75 39.78 39.85 40.27 41.25 46.25 48.32 49.41 50.13 50.32 49.71 48.83 48.35 52.65 54.90 57.39 62.27 64.85 65.25 65.83 65.48 66.11 65.48 66.93 66.28 67.98 68.42
33.38 33.06 33.45 32.19 34.54 37.81 33.01 37.39 34.91 33.74 29.80 27.40 29.29 24.41 28.83 34.69 33.76 36.18 38.05 39.05 40.94 44.63 45.75 46.90 48.21 49.42 50.66 50.82 50.41 49.06 48.91 54.28 56.99 59.41 65.38 65.35 65.17 66.43 65.69 63.86 64.39 64.95 65.58 67.53
34.66 37.47 36.03 35.43 38.25 38.55 38.44 33.50 31.36 29.05 26.48 20.22 26.66 26.30 25.42 29.93 33.44 36.08 38.62 40.64 44.21 45.05 45.80 46.30 47.62 48.39 48.54 49.90 50.50 51.15 49.91 48.69 55.89 58.92 63.68 65.56 65.44 64.86 62.13 62.95 63.50 64.20 65.43 67.00
33.24 33.46 36.18 39.95 34.02 35.13 32.57 26.28 19.86 18.10 18.61 19.49 28.32 25.72 29.12 34.60 38.65 38.28 38.63 42.04 44.20 44.46 43.94 44.71 45.23 46.13 47.48 48.16 49.59 51.20 52.08 50.80 52.40 57.81 60.91 65.56 66.25 65.99 63.18 64.02 62.94 64.15 65.07 66.25
27.62 26.30 33.67 38.39 34.18 31.00 29.53 27.92 19.92 15.53 18.05 19.81 28.31 22.97 27.66 36.43 38.94 41.55 44.21 43.67 43.97 43.45 42.25 43.97 46.14 46.85 47.57 48.71 49.75 51.09 51.43 51.64 51.65 54.00 59.12 62.96 65.72 66.18 64.64 63.98 63.54 64.30 65.62 66.70
25.39 29.22 38.22 39.05 38.07 35.84 29.32 24.94 28.62 22.70 22.49 19.24 23.01 28.02 34.37 37.98 38.26 41.36 41.60 42.53 41.86 41.72 43.55 44.97 46.28 47.29 47.89 48.65 49.37 51.14 51.85 52.09 53.22 52.24 57.74 60.70 63.67 64.96 64.42 63.15 64.59 64.85 66.33 67.00
31.59 26.40 35.16 37.26 37.24 36.13 32.80 33.68 23.88 19.88 13.72 11.58 20.85 24.10 26.33 32.84 36.03 37.85 39.80 39.97 41.17 42.68 43.69 44.52 45.95 47.20 48.76 49.65 50.37 51.52 52.35 51.73 52.61 54.78 56.23 60.10 62.37 63.84 62.96 63.23 64.37 65.35 66.42 67.47
32.73 29.33 30.17 34.04 31.31 29.12 28.23 25.99 28.45 24.79 21.86 17.22 19.14 22.75 32.62 33.06 35.23 36.28 38.37 40.04 40.76 41.92 42.98 44.90 45.61 49.76 49.50 50.35 50.62 51.41 52.66 52.96 53.20 55.85 55.97 59.61 61.42 62.05 61.92 63.29 64.75 65.82 66.49 67.32
33.81 29.33 26.34 29.43 35.17 35.97 32.02 29.31 28.38 21.03 22.47 25.23 23.85 25.01 37.16 37.74 38.12 38.90 39.67 41.51 41.60 43.14 44.59 45.64 47.45 50.76 49.93 50.68 51.37 51.83 53.38 54.80 54.07 55.14 56.63 59.72 60.92 61.86 62.58 63.76 65.18 66.29 66.40 67.67
34.91 28.80 23.87 25.25 27.72 32.25 29.95 31.82 31.11 31.12 29.53 25.45 23.46 24.88 37.52 38.14 38.70 40.13 39.73 41.86 42.99 44.62 45.73 47.04 49.29 48.43 47.28 47.66 49.60 51.11 54.32 59.41 57.78 55.98 58.07 59.60 61.29 62.64 63.05 63.98 65.41 66.37 66.87 67.36
40.35 31.10 28.29 23.28 25.97 27.29 27.96 32.11 33.20 32.80 27.56 26.38 27.05 28.95 33.75 36.33 37.28 39.01 40.77 42.86 43.92 45.90 47.86 48.16 47.04 47.23 47.36 47.13 49.11 51.56 54.64 59.74 58.37 57.25 59.02 60.80 62.24 63.37 64.05 65.06 65.64 66.44 67.07 67.09
34.01 27.70 30.49 32.35 33.53 33.82 32.69 32.58 33.40 31.59 32.08 28.95 30.50 30.42 34.01 36.56 37.69 40.27 42.39 44.40 44.37 44.49 47.03 47.95 46.49 47.02 46.48 46.69 48.96 50.14 56.74 60.71 59.53 58.67 59.93 61.57 63.59 64.71 65.66 65.75 66.08 66.64 66.93 67.16
36.44 28.50 30.51 29.98 33.70 33.01 30.33 32.62 33.35 33.72 33.66 33.22 33.55 32.47 39.80 40.74 40.71 41.29 41.28 42.24 42.77 44.77 45.53 46.15 46.84 47.14 46.72 47.66 47.94 50.01 57.01 59.95 64.38 62.43 61.73 64.11 64.97 65.75 66.18 66.31 66.73 66.78 66.78 66.44
30.78 28.98 29.06 24.72 30.33 30.48 27.06 31.40 32.63 33.17 34.71 34.22 29.84 34.91 37.80 38.88 40.07 39.75 40.59 42.48 42.95 44.16 44.46 44.85 45.83 46.74 47.56 48.27 48.78 49.19 57.79 61.45 64.77 64.27 64.61 65.06 65.42 65.37 65.75 66.13 66.22 65.85 65.43 65.08
30.08 31.21 31.30 27.32 29.37 21.84 30.75 35.84 37.91 35.83 36.63 36.54 36.38 37.72 39.14 39.85 41.30 41.15 43.27 42.89 43.05 43.98 44.74 44.96 45.49 46.09 46.94 47.75 49.68 51.69 57.20 59.92 64.31 64.61 64.61 65.13 65.24 64.52 65.27 65.61 65.04 64.95 63.81 63.69
35.15 33.15 30.58 27.23 24.30 27.11 31.69 34.66 35.32 33.15 33.15 38.78 37.13 38.62 40.42 40.66 40.70 41.27 44.81 44.29 44.29 44.93 45.46 45.44 46.33 46.86 47.01 47.48 48.95 50.52 56.40 58.90 62.82 64.23 64.32 64.82 64.80 64.07 64.43 64.13 62.84 62.55 62.02 62.36
36.17 35.73 31.68 29.80 23.29 17.15 28.11 37.35 40.29 37.21 29.43 38.34 38.85 38.53 38.67 40.08 35.94 39.28 44.30 45.53 45.46 45.94 45.87 45.71 46.54 46.77 46.40 47.55 48.94 49.81 55.94 58.68 58.74 63.50 63.78 63.94 63.63 63.39 62.91 62.34 61.54 61.66 61.94 60.65
31.73 31.87 28.64 28.68 26.58 28.61 35.63 39.79 40.99 28.50 29.07 37.72 39.68 39.73 39.41 38.63 40.98 43.45 44.70 44.37 45.18 45.48 45.50 46.90 46.41 45.29 46.33 47.88 48.94 51.91 57.80 57.80 59.25 62.73 64.07 63.43 63.19 62.26 61.49 61.20 60.99 60.65 59.98 58.96
30.95 29.96 27.43 29.80 27.12 22.94 41.33 39.87 33.22 35.29 39.18 40.15 41.24 41.81 42.06 43.16 43.07 43.48 43.80 43.84 44.30 44.61 45.03 45.94 44.77 44.99 46.55 48.08 49.17 52.55 55.83 59.49 60.28 60.69 61.65 63.07 62.21 61.78 61.62 60.82 60.32 59.59 58.49 56.83
25.55 29.78 26.23 31.05 28.01 37.56 40.58 39.62 40.76 39.92 39.34 41.91 42.11 44.05 44.26 42.59 42.57 43.18 43.24 43.71 43.67 43.64 44.26 44.71 43.96 44.27 45.46 48.27 49.84 53.24 56.92 59.27 59.97 60.33 61.96 61.20 61.53 61.28 61.19 60.58 59.59 58.71 58.02 56.66
32.57 35.12 30.70 30.48 34.98 35.70 37.52 40.73 42.28 43.43 43.00 43.04 44.36 44.28 43.66 42.16 42.94 43.43 43.20 43.57 43.63 44.28 45.38 45.95 44.03 43.45 44.38 48.16 50.18 55.25 59.25 59.43 58.98 57.84 59.03 60.98 60.15 59.76 60.50 60.51 60.21 59.27 58.59 58.18
34.45 33.45 31.97 31.71 34.63 37.07 39.18 41.49 42.83 42.00 42.95 44.55 43.93 43.67 42.65 42.60 42.46 42.56 42.82 43.10 43.37 44.99 45.48 45.53 44.24 43.75 45.04 48.27 50.16 56.31 59.67 59.48 58.95 57.46 60.46 60.10 59.85 59.43 54.55 49.79 55.09 59.78 58.92 58.56
34.76 33.34 32.51 32.39 37.61 37.54 38.30 41.38 43.56 42.57 43.36 42.48 42.28 42.01 41.32 40.89 39.36 40.15 40.22 42.51 43.79 44.32 43.92 43.52 43.95 44.45 45.79 48.86 52.60 55.37 59.48 58.48 58.28 60.22 59.77 59.70 58.90 57.14 55.27 54.55 51.66 40.75 42.56 44.80

GFSCGP_sfc_wetblb_075.txt.gz
Wetbulb
42.89 41.39 38.73 39.89 40.32 39.56 38.91 37.58 36.55 39.66 42.62 41.07 40.83 40.82 43.02 45.14 45.57 45.30 46.42 47.86 48.89 49.57 52.61 52.93 53.82 55.21 55.98 58.46 59.37 60.28 59.32 63.10 68.39 69.68 69.58 68.40 67.53 67.80 67.80 68.93 68.99 68.91 68.32 68.54
40.48 37.56 41.61 41.63 40.63 38.90 38.45 37.03 37.12 39.82 42.23 41.26 40.36 39.91 43.52 45.29 45.81 46.61 46.31 47.35 48.48 49.16 49.37 50.21 52.83 55.55 56.73 57.42 59.80 60.34 61.33 61.93 65.19 68.26 69.72 70.39 70.20 69.85 69.68 69.93 70.69 70.50 69.23 68.04
37.93 39.63 41.96 40.24 39.11 38.40 38.81 37.10 37.07 36.74 40.09 41.29 39.86 38.28 40.22 44.03 45.46 46.49 47.33 48.45 48.48 47.06 47.45 49.86 52.59 55.15 56.32 56.33 57.51 58.77 59.89 61.09 63.30 66.49 68.56 71.11 71.15 70.53 70.07 70.25 70.25 70.44 70.45 68.57
39.41 41.01 39.90 39.08 38.21 40.00 35.66 40.59 39.45 37.96 36.12 32.30 39.32 30.59 38.27 41.57 42.89 44.14 45.75 46.99 47.44 46.77 49.03 51.34 52.46 52.90 53.67 54.91 56.43 57.38 59.54 60.02 60.46 62.91 65.26 69.00 67.25 67.51 69.88 71.18 71.63 71.73 71.05 70.81
38.22 39.16 38.82 37.88 38.98 41.44 37.93 40.87 39.59 38.45 36.27 35.51 35.76 32.38 36.81 40.68 39.79 41.94 45.08 46.83 47.91 48.77 51.14 51.70 51.05 51.46 52.19 53.81 54.58 56.13 57.91 59.68 60.35 61.06 63.13 63.10 67.79 68.26 70.25 70.87 72.92 73.30 72.64 72.33
40.51 42.09 40.97 40.54 41.30 42.58 41.82 39.32 38.78 36.51 35.22 29.14 33.49 32.95 34.30 37.99 40.52 42.13 44.84 46.46 47.63 50.17 51.35 51.43 51.98 52.17 52.23 53.64 54.43 55.25 56.87 57.85 59.82 59.71 61.03 64.07 66.76 68.46 67.64 69.66 69.01 69.12 70.59 72.07
38.34 39.06 41.11 43.02 39.54 40.25 39.47 36.67 30.03 28.37 28.38 28.52 34.54 32.15 35.31 40.73 42.72 43.64 43.81 45.91 48.82 50.66 50.79 50.65 51.22 51.63 52.17 52.67 53.72 54.51 55.72 56.71 58.61 58.93 59.60 61.40 65.26 68.35 69.79 70.15 68.88 69.59 69.26 70.32
33.79 32.10 38.77 42.03 39.79 37.49 37.57 36.44 30.14 21.65 25.17 28.92 35.15 29.27 35.85 42.01 44.15 45.06 45.90 48.28 49.82 50.05 50.43 50.83 51.36 51.82 52.64 54.10 54.63 54.69 54.54 55.19 57.19 58.11 58.80 59.76 63.49 63.34 67.11 70.05 69.20 69.02 69.76 71.56
33.59 33.09 40.60 41.44 41.89 40.89 35.93 33.20 36.73 31.77 32.50 27.64 31.49 35.26 39.54 42.23 42.63 44.10 45.43 47.16 47.70 49.27 50.01 50.51 51.40 52.26 52.79 55.46 55.54 55.73 55.74 55.89 56.66 57.90 59.15 58.99 60.19 63.73 65.58 68.67 68.48 67.53 71.01 71.45
37.71 31.69 38.50 40.30 41.72 41.17 39.02 39.93 31.41 32.87 22.88 21.52 29.03 30.79 32.30 37.87 40.10 42.98 43.92 45.44 47.29 48.67 49.53 50.59 51.43 52.16 53.86 55.13 55.03 54.81 55.78 56.18 57.23 58.03 58.71 59.02 60.88 61.14 63.92 67.45 67.95 67.65 70.29 71.62
39.75 35.94 34.81 38.15 36.51 35.65 35.94 34.71 35.21 34.16 31.84 25.27 24.34 30.50 39.93 39.96 41.70 42.41 44.05 46.35 46.50 47.78 49.75 50.51 51.66 52.73 53.30 53.22 53.76 54.32 53.78 54.83 56.60 58.31 59.51 60.17 61.69 62.83 65.64 67.26 68.58 68.98 71.19 71.71
40.70 37.03 31.91 34.18 40.14 40.64 39.09 36.58 36.52 29.82 28.11 31.33 30.25 30.39 42.52 42.77 43.41 44.54 44.64 45.52 47.04 49.74 50.32 50.82 51.65 52.37 52.30 51.99 52.51 53.40 53.28 53.69 56.44 58.59 60.91 61.90 62.36 63.63 65.73 67.35 68.52 69.94 70.69 70.74
40.62 35.20 29.27 31.19 35.04 37.30 35.38 37.03 37.28 36.68 34.89 29.62 26.55 31.26 42.27 43.41 43.74 44.71 44.40 45.76 47.86 48.84 49.68 50.46 51.73 51.81 51.17 50.91 50.41 51.82 52.54 53.44 54.41 54.70 59.84 63.50 62.34 63.19 65.89 67.33 69.05 69.79 69.95 70.44
41.91 36.69 32.85 28.11 31.68 35.25 32.79 35.39 37.14 35.73 30.04 31.47 31.62 34.10 38.98 41.32 42.43 44.11 45.13 46.52 48.29 48.48 48.98 49.59 50.00 49.46 49.93 50.47 49.84 50.55 51.91 53.13 53.39 53.01 57.96 63.25 63.69 63.97 66.20 67.68 68.78 69.69 70.31 70.15
39.46 32.79 34.85 35.51 36.27 36.19 35.08 34.50 35.49 34.24 35.35 30.22 33.66 34.30 38.80 41.77 43.20 44.77 46.11 47.22 46.95 47.38 47.86 48.54 48.71 49.12 49.31 49.19 51.13 51.95 51.86 52.57 53.30 51.54 54.54 63.42 64.07 65.34 66.27 67.10 68.67 70.02 70.34 70.26
39.96 32.63 34.68 31.95 35.79 35.84 33.76 35.96 36.51 36.19 36.48 35.78 36.15 35.73 43.20 44.85 45.71 44.96 45.68 46.18 45.84 46.88 47.73 48.37 49.01 49.22 49.28 48.93 49.84 51.11 50.73 51.19 52.22 51.15 52.76 62.14 63.13 64.04 66.49 67.94 69.01 69.84 69.65 70.19
36.20 34.96 31.96 27.48 33.41 33.22 29.37 34.54 35.96 36.61 38.53 38.17 34.47 39.52 43.77 42.93 43.79 44.61 45.77 46.07 46.26 46.78 47.23 47.52 48.51 48.67 49.65 49.77 50.07 49.88 50.62 52.36 51.18 51.02 52.94 61.54 63.21 64.75 66.59 67.81 68.34 68.77 68.77 69.54
34.24 33.35 32.54 28.30 31.11 22.90 35.65 40.45 40.44 38.48 39.47 41.04 40.98 41.93 43.34 43.74 45.37 46.46 47.25 46.73 46.98 47.50 47.40 48.04 48.78 48.51 48.78 49.28 49.21 48.49 49.59 49.26 50.86 51.71 55.67 62.96 64.02 65.63 67.05 67.44 67.25 67.28 67.17 68.89
37.52 34.50 30.57 27.62 28.36 32.64 35.13 39.10 38.57 37.01 37.59 42.10 41.46 42.14 43.17 44.58 45.43 45.03 48.02 48.83 48.51 48.74 49.33 49.37 49.94 49.32 48.51 48.72 49.08 48.64 48.95 50.06 50.47 60.36 63.17 63.65 65.99 65.97 65.45 65.43 65.52 66.16 66.93 67.39
35.98 35.96 32.46 31.59 27.11 24.94 34.92 39.89 43.19 41.64 32.87 42.53 42.10 41.53 42.12 43.68 37.67 41.63 48.05 48.78 49.01 50.01 50.41 49.33 49.92 49.22 48.61 48.56 48.91 48.67 49.72 53.12 58.95 63.41 63.83 65.72 66.01 65.54 65.50 65.58 65.52 66.45 67.70 66.79
32.82 32.15 28.93 29.17 27.12 32.69 39.88 41.13 43.75 31.29 34.46 42.94 42.76 42.61 43.28 41.73 43.73 46.70 48.84 48.64 49.35 49.64 49.77 50.36 49.91 48.14 48.66 49.53 49.47 49.34 49.69 54.10 59.48 60.75 64.62 66.42 67.67 67.20 65.60 64.81 66.03 65.99 63.95 62.72
30.10 31.24 31.47 32.15 29.28 26.72 42.87 41.64 35.70 40.94 43.98 43.04 42.94 43.82 43.94 44.78 46.09 47.02 47.79 47.81 48.02 48.14 48.74 49.66 48.57 47.78 49.18 49.72 49.27 48.65 49.14 54.34 60.44 60.67 63.94 65.11 65.98 65.38 65.03 65.39 65.19 62.98 62.61 60.97
32.25 36.34 33.25 34.59 34.36 42.81 44.26 42.47 44.11 44.26 42.20 43.08 43.19 44.08 43.48 43.60 45.01 46.53 46.27 46.57 46.96 47.46 47.97 48.72 47.49 48.17 48.76 49.80 49.82 48.35 50.08 53.17 59.67 62.30 62.70 63.58 64.37 64.26 64.75 64.25 65.03 63.36 62.79 63.16
36.91 38.99 35.10 34.48 37.90 39.45 41.57 43.30 43.75 44.70 44.38 45.68 45.84 44.97 44.61 43.90 45.46 45.25 45.69 45.36 45.48 46.12 46.39 48.00 47.28 47.55 48.24 50.03 48.97 49.24 51.21 57.49 59.21 59.74 61.59 62.37 62.24 62.28 63.51 63.79 63.97 62.99 62.70 61.98
36.52 37.83 35.75 35.82 38.88 39.35 40.45 42.36 44.28 45.01 45.45 45.67 45.87 44.58 43.45 43.12 43.39 44.56 43.52 43.24 43.37 43.37 44.77 46.34 46.42 48.16 48.00 48.98 48.60 49.92 52.58 57.87 59.60 58.88 60.77 60.38 61.25 60.75 57.00 55.26 61.09 63.36 63.81 61.00
38.29 35.15 33.06 31.95 37.70 37.51 38.87 43.57 46.29 44.91 43.99 44.41 43.07 41.48 41.73 41.94 41.21 41.14 40.95 42.14 41.58 41.73 43.70 44.40 47.44 47.94 47.71 48.74 49.27 50.36 53.16 57.06 60.12 60.77 60.04 60.20 58.46 57.97 57.19 57.64 54.69 41.91 45.59 44.93

GFSCGP_sfc_wetblb_078.txt.gz
Wetbulb
47.15 44.19 42.25 44.05 44.00 43.39 42.74 41.48 40.86 43.31 45.50 44.22 44.13 44.50 46.60 48.81 48.95 48.93 49.84 50.08 51.33 51.42 53.50 54.79 55.57 56.79 58.31 62.46 62.78 63.27 63.00 64.32 64.77 65.25 67.36 69.57 70.44 70.51 70.46 72.17 72.65 71.37 71.19 71.34
43.88 41.34 45.11 44.87 43.73 42.40 42.05 41.02 41.13 43.46 44.91 43.99 43.52 43.14 46.18 47.74 48.44 49.31 49.71 50.37 50.73 51.39 52.57 52.84 54.31 56.81 58.98 59.78 61.16 62.47 62.52 63.66 63.98 65.07 68.94 66.93 69.57 70.21 71.80 72.75 73.18 72.50 71.58 71.41
41.54 42.89 44.25 43.16 42.43 41.05 42.05 40.76 41.00 40.30 43.01 44.41 43.33 41.75 44.43 46.91 48.38 49.35 50.11 51.03 51.47 51.12 50.42 51.60 53.62 56.86 58.32 58.55 59.62 60.41 61.51 62.55 63.72 64.21 64.14 67.13 69.32 69.91 70.42 71.24 71.98 73.02 72.62 72.33
42.95 45.04 42.73 42.31 41.23 42.22 39.06 43.29 41.57 40.71 40.24 36.84 43.21 35.04 42.31 45.06 46.00 46.62 48.44 49.37 50.48 50.65 50.97 52.93 54.71 55.13 56.71 57.63 58.63 59.76 60.77 61.89 62.21 63.73 63.79 64.18 62.14 65.48 66.00 69.95 72.28 74.12 74.53 73.22
41.55 42.32 41.73 41.05 42.05 43.80 41.04 43.45 42.38 41.82 40.13 39.77 39.81 37.51 41.26 44.22 43.24 45.25 47.49 48.57 49.89 50.94 52.22 53.24 53.69 54.53 56.21 57.03 58.09 59.34 60.58 61.45 62.44 63.34 64.12 63.16 64.40 64.67 65.88 66.12 71.11 76.81 76.57 74.45
44.08 47.34 44.52 43.69 44.46 44.35 45.04 42.77 42.60 42.46 40.78 34.32 39.09 38.55 38.93 41.76 43.49 46.07 47.45 47.51 48.80 51.17 52.73 54.21 54.97 55.42 56.26 57.88 57.65 58.67 59.95 60.74 61.78 62.31 63.07 64.08 64.52 66.25 65.79 68.61 69.53 72.34 73.12 74.53
43.11 43.28 45.44 45.35 42.44 44.74 43.60 40.88 34.45 33.41 34.21 32.96 39.41 36.71 39.74 43.91 45.02 45.77 46.00 47.54 49.18 50.58 52.76 53.13 54.02 55.11 56.00 55.87 57.97 59.66 59.79 59.99 61.28 61.64 61.93 62.95 64.03 65.90 68.25 69.48 66.44 70.71 70.88 72.02
37.86 36.45 42.99 45.47 43.47 41.55 42.12 40.91 34.44 27.41 30.83 34.58 39.38 34.27 41.01 45.05 46.33 46.98 48.15 49.19 50.01 51.61 52.38 53.30 54.18 55.52 56.09 56.99 58.26 59.69 59.35 59.37 60.65 61.20 61.59 62.51 63.42 63.06 64.00 67.61 67.28 67.07 69.58 71.53
38.16 38.00 44.63 44.11 45.27 44.38 41.23 37.50 42.29 36.32 37.65 33.75 36.81 40.25 43.93 45.77 44.98 46.06 47.07 48.65 49.40 50.55 51.83 52.73 54.28 55.59 56.22 57.13 58.17 57.75 58.20 58.79 59.43 60.67 61.25 61.96 62.79 63.95 63.79 67.50 70.75 68.48 71.76 71.10
42.68 36.39 43.32 43.77 44.68 45.05 42.63 43.97 35.45 36.33 27.14 27.07 34.62 36.31 37.45 41.52 42.71 44.71 46.00 47.65 49.24 51.53 51.05 52.55 54.40 55.68 56.73 57.44 57.76 57.86 57.68 56.72 58.32 59.48 60.79 61.36 62.34 63.18 63.66 65.66 67.91 69.58 72.12 72.33
44.32 40.79 39.15 42.10 40.27 39.27 40.22 38.38 39.04 39.19 37.15 30.86 30.19 35.72 44.08 42.90 44.74 45.56 46.95 48.43 49.67 50.23 50.72 52.82 53.94 55.04 56.10 56.90 56.80 57.08 57.02 57.04 58.39 58.44 59.76 61.20 62.30 63.30 63.88 65.24 65.87 68.39 71.53 70.99
44.29 40.82 36.23 38.09 43.83 44.92 42.63 40.23 40.55 33.07 33.46 36.23 35.51 35.14 45.82 45.65 46.03 46.74 47.51 49.00 50.17 50.91 51.87 53.36 53.78 54.46 55.05 55.93 55.29 55.44 56.13 56.46 57.82 58.55 58.87 60.66 62.06 63.40 65.42 65.54 67.35 68.90 69.40 70.21
43.21 39.26 33.32 35.51 39.95 41.51 39.13 41.11 41.21 40.59 39.97 34.39 31.85 35.76 46.13 47.15 47.26 48.30 48.50 49.40 49.92 51.08 52.39 53.07 53.29 53.49 54.19 54.38 54.54 54.30 55.16 56.04 57.42 57.80 58.45 59.40 59.86 61.72 65.13 67.08 68.01 68.53 70.00 69.62
43.75 40.19 35.04 31.91 35.42 39.28 36.16 38.46 40.14 38.91 32.95 34.71 35.24 38.17 42.76 45.09 45.76 47.75 48.85 50.03 50.71 51.32 52.13 52.43 52.92 53.52 53.88 54.35 54.67 54.24 54.06 55.78 57.26 57.29 57.58 58.44 59.47 59.77 63.80 67.25 67.54 68.55 68.41 68.86
42.50 36.15 38.28 38.70 38.92 38.38 37.25 37.47 38.83 37.28 38.55 34.90 37.29 37.96 42.39 45.05 46.30 47.86 49.38 49.87 49.85 50.59 51.10 51.89 52.39 53.18 53.95 54.26 54.86 54.29 53.92 55.08 56.41 56.17 56.44 57.51 59.42 59.73 63.10 67.05 67.32 68.54 69.36 69.30
42.33 34.70 37.43 35.05 38.03 37.48 34.85 38.01 39.20 39.20 39.40 39.25 39.36 39.45 45.82 47.30 48.12 47.98 48.64 49.20 49.17 50.09 50.97 51.71 52.46 52.70 53.20 53.77 54.04 53.53 53.22 53.60 55.22 54.52 55.53 57.38 58.96 60.10 62.44 67.99 67.41 68.51 68.85 70.45
37.94 35.59 33.95 30.78 37.00 35.92 32.40 37.06 38.85 39.88 41.47 41.05 37.61 42.24 45.97 45.90 46.32 47.54 48.38 49.20 49.18 49.99 50.88 51.49 51.95 52.73 52.84 53.35 53.79 52.87 52.72 53.43 53.33 53.52 55.11 56.10 58.07 59.55 62.33 67.08 67.24 69.06 71.16 73.40
36.70 34.89 34.46 32.20 33.82 24.67 37.51 43.50 43.21 41.53 42.87 44.29 44.15 45.05 45.80 46.81 47.96 48.85 49.82 49.35 49.56 50.52 50.93 51.49 52.61 52.05 52.55 53.50 54.02 53.21 51.69 52.04 51.65 51.14 52.22 54.64 57.80 59.76 63.42 66.70 67.88 70.80 73.13 73.48
39.40 35.16 31.05 28.92 29.20 34.56 37.96 41.60 40.90 40.99 40.26 45.25 44.25 45.29 46.56 47.50 47.21 47.30 50.40 51.13 51.02 51.33 52.12 52.59 53.05 52.71 53.20 52.40 52.82 50.54 49.52 49.46 48.81 49.62 52.57 55.99 58.42 59.68 65.21 65.95 69.61 72.34 73.01 73.01
38.69 36.66 31.98 32.07 28.09 26.45 36.67 42.33 45.73 44.90 35.72 45.92 45.89 44.53 45.16 45.70 39.59 43.86 50.24 50.94 49.95 50.31 52.17 52.52 52.80 52.22 51.99 52.50 51.68 50.53 49.08 49.19 50.12 53.72 57.11 58.69 59.24 61.87 66.32 69.36 70.16 71.34 72.18 71.87
33.47 32.93 30.94 31.09 30.68 35.32 42.73 44.42 45.67 33.26 35.94 45.47 45.83 45.66 44.59 42.52 44.83 47.71 50.20 48.93 50.07 50.61 51.98 52.63 51.62 51.34 51.82 52.54 51.48 49.70 49.07 48.30 50.30 51.83 53.33 56.81 64.12 66.60 67.38 67.94 67.85 68.42 68.49 69.14
33.40 32.99 32.37 33.87 31.29 29.02 44.99 43.37 36.86 42.69 46.10 45.94 46.59 45.24 44.16 45.85 47.59 47.62 49.13 48.96 49.49 50.38 50.73 51.05 50.32 50.65 51.81 52.18 51.39 50.00 48.94 49.67 50.57 60.09 63.03 64.09 64.90 65.39 66.13 66.26 66.85 67.52 67.70 67.45
34.72 38.44 35.34 36.69 37.24 45.06 45.76 43.54 44.91 45.12 42.93 42.67 44.98 46.64 44.95 45.86 46.70 47.75 47.41 48.02 48.31 48.85 49.63 50.61 49.86 49.97 50.88 52.11 53.02 51.08 50.24 49.76 51.43 59.90 62.42 64.15 65.20 65.33 66.03 65.77 65.78 65.76 68.10 65.03
39.12 40.99 36.82 37.59 41.23 41.54 43.85 46.24 47.19 47.05 46.21 47.42 47.91 47.09 47.38 44.85 46.80 46.03 45.89 45.42 45.73 47.72 48.68 49.27 48.48 48.37 48.88 51.31 52.73 51.47 50.65 51.12 52.88 58.53 61.82 63.21 64.46 64.53 65.69 66.64 67.82 67.73 66.52 65.60
39.00 40.48 37.34 37.94 41.59 39.46 41.95 44.42 44.20 46.00 46.41 47.06 46.96 45.59 44.27 43.77 44.78 43.21 44.24 45.24 44.51 44.67 45.63 46.85 47.49 47.77 48.77 51.08 53.24 52.29 51.83 51.69 53.42 59.93 60.68 61.91 62.57 62.37 61.83 60.81 65.87 67.59 68.07 64.49
38.34 36.08 33.61 32.66 36.76 35.39 37.09 41.44 44.66 44.94 45.58 45.48 44.31 43.54 44.34 41.74 40.42 42.21 41.69 42.42 44.10 45.04 44.91 45.00 46.44 47.09 49.53 52.29 52.86 53.74 51.38 52.60 54.50 59.99 59.83 58.65 59.11 60.55 62.06 61.72 57.20 44.56 48.36 46.39

GFSCGP_sfc_wetblb_081.txt.gz
Wetbulb
50.09 45.84 43.93 46.18 47.66 46.79 44.97 43.64 43.30 45.65 47.72 46.37 45.56 45.93 47.79 50.21 50.58 50.87 51.68 52.50 53.21 54.08 56.31 56.20 57.88 58.07 59.88 61.77 63.90 65.18 65.18 66.44 67.57 65.62 67.73 68.85 70.93 72.58 72.69 73.00 74.61 74.55 73.07 73.44
46.06 43.03 46.81 47.57 46.88 45.24 44.20 42.48 42.56 45.45 47.31 46.46 45.47 45.01 47.82 49.29 49.60 50.58 50.96 51.78 52.52 53.64 55.07 55.96 57.11 58.06 60.15 60.41 61.66 64.08 64.33 65.02 65.48 63.75 67.84 67.32 68.30 68.90 70.03 72.95 75.35 74.61 73.99 72.63
43.99 45.86 46.76 45.86 44.64 43.16 43.42 42.32 42.70 42.75 45.68 46.45 44.85 43.10 45.80 48.87 50.21 50.87 51.57 52.35 52.88 53.58 53.80 55.36 55.83 57.60 58.85 59.45 59.38 60.15 62.63 63.34 64.64 67.08 65.87 65.97 66.32 68.34 67.94 70.47 72.88 74.21 74.33 74.68
45.72 47.72 44.61 43.98 42.97 44.34 40.97 45.56 44.48 42.91 41.77 37.98 45.60 37.21 44.35 47.36 47.79 49.11 50.34 51.36 51.95 53.30 53.95 54.45 55.56 57.26 58.36 57.87 58.71 59.69 61.33 63.52 63.89 65.03 64.93 63.87 63.46 61.96 66.29 70.02 70.56 71.13 74.01 74.84
43.73 44.96 43.90 42.52 43.42 45.60 42.59 45.68 44.60 43.61 41.86 41.33 41.44 39.11 42.62 46.90 45.65 47.74 49.55 51.06 52.29 53.63 54.12 54.29 55.80 56.44 57.69 58.30 59.39 60.00 60.82 63.48 64.74 64.62 65.75 64.04 63.74 63.21 65.39 66.40 70.02 71.39 69.84 75.04
46.25 49.18 47.05 45.56 46.38 46.08 46.46 44.07 43.91 43.97 42.17 35.83 40.66 40.38 40.61 43.58 45.75 47.51 49.60 49.98 50.13 52.12 53.46 55.20 56.91 57.63 57.26 58.60 59.39 59.83 60.73 62.36 64.13 64.20 64.87 65.43 64.61 64.40 64.44 66.23 67.59 69.09 68.51 68.88
45.34 45.47 47.63 47.79 44.26 46.28 45.16 42.28 35.65 33.96 33.60 33.84 43.05 39.51 41.91 45.69 46.79 47.49 48.89 49.48 49.87 51.79 52.71 54.54 55.64 55.76 56.51 56.96 58.45 59.42 60.90 60.94 63.16 63.86 64.10 63.95 65.82 66.08 66.64 66.01 65.64 66.73 69.02 68.10
40.28 38.46 45.09 47.85 45.42 42.81 42.99 42.17 36.00 28.59 31.21 34.90 40.43 36.71 41.88 47.07 48.60 49.17 48.69 49.78 51.09 51.71 52.59 54.45 55.09 55.66 56.12 57.28 57.77 58.91 59.93 60.44 60.94 61.59 62.41 64.41 65.02 62.75 63.92 66.10 64.98 65.79 66.54 68.68
40.35 40.18 47.03 47.18 47.40 46.44 42.83 39.66 43.79 37.97 38.62 33.63 38.14 41.82 45.63 47.62 47.05 47.41 48.26 49.75 50.97 52.37 53.46 53.50 54.17 55.24 56.46 57.47 58.57 58.95 59.68 59.75 59.76 60.40 61.75 62.83 64.36 64.95 64.56 67.05 67.57 66.71 67.51 67.61
44.38 38.66 45.24 46.03 47.48 46.81 44.23 45.68 37.26 38.16 29.64 28.54 35.08 36.40 37.45 42.68 44.97 47.06 47.06 48.56 50.33 51.60 52.40 53.75 53.70 54.43 56.55 57.76 58.83 59.52 59.16 59.02 59.44 59.71 60.37 61.05 62.57 64.44 65.36 65.97 66.66 66.62 67.42 70.00
45.76 42.93 41.58 44.97 42.43 41.63 41.88 40.42 41.25 40.59 37.56 30.94 29.68 33.81 44.88 43.45 46.48 46.36 48.07 49.78 50.73 51.40 52.36 53.00 53.60 54.63 55.99 56.81 57.16 58.39 58.59 58.09 58.27 58.86 59.41 61.19 61.06 62.23 64.66 65.81 66.66 67.27 68.23 68.78
46.08 42.43 37.56 40.05 45.44 46.22 44.70 41.80 40.30 33.94 34.10 36.79 35.92 36.29 46.78 46.42 47.98 48.16 48.54 50.14 51.60 52.72 53.05 53.61 53.91 54.74 55.40 55.95 56.72 57.43 58.29 57.10 57.34 58.02 58.62 60.26 60.24 61.17 64.12 64.91 66.69 67.87 68.08 68.57
45.26 40.41 35.11 37.72 42.16 44.30 41.54 42.58 42.70 41.67 41.19 35.59 33.94 36.10 47.44 47.89 48.59 49.61 49.44 50.37 51.49 52.37 53.10 53.42 53.99 54.65 54.89 55.55 56.17 56.62 57.04 57.18 57.49 57.18 57.07 60.17 60.97 60.94 62.82 63.98 65.53 68.41 68.61 68.76
45.37 41.31 38.06 33.31 37.08 37.44 35.02 39.56 41.33 40.58 35.79 36.30 37.13 38.67 43.59 45.66 46.63 48.33 49.90 51.08 51.61 52.23 52.65 53.29 53.87 54.35 54.95 55.77 56.08 56.46 56.77 57.43 57.51 56.63 56.51 58.52 59.92 60.93 62.27 63.24 64.16 66.57 68.87 68.17
44.40 36.08 37.50 38.68 39.91 40.57 40.26 39.65 39.33 38.23 39.81 35.39 38.79 38.40 41.49 45.42 46.41 47.80 50.19 50.86 50.69 51.23 51.99 52.76 53.22 53.80 55.06 55.67 56.12 56.31 57.00 57.25 57.60 55.80 55.41 55.28 57.91 60.02 61.30 62.22 62.73 65.41 67.66 69.08
43.30 36.67 38.06 36.00 38.78 39.24 37.48 39.77 39.50 39.96 39.94 39.86 40.20 39.48 46.14 47.59 47.62 47.51 48.91 49.31 50.41 50.68 51.36 52.11 53.22 54.31 54.34 55.16 55.58 55.94 56.09 56.51 56.68 55.01 54.17 55.57 56.18 56.35 59.62 62.24 62.89 63.78 66.98 69.16
40.02 38.32 36.27 32.03 37.80 37.60 33.99 38.78 39.77 41.06 42.46 41.53 37.17 41.23 46.25 44.96 46.95 48.02 49.35 50.41 50.05 50.48 51.11 52.24 52.68 53.72 54.87 55.24 56.58 56.00 55.96 56.29 55.69 54.56 53.73 53.47 54.39 54.91 56.05 60.07 61.57 63.28 66.30 69.24
39.33 37.68 37.08 33.01 35.69 26.92 39.45 44.71 43.01 42.08 43.09 44.28 44.02 44.94 46.71 47.82 48.96 50.40 50.20 50.46 50.02 50.99 50.63 53.12 53.69 54.32 54.73 56.31 57.50 57.10 56.14 55.59 54.79 53.34 52.25 52.70 52.78 53.33 54.29 56.94 60.37 63.35 65.68 68.62
42.93 38.97 33.63 29.91 30.79 35.64 38.45 41.36 39.66 39.38 39.09 45.29 44.20 45.68 45.67 46.99 48.00 48.49 50.68 50.97 51.40 52.38 52.30 53.43 53.86 53.61 55.05 56.09 56.40 55.55 54.31 54.09 53.90 52.48 51.79 51.96 52.01 51.29 52.72 55.53 58.98 63.70 66.45 68.70
40.11 38.44 34.63 33.09 28.53 26.77 37.04 41.29 45.56 46.24 36.67 46.62 44.75 45.43 46.08 47.23 41.64 44.96 50.30 51.40 51.39 52.50 52.68 52.15 53.32 53.83 54.70 56.14 55.87 54.30 53.26 52.34 51.34 51.34 50.90 50.75 50.40 50.57 53.63 56.81 59.88 64.60 67.24 68.47
36.24 34.10 32.92 33.06 31.38 36.18 43.16 45.56 46.98 34.17 38.28 46.48 46.74 46.43 46.38 44.29 46.15 47.78 49.65 50.33 51.33 52.03 52.51 52.94 52.57 53.78 55.42 55.72 54.30 51.45 51.47 50.86 51.72 51.65 51.07 49.78 50.85 52.26 56.02 58.97 62.18 65.22 67.85 69.74
35.95 34.09 33.63 35.11 32.52 30.02 45.43 45.08 38.39 43.53 46.89 46.30 47.45 47.31 46.13 46.83 47.44 48.39 48.96 49.16 50.32 50.95 50.74 51.13 51.29 52.89 54.58 54.22 52.51 50.29 49.73 50.89 52.14 51.86 50.58 49.63 50.90 54.85 59.58 62.39 64.81 67.32 68.75 69.69
35.49 38.31 37.28 38.04 38.43 46.26 47.52 45.88 46.87 47.61 45.31 45.62 45.56 47.60 47.83 46.52 46.63 46.57 46.67 48.23 48.76 49.21 50.59 50.01 49.79 50.39 52.01 53.00 50.59 48.53 49.57 50.58 51.38 50.71 52.47 54.86 54.51 57.11 57.26 61.75 66.05 67.02 67.14 67.23
41.07 43.34 38.95 39.42 43.55 43.10 45.29 46.02 47.03 47.66 46.37 47.28 47.64 47.08 47.93 45.11 45.54 45.32 45.98 46.51 47.06 48.09 48.15 47.82 47.90 48.32 49.45 51.22 51.20 50.82 50.30 52.35 51.60 52.28 60.02 57.29 55.39 53.93 58.59 66.23 66.28 65.31 65.58 66.27
40.70 42.26 37.62 39.17 42.38 42.32 42.28 42.55 43.88 44.47 45.66 45.75 47.18 46.94 45.49 46.02 44.49 44.25 44.36 44.86 45.65 46.22 46.28 47.08 45.72 47.14 47.93 49.75 50.54 52.31 53.77 52.07 51.84 55.76 60.04 63.09 64.81 64.69 64.03 62.37 64.14 66.56 69.59 68.10
40.82 36.66 34.96 32.63 38.03 36.73 36.90 39.12 41.28 41.43 43.03 44.63 44.50 42.28 43.65 43.59 42.19 42.23 42.85 43.99 44.38 44.07 45.18 45.37 45.91 47.00 47.44 49.53 50.82 53.80 54.94 53.26 53.90 57.26 58.59 59.93 61.25 60.52 60.39 59.53 55.50 43.91 46.44 46.94

GFSCGP_sfc_wetblb_084.txt.gz
Wetbulb
49.31 45.58 43.23 45.64 47.03 46.70 45.75 44.19 42.82 45.20 48.04 46.56 45.77 45.91 47.53 49.71 49.86 49.98 51.96 53.07 54.02 54.96 57.55 58.72 60.64 61.37 62.61 64.25 64.96 67.20 67.43 66.54 68.65 66.63 66.26 67.56 68.65 72.13 71.97 73.55 73.97 73.48 72.79 71.97
46.17 43.17 47.23 47.88 46.80 45.46 45.04 43.09 42.20 44.55 46.61 45.78 45.02 44.64 47.46 48.80 49.46 50.50 51.09 52.01 53.62 54.89 55.84 57.65 58.83 60.02 61.90 63.46 64.08 65.05 65.67 66.28 67.01 64.29 66.27 69.11 66.64 68.07 69.04 72.02 73.31 73.35 73.21 72.23
43.82 45.85 48.51 46.45 44.94 43.89 43.62 42.09 41.94 41.91 44.99 46.14 44.86 43.20 45.11 47.97 49.79 50.82 51.75 52.67 53.49 53.90 54.50 56.70 57.23 58.65 61.10 61.61 62.71 63.15 64.26 62.96 65.03 66.57 62.97 63.18 64.19 64.45 65.58 65.26 66.49 72.33 74.20 71.68
45.48 47.94 46.40 45.09 43.27 44.13 40.21 45.26 44.37 43.33 41.80 37.42 44.74 36.20 43.14 46.43 47.70 49.69 50.57 51.69 52.45 53.43 55.17 57.03 57.41 58.55 60.05 60.45 61.32 62.96 64.12 64.13 61.53 66.54 64.18 63.36 61.62 61.06 62.62 63.55 65.40 68.03 73.56 73.40
44.10 45.30 44.65 43.60 43.82 45.47 42.45 45.86 44.03 43.23 41.36 40.68 40.61 37.74 41.48 46.06 44.85 47.33 50.42 51.37 51.94 53.26 54.46 54.91 55.30 57.23 58.65 60.30 61.09 62.09 62.73 63.55 65.25 63.99 63.58 64.08 64.21 64.32 63.16 63.75 64.05 66.15 69.65 71.41
45.79 49.08 47.20 46.14 47.06 46.64 46.73 44.15 43.54 42.94 40.92 34.96 39.11 38.73 39.51 42.95 45.71 47.47 50.24 50.73 51.82 52.36 53.60 55.23 56.67 58.28 58.38 59.23 59.54 61.82 63.34 64.31 65.05 64.90 63.51 61.75 64.51 63.94 63.07 62.38 64.53 64.49 64.96 67.20
45.24 45.83 48.14 48.41 44.67 46.70 45.15 41.49 34.70 33.16 34.03 33.18 41.45 38.73 40.80 46.23 47.00 48.25 49.13 49.96 50.93 51.10 52.11 53.84 55.17 56.42 57.69 57.82 59.59 61.12 60.81 62.33 64.39 63.97 64.63 62.95 62.90 64.26 63.75 64.17 63.38 61.98 62.27 66.06
39.30 37.89 45.34 48.20 45.53 43.32 43.24 42.30 35.49 27.24 29.51 33.45 41.48 34.52 39.49 47.32 49.38 49.71 50.04 51.15 50.92 50.70 51.88 53.41 54.95 56.80 56.70 58.41 59.35 59.76 60.80 62.28 63.23 63.60 63.15 64.41 63.86 62.67 62.47 62.84 63.00 63.05 62.44 62.97
39.53 39.70 47.39 47.97 48.08 46.62 43.43 40.08 43.86 37.73 38.15 33.11 37.15 40.88 45.33 47.84 48.35 48.82 48.51 49.37 49.76 51.03 53.37 52.97 54.58 55.63 57.55 57.90 60.20 61.01 60.64 61.22 62.76 61.53 61.86 63.50 63.57 64.17 61.86 62.71 64.04 64.19 65.32 64.85
43.37 37.43 44.48 46.13 47.47 47.43 44.75 45.94 37.64 38.80 28.64 27.66 34.48 36.30 37.74 43.00 44.98 47.20 47.16 48.13 49.88 51.88 52.22 52.52 54.47 55.89 57.04 57.42 59.22 61.58 61.07 60.28 60.24 61.35 62.16 60.11 61.27 63.12 62.91 63.20 62.47 62.98 63.86 64.77
45.40 42.17 41.07 44.52 42.53 41.39 42.07 40.56 41.47 40.27 37.88 30.85 29.35 34.15 44.17 44.22 46.41 46.65 48.22 48.89 50.36 51.15 51.36 52.26 53.62 55.37 55.81 56.95 56.40 59.43 59.78 59.57 59.76 60.57 61.25 61.89 60.41 60.36 61.60 61.80 62.53 63.77 64.26 64.42
46.32 42.71 37.26 39.69 45.63 46.46 44.83 41.38 40.69 34.74 32.87 35.50 34.40 34.73 45.99 47.07 47.65 48.00 48.65 49.41 50.50 51.99 52.19 52.83 53.74 54.99 55.16 55.70 56.25 57.35 60.56 59.18 59.66 60.32 59.42 59.41 62.19 61.41 61.17 61.17 62.14 63.70 64.02 64.98
45.72 40.21 34.18 35.97 40.91 44.49 39.24 39.95 39.90 39.32 38.72 34.75 32.20 35.26 46.32 48.16 45.91 46.02 47.53 48.01 50.36 52.15 52.39 52.63 53.26 54.15 54.60 55.13 56.41 56.27 57.86 57.93 58.44 58.26 58.03 59.46 59.40 59.59 59.70 61.00 61.48 62.51 62.96 63.70
46.58 40.60 36.86 32.18 35.41 39.88 36.30 39.17 40.35 37.18 32.54 35.07 35.90 38.41 42.49 45.29 45.19 46.55 47.21 47.62 48.43 52.13 52.78 52.80 53.55 53.81 55.31 55.91 56.17 56.36 56.99 57.73 57.45 57.33 57.78 58.63 59.58 58.93 57.97 60.11 61.71 61.59 62.19 61.82
43.24 36.29 38.73 39.14 39.90 39.61 38.58 38.35 39.29 36.14 36.91 33.83 37.39 37.91 42.28 45.18 46.81 48.49 47.51 47.51 50.09 50.16 51.78 52.68 53.11 54.56 55.79 56.02 56.93 56.94 57.20 57.53 57.89 56.66 55.69 57.74 58.94 58.90 57.90 57.62 58.50 59.94 61.03 61.61
42.55 35.76 38.33 35.72 38.87 38.56 36.45 38.60 38.90 38.96 39.69 39.85 39.62 39.27 45.42 47.43 48.38 47.50 48.56 49.03 49.80 50.67 51.64 52.96 53.27 54.22 54.60 55.69 55.96 56.57 57.38 57.70 58.13 57.04 56.50 56.90 56.58 55.91 56.37 57.05 56.78 57.08 57.48 60.82
39.18 36.84 34.73 30.88 36.55 36.55 31.19 37.18 39.12 40.00 41.81 40.99 37.05 41.27 46.02 44.49 46.28 47.24 48.02 49.20 49.11 50.86 51.56 51.96 52.69 53.68 55.52 55.47 56.30 55.75 57.14 57.54 57.00 56.98 56.50 56.23 56.06 54.93 54.91 54.97 55.02 55.30 56.04 57.88
38.26 36.99 36.32 31.84 34.38 24.91 37.38 43.82 43.43 41.25 42.39 43.22 42.05 44.18 44.36 45.00 47.63 49.14 50.14 49.68 50.48 50.72 51.15 51.88 53.19 54.51 55.51 56.21 56.13 56.00 55.90 56.71 56.25 56.26 56.05 55.83 54.75 53.40 53.26 53.69 53.67 53.95 54.01 54.97
43.34 39.24 34.67 30.52 30.43 34.81 37.86 40.62 39.97 37.96 36.60 43.36 42.91 43.71 45.12 46.80 47.36 47.52 50.29 50.91 50.51 50.95 51.82 52.58 53.68 53.93 54.45 54.32 54.43 54.67 54.36 54.27 54.61 54.41 54.24 54.76 54.93 52.63 52.18 52.24 52.25 53.75 53.15 52.80
42.45 41.06 36.69 34.08 27.88 25.80 38.18 41.55 44.93 44.18 35.36 44.39 44.83 44.41 44.70 45.68 39.89 43.51 49.74 50.57 50.81 51.73 52.22 51.79 52.63 53.49 53.20 53.98 55.10 53.77 52.76 52.45 53.69 53.29 53.38 54.04 54.07 53.16 52.18 52.21 52.10 52.10 52.38 52.49
36.66 35.99 31.04 32.80 31.05 34.97 42.71 45.25 47.00 33.71 36.28 45.24 45.06 45.36 44.76 42.17 44.63 48.16 50.33 50.29 51.01 50.41 50.74 51.68 51.28 51.56 52.02 52.80 52.52 50.57 50.24 49.38 52.07 53.50 53.21 52.74 52.81 52.40 52.19 51.59 51.88 51.53 51.49 52.39
35.76 34.79 33.95 34.41 31.69 29.43 44.27 43.51 37.33 41.57 45.26 44.97 45.08 45.26 43.78 46.05 47.16 48.08 48.95 49.07 49.68 49.60 50.11 50.32 49.38 49.83 50.96 51.54 50.30 48.65 48.49 50.12 51.65 50.75 50.38 50.21 50.38 50.80 50.68 50.24 49.70 49.53 51.25 52.71
35.66 39.56 36.75 37.58 37.62 46.18 46.61 44.30 46.47 45.79 43.92 44.20 43.78 44.50 44.81 43.84 43.71 46.42 46.89 47.52 47.76 48.39 47.38 48.52 49.01 48.99 49.66 49.71 48.95 46.96 48.30 50.02 50.25 49.64 48.88 49.14 49.51 49.07 49.43 49.26 48.24 49.54 52.80 54.18
41.58 44.23 38.85 39.53 42.31 43.03 42.62 44.62 44.23 44.02 42.74 42.85 43.34 44.36 43.73 42.69 43.58 43.54 45.11 45.52 45.72 46.86 46.10 46.96 46.78 46.45 46.48 48.08 48.33 48.57 49.28 49.58 49.60 49.64 49.27 51.05 53.21 50.13 48.80 49.96 50.95 51.08 55.95 56.86
41.45 42.71 38.84 38.23 41.60 39.76 41.21 41.21 41.30 41.45 42.49 42.88 41.87 40.21 39.53 40.23 41.27 41.87 42.21 43.40 44.74 44.36 44.46 45.68 44.76 44.14 44.84 46.03 46.86 48.42 49.23 50.04 49.68 51.39 53.47 54.72 51.07 49.98 48.45 49.31 51.37 56.62 60.48 61.64
41.09 38.23 34.70 33.90 38.51 37.47 36.95 39.51 41.35 41.02 41.23 41.74 40.12 40.09 39.92 39.85 39.01 40.09 40.46 41.72 42.23 42.50 43.08 42.58 42.30 42.54 44.13 46.55 48.13 49.11 49.95 50.66 52.07 53.36 58.51 58.01 55.09 54.43 53.62 55.42 54.90 43.15 52.10 50.38

GFSCGP_sfc_wetblb_090.txt.gz
Wetbulb
42.10 36.70 33.92 37.80 38.86 40.44 38.80 37.09 36.41 39.73 43.41 40.11 38.36 38.97 41.56 43.34 43.58 43.44 44.01 44.40 45.40 46.94 50.56 51.11 53.94 55.77 57.24 57.62 57.89 58.39 60.18 61.68 65.83 66.45 65.58 65.63 66.19 66.73 67.29 68.67 69.87 69.43 68.34 71.65
38.07 34.38 41.08 43.08 43.10 41.42 39.96 37.03 35.96 39.35 42.55 40.40 39.20 38.91 41.88 42.55 43.09 43.80 44.78 44.88 44.95 45.28 47.46 51.32 53.55 55.62 56.80 57.24 57.79 59.03 58.70 60.24 61.16 60.42 60.09 60.73 61.58 65.46 66.32 68.13 69.22 70.07 69.50 68.94
35.94 39.71 44.69 43.32 41.53 40.52 39.33 36.42 36.10 36.80 40.45 40.01 38.14 35.55 38.59 42.12 43.86 45.13 45.13 45.31 45.95 46.13 45.82 49.72 52.75 53.27 54.36 55.60 56.47 57.66 58.40 58.42 59.08 59.63 57.94 57.56 58.17 59.05 61.75 63.54 65.10 68.20 70.45 69.71
37.99 42.09 42.28 41.03 39.88 40.25 34.59 41.22 40.82 39.67 35.96 29.82 37.59 29.59 35.10 39.10 40.81 42.92 44.43 43.96 44.28 45.55 47.50 47.93 52.45 51.13 53.45 53.91 54.77 54.83 55.07 55.42 56.46 59.46 57.98 56.35 55.34 54.86 55.82 57.79 60.86 62.93 63.88 64.64
38.64 40.02 39.77 39.12 40.31 42.32 38.93 42.79 40.12 39.52 34.60 31.42 33.41 30.04 32.43 37.89 38.64 41.18 43.16 44.37 45.59 47.01 47.32 46.95 51.73 53.42 54.86 53.85 53.80 54.36 54.06 53.92 54.75 56.86 57.59 57.36 56.89 57.49 58.35 59.08 58.81 58.82 60.35 63.70
41.06 44.07 42.28 41.55 43.73 43.32 44.01 39.84 37.48 34.86 31.44 26.40 31.31 31.07 33.30 35.54 38.43 40.50 44.60 45.59 46.66 47.69 48.38 47.30 52.21 54.74 53.75 53.18 52.13 52.28 53.51 53.35 53.89 54.66 55.14 55.32 55.64 55.72 56.91 56.82 57.40 59.23 61.04 61.30
40.08 40.61 43.53 44.45 39.67 42.22 39.66 32.44 28.68 25.43 25.35 27.06 34.14 31.31 34.37 38.70 42.19 44.01 44.49 45.25 45.67 45.59 48.00 50.22 52.23 52.68 52.54 51.32 51.01 52.13 52.44 51.99 53.48 54.75 54.75 55.34 54.93 54.66 55.95 56.38 56.88 57.14 58.01 59.58
33.11 33.11 41.47 45.62 41.97 37.64 36.80 36.20 29.47 23.33 22.60 28.49 34.73 28.21 35.20 42.15 44.47 45.75 46.73 45.92 45.28 46.54 47.67 48.52 51.62 52.13 52.16 51.78 50.60 52.70 51.62 51.58 54.01 54.70 54.54 56.22 55.43 55.66 56.30 56.81 57.83 58.61 58.64 59.72
32.83 34.75 43.91 44.94 44.88 42.97 37.31 34.00 39.79 33.91 33.92 26.18 30.05 34.50 39.96 43.36 43.90 44.85 45.07 45.28 44.42 47.89 48.32 48.84 49.54 50.64 52.06 50.24 50.15 52.50 52.84 52.67 53.39 55.48 55.39 55.29 56.93 56.53 56.00 56.06 56.62 56.98 57.69 60.30
37.13 31.44 41.59 43.61 45.04 44.53 40.71 42.27 32.47 30.81 26.59 25.21 29.70 30.77 31.88 38.33 40.28 42.89 42.69 41.90 42.73 44.20 47.07 47.21 48.99 50.48 50.63 49.62 50.63 51.93 53.38 53.22 53.42 55.11 56.21 56.67 57.08 56.16 55.64 55.34 55.27 56.08 57.16 57.73
38.59 34.39 36.26 40.91 38.37 36.74 37.13 35.38 36.92 35.42 30.89 27.97 25.58 26.89 39.11 38.62 40.71 41.16 41.53 43.26 41.99 43.15 45.26 47.08 47.34 48.60 46.57 47.45 49.45 51.70 51.96 52.86 53.23 54.12 55.93 55.56 55.14 55.65 55.91 56.36 56.69 56.72 57.07 57.74
40.79 36.20 31.42 35.47 41.64 43.82 40.58 35.75 34.51 27.36 27.35 32.88 30.22 30.11 42.12 42.58 43.48 43.20 43.33 45.64 45.29 47.48 45.96 47.25 46.80 48.58 47.92 46.71 46.55 48.31 52.14 52.74 53.53 53.49 54.92 54.26 54.07 52.77 52.97 52.48 54.15 56.01 56.67 57.55
40.38 33.46 27.86 30.75 35.38 38.31 35.68 37.67 36.07 34.17 33.32 25.81 21.38 27.27 42.64 42.60 43.45 44.45 44.42 45.51 45.29 46.05 46.16 46.40 48.48 47.42 47.58 48.22 46.99 47.15 47.99 52.49 53.66 53.96 53.99 54.06 54.10 53.21 53.18 53.61 53.47 53.38 55.53 56.91
42.98 36.37 32.55 28.86 32.50 35.37 33.79 36.22 37.24 34.85 29.24 28.15 29.42 31.98 37.84 40.45 41.83 42.49 44.17 45.09 45.17 44.70 46.51 47.02 48.07 49.01 48.24 49.44 51.13 50.53 51.83 49.88 53.18 53.98 53.96 53.42 53.59 53.90 54.31 53.76 52.14 53.68 55.77 55.60
38.36 31.73 35.29 35.54 37.22 36.85 35.35 35.15 35.75 32.71 33.62 28.37 31.56 31.96 36.59 40.16 41.14 43.32 44.47 44.55 44.82 45.11 45.88 47.17 46.89 46.56 47.67 48.78 50.50 51.14 51.57 50.76 49.30 51.09 52.96 53.29 53.47 53.38 53.43 52.83 52.98 54.07 53.61 54.19
35.78 29.16 34.15 31.29 35.33 35.17 32.49 34.02 33.91 33.79 34.03 33.69 34.09 34.14 39.61 42.49 43.56 43.53 44.38 45.26 45.60 47.10 47.33 47.55 48.15 48.13 48.21 48.82 50.09 51.01 51.17 50.74 51.33 50.23 49.79 50.51 49.89 51.60 52.23 52.54 52.32 51.82 51.65 52.03
31.98 30.43 27.20 24.26 31.43 31.44 25.76 31.64 33.72 35.53 37.15 36.12 32.12 36.72 41.98 41.46 41.45 41.51 42.84 43.44 44.31 45.51 46.46 46.67 46.47 46.31 46.45 47.59 48.82 48.26 49.41 50.68 50.41 50.25 51.16 51.90 51.86 51.78 51.86 52.23 51.78 50.97 50.82 51.43
31.43 29.15 27.51 23.59 26.65 19.58 30.82 39.98 39.97 37.92 39.15 39.83 38.51 38.87 40.33 40.77 42.11 43.53 44.90 41.30 42.38 43.63 44.50 44.90 44.78 44.45 45.14 46.40 46.66 47.13 48.25 49.46 50.25 50.24 50.93 51.59 51.52 51.84 52.41 51.88 51.78 51.96 52.20 51.62
34.82 30.23 28.93 25.41 20.26 28.88 34.00 38.99 37.87 36.57 36.92 39.62 38.55 39.57 40.17 41.17 40.95 40.93 43.97 42.69 42.07 42.65 43.43 44.41 45.70 46.40 46.39 45.87 46.54 46.38 46.85 47.35 48.19 49.01 49.64 51.06 51.63 51.30 51.68 51.26 50.85 51.18 50.85 50.66
37.70 34.24 28.09 21.66 21.84 18.14 34.91 40.53 42.32 40.75 30.87 39.09 38.10 37.07 36.36 36.47 30.17 34.03 40.34 41.58 41.89 42.74 43.36 43.83 45.28 46.32 46.42 46.98 46.03 44.24 44.38 45.36 46.72 48.91 49.94 50.70 51.39 51.64 51.12 51.31 50.97 51.48 51.05 50.23
30.01 27.52 22.45 24.80 23.85 29.26 38.98 40.49 43.06 30.67 30.26 36.91 36.44 36.01 35.53 33.82 35.98 38.71 41.06 41.40 41.70 41.62 41.52 42.00 42.40 42.77 44.92 44.25 45.39 44.06 44.36 44.06 45.77 47.00 48.04 48.73 49.91 50.17 50.39 50.13 50.41 51.58 51.30 50.05
28.20 31.01 26.49 30.34 28.94 24.86 40.21 38.83 32.00 36.20 36.43 36.35 36.72 37.39 37.04 37.91 39.62 39.92 40.03 39.24 40.44 38.99 39.64 41.03 41.07 41.77 43.03 44.30 43.87 43.06 43.18 45.38 46.25 46.79 47.52 47.91 48.49 49.11 49.38 48.78 49.13 49.40 50.33 50.81
29.69 35.01 30.74 33.10 28.53 37.18 38.57 37.38 37.98 37.64 35.74 36.12 37.24 39.17 39.21 38.64 39.42 38.61 37.83 39.15 38.02 38.97 40.41 40.87 39.48 39.64 41.68 42.71 42.90 41.68 43.37 45.03 46.12 46.81 46.97 47.38 47.79 47.84 47.95 47.32 47.01 47.64 48.88 49.47
35.67 38.57 34.19 32.65 36.23 35.29 37.31 39.82 40.37 39.76 38.15 38.82 40.47 40.67 39.57 38.13 39.39 37.90 37.52 38.43 37.38 37.45 37.34 39.19 39.62 39.78 39.97 41.70 42.46 42.68 43.83 44.86 45.07 44.62 44.88 45.99 46.19 46.39 47.68 48.49 49.17 48.61 48.73 48.94
35.56 36.99 34.18 32.32 34.55 36.44 38.88 39.00 39.54 39.62 39.78 39.99 41.55 39.83 39.59 39.52 36.31 36.44 36.85 36.89 37.41 37.50 38.61 39.56 38.98 39.31 40.06 41.59 42.23 43.30 44.18 44.94 44.70 45.26 45.73 45.94 46.87 46.91 47.19 47.50 48.53 48.43 48.84 49.46
36.44 32.28 26.23 26.70 34.38 36.48 36.51 39.64 40.93 38.59 38.94 39.62 40.17 39.77 39.96 37.75 36.28 37.12 36.19 36.13 36.92 37.09 38.17 38.73 39.54 40.07 40.87 42.22 43.14 44.37 45.61 46.29 45.95 45.60 46.18 47.37 47.96 48.92 49.31 48.90 48.55 45.47 45.75 44.91

GFSCGP_sfc_wetblb_093.txt.gz
Wetbulb
40.31 35.32 32.59 36.15 37.21 38.44 36.95 34.93 34.44 38.14 41.46 38.90 37.87 37.90 39.82 41.88 41.59 41.66 42.77 42.88 43.67 44.76 47.32 49.76 50.59 50.97 53.53 56.11 56.54 60.24 63.11 63.50 65.49 65.74 65.15 64.83 65.90 65.67 66.26 67.13 68.05 68.16 68.80 70.50
36.40 33.09 39.07 40.66 40.43 38.65 37.29 35.27 35.00 38.42 40.90 38.37 37.98 37.30 39.66 40.74 41.02 41.83 42.98 43.43 43.69 43.57 45.03 47.94 49.66 52.65 54.59 55.93 56.41 57.11 60.98 63.15 64.33 63.44 61.09 60.83 61.24 64.60 65.43 66.73 67.40 67.20 67.48 67.22
34.43 38.33 42.75 41.07 39.16 37.89 36.99 34.88 35.35 36.08 39.01 38.89 36.39 34.40 37.38 40.51 41.44 43.20 43.67 44.20 44.38 44.31 44.65 45.02 48.07 51.46 53.52 54.65 55.46 56.45 58.35 60.92 61.25 60.13 57.50 56.86 57.92 58.32 60.67 62.49 65.10 67.74 67.87 66.00
36.64 41.32 40.26 38.78 37.99 38.64 33.36 39.45 39.30 38.03 34.42 29.57 36.58 29.82 33.75 37.91 39.05 40.98 42.32 42.23 43.00 43.80 44.85 44.90 46.40 49.26 52.87 55.10 55.29 56.58 57.39 57.64 58.62 58.32 56.80 56.36 56.38 56.48 55.60 56.33 57.56 61.28 67.52 68.10
37.57 38.32 38.06 37.26 38.84 40.37 37.13 41.04 38.57 38.02 33.32 29.09 31.86 27.14 31.76 36.82 36.57 39.68 40.58 41.94 43.04 43.72 44.21 45.45 46.02 48.75 52.53 54.43 55.35 56.27 55.48 54.54 56.24 57.29 56.66 55.69 54.83 55.19 55.97 57.11 57.47 56.82 58.20 60.78
40.18 42.20 41.04 40.57 42.64 41.66 42.21 38.34 35.90 32.32 29.72 25.04 31.60 30.22 31.76 33.50 37.25 38.60 41.17 43.16 44.89 45.34 45.27 46.97 49.28 48.57 51.64 54.09 52.76 52.27 52.06 51.95 52.96 55.43 55.69 55.59 55.09 55.14 55.23 55.46 55.92 56.08 57.35 59.19
39.35 39.70 41.56 42.99 38.18 40.58 37.86 30.73 24.02 23.21 23.41 26.72 33.52 29.98 32.80 37.05 40.28 41.13 41.17 43.15 44.19 44.10 45.50 47.73 46.93 48.75 51.95 51.95 51.67 51.83 51.53 51.01 51.82 52.22 53.43 53.89 53.84 53.58 54.21 54.54 54.85 54.66 55.45 56.38
31.18 31.81 40.15 44.13 39.54 36.47 36.17 34.23 27.36 21.58 21.50 27.49 33.82 27.57 32.50 40.01 42.29 42.91 44.01 43.98 44.64 44.08 44.85 47.16 48.36 49.45 50.25 49.16 49.29 51.41 50.81 50.55 51.59 52.43 52.22 52.73 52.90 52.94 53.21 53.82 54.95 55.87 56.49 57.24
31.34 33.21 42.96 43.97 44.23 41.89 37.32 33.56 36.92 31.15 29.71 26.32 28.74 33.07 38.83 41.25 41.37 42.84 43.30 43.90 43.14 43.92 44.26 46.76 47.62 48.37 49.74 50.51 51.31 51.83 51.83 50.69 52.26 53.29 52.81 52.94 53.47 53.21 53.98 54.63 54.84 55.65 55.87 57.45
36.42 30.15 39.60 42.21 44.10 43.96 40.43 41.42 30.48 30.11 26.06 23.47 27.31 29.41 30.00 35.35 37.85 40.88 41.54 41.53 43.01 43.87 43.77 44.76 45.97 48.25 49.81 48.96 48.18 48.64 51.04 51.70 52.14 53.26 53.69 53.81 54.74 55.40 55.38 54.62 54.54 54.56 55.03 56.12
38.11 33.24 34.40 39.23 37.86 36.90 37.33 35.48 36.82 35.50 32.65 27.67 25.75 27.08 34.98 36.90 38.08 39.23 40.76 42.75 43.67 44.05 44.40 44.44 45.63 46.77 48.28 48.06 49.11 48.82 49.49 50.70 50.47 51.74 53.00 53.34 54.29 55.67 55.40 54.30 54.35 54.33 54.48 55.46
41.36 36.60 31.11 34.87 40.66 43.07 40.86 37.07 37.04 31.33 29.71 32.62 30.86 27.14 39.89 38.66 40.66 42.01 42.39 45.03 46.20 46.78 46.24 46.36 45.48 47.43 48.45 48.26 48.26 47.10 50.28 50.83 51.80 52.40 52.70 53.77 54.63 55.41 54.97 55.00 54.70 54.71 54.77 55.29
39.43 33.96 28.42 30.41 35.01 39.20 36.75 38.19 37.15 35.55 33.36 26.55 25.05 26.58 40.11 39.73 40.85 40.79 40.52 42.75 45.08 47.07 47.65 48.33 45.99 45.47 47.24 46.93 47.48 47.25 46.38 48.93 50.43 50.88 50.47 52.38 53.91 53.54 53.11 54.46 54.99 54.35 55.43 54.96
41.98 35.72 33.54 29.03 32.16 36.01 33.95 36.19 37.41 35.49 29.95 28.56 29.16 30.71 34.89 37.16 38.43 40.01 41.91 44.63 45.86 46.75 47.15 47.35 44.27 45.12 45.61 46.36 46.78 47.39 47.52 46.98 48.39 50.80 51.26 51.37 52.84 53.62 53.84 53.58 53.31 52.95 54.32 54.45
38.36 31.33 33.05 34.65 35.49 35.67 35.32 34.71 34.68 32.16 32.23 27.53 30.50 30.35 33.25 37.95 38.76 40.97 42.58 44.89 45.67 46.07 47.11 47.00 45.96 45.10 45.53 46.12 47.19 48.52 49.21 50.08 48.61 47.54 49.94 51.20 52.51 53.53 54.21 53.59 53.58 53.17 52.88 54.10
36.20 28.74 33.55 30.68 34.19 33.56 31.44 34.03 33.81 33.22 32.59 30.88 31.91 31.61 38.47 41.32 41.93 41.37 42.17 42.43 43.03 43.59 44.65 45.56 46.50 46.43 45.93 46.28 47.69 48.22 48.39 48.85 49.31 49.33 48.66 50.11 50.72 51.00 51.20 51.82 51.99 52.33 51.99 53.15
32.03 29.74 28.22 25.45 31.01 30.81 25.72 30.50 32.68 32.88 36.15 34.85 29.86 34.90 41.15 40.07 39.09 39.50 40.50 42.02 41.46 42.40 42.97 43.24 43.71 44.39 44.85 45.43 46.37 46.45 47.42 48.01 48.08 48.38 49.51 50.02 50.13 49.95 49.87 51.06 50.95 51.06 50.64 51.24
30.98 29.34 28.26 24.97 27.31 20.33 30.05 39.75 39.39 37.47 38.69 40.05 39.06 37.74 37.69 38.45 39.94 38.92 40.71 40.69 39.60 40.26 40.50 41.32 42.07 42.74 43.77 44.72 45.53 46.72 46.80 47.28 47.66 47.69 48.70 49.70 49.64 49.76 50.46 50.12 50.39 50.47 50.71 50.11
35.27 30.64 26.51 23.69 22.28 28.09 32.17 38.78 36.89 34.89 34.92 38.85 37.09 36.64 36.83 37.90 36.64 35.94 39.96 39.60 39.17 39.88 40.88 41.62 42.40 42.40 43.26 42.90 44.44 45.76 45.95 46.35 46.56 47.15 47.83 48.95 49.82 49.32 49.42 49.58 50.20 50.57 50.51 50.63
36.12 34.30 28.94 22.82 22.96 18.51 30.15 39.23 41.97 40.79 31.04 38.23 36.39 33.73 34.07 35.01 29.04 32.79 38.11 39.70 40.05 41.60 42.62 40.13 41.07 41.79 40.97 40.90 42.33 42.70 43.82 45.10 44.69 46.01 47.13 48.26 48.73 48.82 48.80 48.81 49.17 50.46 51.06 51.31
31.30 27.34 26.39 28.54 26.39 27.90 38.46 39.57 41.28 29.35 27.98 35.51 34.69 34.57 34.07 33.38 35.11 38.00 40.56 40.29 41.78 41.78 40.78 40.72 40.87 39.32 39.78 41.55 41.95 41.48 42.47 43.26 45.05 45.81 46.19 46.40 46.85 46.94 47.50 47.72 48.48 49.26 50.05 50.76
27.39 29.79 28.14 30.08 27.85 24.64 40.20 37.21 31.01 32.81 35.38 36.22 35.87 35.69 35.25 36.87 38.62 39.56 39.49 38.88 40.86 40.19 39.95 40.54 39.83 39.34 40.87 41.42 40.44 39.31 39.28 41.92 43.63 44.64 44.87 45.23 45.88 46.54 47.23 46.64 47.13 48.50 49.55 49.77
27.77 33.15 27.33 31.50 28.45 35.58 36.96 35.99 37.30 37.10 37.29 37.04 37.26 37.24 38.14 37.98 38.44 37.96 37.90 39.40 37.92 36.79 38.72 40.55 39.12 38.57 39.21 40.57 41.00 40.05 41.24 42.74 42.93 42.73 42.99 43.61 44.76 45.31 45.61 45.58 46.33 46.96 47.72 47.61
33.92 36.97 32.69 34.54 34.31 35.57 36.32 38.12 38.43 39.14 39.50 40.00 39.33 39.23 39.72 38.38 38.75 38.92 36.46 36.50 37.02 37.60 37.43 38.37 38.27 38.00 38.69 40.78 41.53 41.74 42.43 43.25 43.13 42.49 42.87 43.90 44.29 45.18 46.10 46.82 47.14 46.37 46.58 46.73
32.73 35.27 31.63 31.99 32.80 35.27 37.32 37.95 38.91 40.24 39.56 39.25 39.72 40.12 39.66 39.96 39.20 38.01 36.16 35.60 36.97 36.81 37.34 38.19 37.61 37.81 38.55 40.35 41.12 42.31 42.99 43.85 42.98 43.35 43.68 43.92 44.90 45.26 45.53 46.40 46.85 47.17 48.08 47.10
38.04 34.02 25.40 25.93 32.59 34.11 35.46 38.10 39.81 38.62 38.28 39.21 39.21 39.45 40.90 39.51 39.30 37.18 35.96 36.06 35.92 36.08 36.98 37.09 37.54 37.88 38.77 40.20 41.24 42.69 44.27 44.94 44.83 44.40 44.86 45.13 45.81 46.35 46.98 46.65 46.37 44.63 45.12 44.17

GFSCGP_sfc_wetblb_096.txt.gz
Wetbulb
38.55 34.57 31.72 34.76 35.65 36.57 35.13 33.03 32.82 36.12 40.36 37.05 36.41 36.56 39.09 41.14 40.22 40.55 41.46 42.23 43.24 43.92 46.17 47.22 48.46 50.33 50.61 51.75 55.90 61.92 63.94 65.19 66.78 66.61 66.54 66.56 67.34 67.79 67.58 68.87 69.20 69.55 69.56 69.82
35.54 32.21 37.49 38.83 38.27 36.82 35.44 33.07 32.70 36.72 39.45 36.72 36.15 35.74 38.62 39.35 40.03 41.17 41.78 42.46 43.16 43.25 44.54 46.25 46.83 48.39 51.15 53.08 54.20 57.57 62.49 63.48 66.40 67.72 64.68 65.76 65.12 65.57 66.73 67.22 67.87 68.58 69.42 70.36
33.67 37.18 40.68 39.19 37.35 35.97 34.52 32.74 33.49 34.50 37.76 36.72 34.98 32.62 35.69 39.79 40.05 41.86 42.38 42.72 43.12 43.40 44.00 44.98 45.63 46.82 49.23 51.66 54.00 55.75 60.57 63.64 64.88 64.58 60.26 58.75 60.28 61.76 64.16 65.66 66.57 67.76 68.09 68.06
35.55 39.49 38.88 36.72 36.04 36.31 31.87 37.94 38.36 36.70 32.77 28.79 34.88 28.73 33.66 36.33 38.41 39.81 41.06 40.90 41.69 43.11 43.66 43.54 44.46 45.03 47.10 50.55 52.82 55.28 56.36 61.90 64.46 62.46 61.31 59.11 59.73 58.75 60.98 62.52 62.90 66.46 67.98 67.29
36.23 36.39 35.51 35.56 37.47 38.81 35.70 39.04 37.19 36.49 32.32 27.86 30.60 26.93 30.10 34.46 35.50 38.12 40.14 41.28 41.97 42.81 43.04 43.51 44.95 45.79 46.73 49.70 51.98 54.99 56.28 58.74 60.92 61.39 62.53 58.57 57.10 57.59 56.88 57.97 58.95 59.25 62.66 66.29
38.57 40.49 39.62 38.73 41.04 40.48 40.83 36.92 33.89 30.34 28.30 23.24 30.13 29.08 29.82 32.62 36.29 38.34 40.94 41.45 42.54 43.18 44.05 45.35 46.52 48.12 49.23 47.98 51.07 54.06 55.68 56.92 57.88 58.72 57.87 58.18 57.72 56.86 56.50 56.33 56.84 57.33 58.38 59.32
37.61 38.89 40.39 41.57 37.56 40.76 37.02 30.32 23.64 22.69 23.12 26.45 32.38 28.26 31.16 36.54 39.61 39.77 39.85 41.44 43.43 44.38 43.09 44.14 46.62 48.69 47.90 47.85 51.25 53.06 54.72 54.14 55.63 56.69 56.81 56.89 57.22 56.60 56.32 55.64 55.75 55.62 56.20 57.66
30.29 31.13 39.22 42.51 39.37 35.71 34.62 32.48 25.30 20.78 20.46 26.37 31.98 26.52 32.02 38.61 41.20 42.41 44.08 43.51 43.92 43.52 44.19 43.04 47.11 49.23 49.53 50.68 51.06 51.98 51.94 51.60 51.90 53.55 54.34 54.86 54.98 54.74 54.04 54.34 54.95 55.19 55.70 56.86
30.29 31.82 41.58 43.26 43.59 41.25 37.33 32.99 36.93 30.30 27.55 24.11 28.39 31.46 37.76 39.91 40.85 41.96 42.42 43.41 42.50 43.35 43.81 43.16 45.16 47.89 49.05 48.75 49.25 50.83 51.09 51.37 52.71 53.11 52.91 53.01 52.70 52.49 52.71 53.67 54.52 55.33 56.52 57.85
36.18 29.97 38.46 41.51 42.67 42.95 39.84 40.99 31.48 31.77 25.19 22.07 25.72 27.92 29.90 35.51 37.47 39.96 40.32 40.65 41.34 43.28 44.14 44.64 44.83 45.69 48.28 48.70 48.88 49.52 51.54 50.73 52.69 53.91 53.94 53.72 53.65 53.32 53.54 53.85 54.65 55.58 56.30 56.72
38.71 34.31 34.82 39.72 36.80 36.10 36.67 35.25 35.75 34.97 32.91 26.49 25.41 26.55 35.50 35.42 37.06 38.88 39.15 40.42 40.13 41.77 43.52 44.59 45.31 46.13 46.59 47.42 48.73 49.48 50.48 51.97 51.93 51.53 53.43 52.77 53.75 54.27 54.51 54.71 55.38 55.81 56.21 56.20
39.18 36.32 32.21 33.51 41.00 43.34 41.15 37.62 36.79 31.27 29.91 33.75 31.62 27.59 38.19 38.09 40.38 39.58 39.86 41.51 41.89 42.99 44.02 45.72 46.14 46.39 46.76 47.28 47.90 47.40 51.36 52.15 52.77 52.38 52.21 52.70 54.15 54.55 54.80 55.40 55.54 55.78 55.66 55.84
38.47 33.75 27.81 29.93 33.84 39.43 36.77 37.91 37.71 36.70 33.99 28.58 24.97 27.11 38.51 39.34 39.08 39.66 38.06 40.92 42.59 44.35 45.56 46.00 46.70 46.56 46.25 46.86 47.28 48.33 48.11 49.36 51.70 52.48 52.20 51.89 52.33 53.57 54.17 55.29 56.06 55.34 55.78 55.70
41.22 35.65 31.24 27.12 32.30 35.48 33.19 35.79 37.16 35.70 30.01 28.98 29.76 31.33 35.50 35.72 38.16 39.67 40.87 42.07 42.51 43.88 46.00 46.11 45.60 46.70 46.24 46.76 47.39 47.58 47.26 47.87 48.86 50.04 51.28 51.38 51.75 52.92 54.06 55.06 55.89 55.94 56.14 55.97
38.22 32.36 34.26 35.09 34.47 35.42 33.55 32.57 34.02 32.40 33.53 27.82 30.78 30.23 34.11 37.63 38.62 40.27 41.55 42.27 42.04 42.90 44.69 45.84 45.07 45.24 45.83 45.82 46.40 46.78 47.92 49.36 50.45 49.41 48.63 49.03 50.64 51.75 53.10 53.93 54.66 55.43 55.49 55.71
37.78 30.21 32.94 29.61 33.30 32.87 30.78 33.48 33.64 33.53 33.05 32.10 32.25 30.85 38.62 39.74 40.17 39.16 39.73 40.05 39.17 40.31 43.51 43.69 44.15 44.01 43.75 44.18 44.73 45.44 45.62 46.50 48.21 48.36 48.55 50.20 50.51 51.57 51.63 52.50 53.21 53.46 53.65 53.94
30.67 30.89 27.51 24.72 31.20 29.92 26.03 30.85 32.11 33.01 35.00 34.12 30.06 34.09 36.64 35.37 35.97 36.97 37.83 37.86 37.91 39.28 40.72 40.21 40.61 41.71 42.85 42.85 43.77 43.46 44.87 46.21 46.97 47.13 48.16 49.22 50.11 50.65 50.80 52.12 52.62 52.86 52.76 53.04
29.14 27.76 27.22 24.58 27.40 20.21 30.48 39.40 38.27 36.23 37.65 39.02 38.14 37.21 37.74 36.93 36.27 37.24 38.21 37.63 37.44 38.42 38.83 39.41 40.26 41.05 42.05 41.96 42.50 43.31 44.08 43.07 44.17 46.13 47.14 48.13 48.97 49.37 50.41 50.83 50.93 51.37 52.21 52.07
34.21 28.99 23.67 23.73 22.44 28.05 31.30 37.51 36.12 34.13 33.86 38.51 37.63 36.38 36.09 36.08 35.30 35.16 39.08 39.48 38.32 39.29 40.07 40.52 41.68 42.00 40.84 41.68 42.34 42.48 41.90 41.74 42.17 43.43 44.93 46.47 47.73 48.22 49.22 49.07 49.78 50.89 50.62 50.97
34.46 33.68 28.42 25.50 19.83 20.07 29.61 38.69 40.17 38.72 29.36 37.59 36.46 33.20 32.53 33.65 27.98 31.43 37.20 38.97 39.72 41.73 41.90 41.02 41.31 42.82 42.14 42.08 41.87 40.85 40.26 40.40 40.91 42.40 43.93 46.05 47.50 47.97 48.35 49.12 49.20 49.78 51.00 51.02
31.64 29.16 25.94 25.13 22.24 28.79 37.13 39.48 40.42 28.27 26.97 35.17 34.89 34.46 34.19 32.37 33.40 36.88 39.49 39.88 41.42 41.20 40.10 41.23 42.49 41.34 41.29 41.03 41.27 40.26 40.30 40.09 42.20 43.62 44.47 44.74 45.89 46.25 47.35 47.99 48.88 49.42 49.53 50.60
30.80 30.62 27.80 30.33 24.20 21.36 39.03 37.28 32.13 32.65 34.37 35.86 37.64 37.39 35.95 36.69 37.24 38.49 39.28 39.59 40.40 39.83 40.54 40.37 39.34 38.79 39.99 41.77 40.92 39.56 39.09 40.92 41.97 42.20 41.89 42.23 43.14 44.19 45.19 45.20 46.22 47.12 47.34 47.39
28.25 31.84 27.69 28.60 26.52 34.33 36.13 35.55 36.99 36.15 36.38 37.91 38.48 38.31 37.32 37.03 37.56 39.23 39.21 39.99 39.34 40.37 38.83 38.39 38.17 38.81 39.37 40.13 40.51 39.21 40.31 41.95 42.55 42.74 42.58 43.05 43.70 43.85 44.30 44.32 44.86 45.31 46.08 45.81
32.74 35.48 30.60 31.37 33.39 34.50 35.51 36.87 37.68 37.76 37.75 39.70 39.86 39.04 39.01 37.84 39.11 39.13 39.24 38.71 39.56 38.19 37.27 37.84 38.24 37.35 37.39 39.44 39.83 40.27 41.23 42.39 42.30 41.56 41.96 42.79 42.82 43.19 43.87 43.97 44.41 44.00 44.18 44.43
31.52 33.76 30.50 31.21 31.71 34.73 35.86 36.72 37.61 38.80 40.10 39.79 39.74 39.73 39.25 39.37 38.79 39.74 37.39 38.44 38.48 37.13 37.85 37.46 36.57 36.77 37.36 38.89 39.42 40.61 41.27 42.02 41.24 41.97 42.60 42.96 43.71 43.84 43.89 44.41 44.90 45.72 46.96 46.06
34.75 35.25 29.56 25.86 34.32 35.44 33.61 36.20 38.35 37.88 39.17 39.55 38.86 38.98 40.26 39.98 39.38 38.61 37.59 36.99 37.59 36.11 37.12 36.95 36.84 37.06 37.55 38.64 39.45 40.55 41.87 42.30 42.03 42.18 43.12 44.12 44.55 44.81 44.75 44.61 45.08 43.26 43.70 43.68

GFSCGP_sfc_wetblb_099.txt.gz
Wetbulb
44.42 42.95 40.21 41.99 42.83 42.19 40.61 39.49 39.18 41.99 44.96 42.46 43.57 43.86 46.00 48.79 48.63 48.62 49.47 50.78 51.64 52.68 54.80 55.51 56.13 56.83 57.93 60.54 60.85 64.26 67.90 71.34 71.45 70.52 69.84 70.33 69.80 70.63 70.87 71.89 72.82 72.55 72.42 72.06
42.61 40.09 44.31 43.98 42.48 40.98 40.58 39.39 39.60 42.44 44.24 42.95 43.86 43.19 45.93 47.33 47.82 48.96 49.33 50.49 51.53 52.82 53.63 54.95 56.79 57.44 57.65 59.71 62.00 62.19 64.77 69.71 70.85 71.07 71.33 71.73 71.48 71.63 71.57 71.59 72.02 72.30 72.22 72.75
41.00 42.59 43.31 42.17 41.60 40.04 40.72 39.49 39.66 39.85 43.56 43.52 42.34 41.33 43.95 46.55 47.00 48.56 49.69 50.94 51.71 51.47 52.56 54.35 55.42 56.59 57.24 58.06 60.62 62.21 64.11 67.45 70.38 71.60 71.66 69.82 71.21 70.77 70.52 70.94 71.29 71.87 72.10 72.66
41.89 45.09 42.16 41.65 40.47 41.74 38.35 42.99 41.87 41.07 39.81 36.49 41.82 34.08 42.02 44.97 45.67 47.53 49.05 50.50 50.86 51.79 53.08 53.51 53.75 55.24 56.87 57.28 58.48 60.85 63.13 64.90 68.20 71.09 70.48 70.10 69.30 68.95 70.23 71.45 72.40 72.74 72.50 72.13
40.96 41.40 40.47 40.24 41.52 42.39 40.64 42.99 42.07 41.69 40.11 39.09 39.67 36.58 40.70 43.15 42.81 45.94 48.66 50.20 51.19 50.97 51.16 51.64 52.86 54.66 56.14 57.08 57.86 59.89 61.85 63.15 66.23 69.67 71.00 70.42 70.53 70.95 70.85 71.58 72.61 72.22 72.24 72.21
43.37 45.19 43.79 43.76 43.88 43.95 44.55 42.90 42.67 39.79 38.68 32.94 38.66 37.44 38.71 42.09 44.16 46.56 48.06 48.82 50.10 51.33 52.39 53.32 54.36 55.29 55.98 57.92 58.56 58.89 59.78 62.27 63.53 67.00 69.08 70.98 70.80 70.28 66.96 67.87 68.75 69.54 70.31 70.85
42.41 42.72 45.12 44.84 42.34 45.18 43.41 40.27 33.95 32.60 32.98 32.16 40.90 37.73 39.83 44.69 46.46 47.03 47.09 49.04 50.64 51.33 51.68 52.66 52.68 52.95 55.53 57.77 58.69 58.80 58.77 59.33 61.34 63.16 66.64 68.78 70.21 69.67 67.71 66.73 67.15 66.16 65.53 65.48
36.53 35.17 41.51 44.73 43.17 41.77 41.72 40.59 34.66 28.18 30.49 33.93 39.85 34.31 40.03 46.23 47.13 47.87 48.49 49.25 49.68 49.95 51.07 52.05 53.41 53.86 54.85 56.46 58.22 58.41 58.76 59.21 60.24 60.98 63.43 66.64 67.67 67.67 67.34 66.69 65.48 65.24 64.99 65.56
36.90 36.38 43.80 44.80 45.23 43.57 41.49 37.65 43.02 36.84 38.05 32.93 36.49 40.43 44.11 46.14 45.79 46.71 47.32 47.97 48.07 48.98 50.39 51.39 52.87 54.31 55.16 55.60 56.67 57.27 57.60 58.59 59.51 60.35 62.70 64.91 65.25 64.89 64.30 65.04 64.69 63.86 64.45 63.43
41.83 35.43 42.37 44.07 45.38 45.80 42.85 44.15 36.05 37.23 28.41 27.43 34.58 35.87 37.12 42.38 43.45 45.10 46.03 46.44 47.36 48.96 49.85 51.27 52.57 53.80 54.75 55.50 56.05 56.82 56.96 57.44 58.25 59.65 61.12 62.27 62.00 62.15 62.25 62.20 61.66 62.42 62.49 62.93
42.58 38.72 38.54 41.88 40.02 39.46 40.93 39.11 39.80 38.42 36.47 29.94 29.25 34.90 43.55 42.98 43.53 43.33 44.58 45.94 47.45 48.96 50.21 51.48 52.91 53.96 54.00 55.08 55.16 55.70 56.43 57.29 58.51 58.65 59.08 58.98 58.75 58.61 58.93 60.04 61.25 62.57 63.46 63.24
41.90 39.18 34.32 36.76 43.31 44.78 42.50 39.94 39.66 34.25 33.08 34.57 34.55 34.37 44.34 44.35 44.15 44.87 45.11 46.94 48.62 48.97 50.37 51.93 52.29 52.36 52.74 52.78 53.33 53.51 54.49 54.53 56.01 58.59 59.00 58.83 59.03 58.77 59.50 59.60 59.83 61.94 62.97 63.28
40.83 36.42 31.37 33.72 38.38 41.34 38.53 40.42 39.89 38.57 35.43 32.87 31.00 35.09 43.84 44.76 44.73 45.57 45.41 46.91 47.25 47.73 49.69 50.97 51.40 51.12 51.06 51.35 51.45 51.01 51.58 53.27 55.11 55.29 56.91 58.15 58.61 59.07 59.59 60.64 61.45 61.52 61.42 62.89
41.82 37.45 34.48 30.42 33.70 37.43 34.92 36.87 37.92 35.54 32.74 33.05 33.35 35.40 39.69 41.46 41.57 43.84 45.59 46.36 46.56 46.01 46.86 47.96 49.80 50.34 50.58 50.82 50.56 50.30 50.53 51.04 52.21 53.13 54.49 55.52 56.71 57.30 56.49 58.75 59.64 60.98 60.41 61.75
39.16 33.24 34.73 35.37 36.34 36.68 34.52 34.44 35.34 33.05 34.09 30.14 33.34 33.97 37.82 40.71 42.05 43.77 45.01 45.11 44.54 44.45 45.11 45.80 47.84 48.23 48.43 48.67 49.03 49.35 48.25 49.80 51.11 51.15 51.87 53.29 55.41 56.44 56.45 56.22 58.56 60.11 60.64 60.88
40.83 33.15 34.79 32.18 35.38 35.17 32.65 34.76 35.16 35.04 35.35 35.17 35.65 35.25 42.36 43.15 43.57 42.98 42.98 43.11 42.99 43.89 44.14 45.17 46.46 46.56 46.50 46.88 47.25 47.83 47.70 47.93 49.08 49.35 49.98 51.80 52.88 54.26 55.14 56.59 56.94 58.60 58.59 59.69
36.11 34.44 31.45 27.86 33.71 33.28 29.99 34.84 35.63 36.35 37.64 37.03 33.64 39.73 42.87 42.25 42.39 42.08 41.88 42.39 42.29 42.78 43.29 43.96 44.67 45.31 45.92 46.46 46.85 46.56 46.52 47.23 47.57 48.36 48.83 49.50 51.14 51.90 53.37 55.03 55.76 57.17 58.06 59.22
35.45 33.84 32.53 28.93 31.43 22.43 35.47 41.68 40.25 37.67 39.85 41.81 41.76 42.45 43.10 42.13 41.75 42.26 43.59 42.45 42.18 42.76 42.74 43.64 44.48 45.18 46.22 47.13 46.91 47.96 47.00 47.14 46.86 47.29 47.48 48.00 48.75 49.97 51.61 52.54 54.04 55.97 57.45 58.31
37.77 34.09 29.96 27.37 28.07 32.57 34.92 38.96 38.07 36.28 36.41 41.64 40.90 41.73 41.22 41.76 41.38 41.93 45.28 44.56 42.70 43.10 43.79 44.29 45.54 46.00 46.52 46.10 46.27 46.48 46.65 46.75 46.13 45.66 46.08 46.83 47.64 48.49 49.76 50.45 52.94 54.60 55.32 56.30
37.48 37.28 32.46 29.73 25.32 24.47 34.62 40.74 41.97 41.15 32.39 39.98 39.92 40.05 39.61 39.56 32.41 37.96 43.76 43.52 43.01 43.85 43.60 43.36 44.52 44.71 44.94 45.33 46.52 44.85 44.87 45.12 44.66 45.06 45.81 46.64 47.58 47.74 48.05 49.73 51.29 53.38 54.24 54.67
31.44 32.40 29.06 28.56 28.82 32.69 39.34 41.12 41.77 30.77 33.65 40.83 40.84 40.27 38.73 36.27 38.60 40.87 42.80 42.29 43.76 43.95 44.23 43.74 43.76 42.92 42.73 44.50 44.74 43.29 42.70 42.67 45.37 45.66 46.07 46.61 47.31 47.67 48.83 49.25 50.09 51.15 52.50 53.60
33.42 31.38 29.74 30.66 28.53 26.58 41.80 40.44 35.16 39.74 41.49 41.30 41.00 40.84 39.04 39.60 39.36 39.21 39.91 41.22 41.62 41.36 42.08 42.28 41.92 42.21 42.61 43.88 42.82 41.86 41.94 44.13 45.31 45.19 44.94 44.92 45.94 46.58 46.75 47.25 47.67 48.78 50.14 50.82
33.01 36.30 33.62 35.46 35.71 40.40 42.25 41.35 43.25 42.15 40.64 40.99 40.68 39.96 39.85 38.88 38.75 40.28 39.91 40.35 40.65 41.36 40.53 40.97 41.09 40.48 41.77 42.16 42.53 41.28 42.66 43.78 44.24 44.04 44.07 44.84 46.07 46.55 46.98 46.70 46.90 46.95 48.49 48.24
37.18 39.93 36.90 36.48 38.61 39.71 41.34 42.30 42.93 43.09 41.38 41.78 41.63 40.80 40.65 39.44 39.97 39.35 40.40 40.13 40.58 40.41 39.24 38.96 39.63 38.06 39.04 40.90 41.20 41.86 42.31 43.16 42.68 41.92 42.40 42.99 43.34 43.90 45.06 45.70 45.38 45.00 45.47 46.66
37.07 38.26 36.39 37.04 39.79 40.38 40.74 42.68 41.99 41.24 41.87 40.98 40.94 41.11 40.11 40.26 39.23 39.88 39.62 39.55 40.35 39.49 38.76 38.33 38.44 37.67 37.96 39.49 40.09 41.56 41.85 42.15 40.99 41.47 41.69 42.18 42.68 43.18 43.48 44.34 44.38 44.22 45.22 45.59
39.40 37.61 36.05 35.43 39.74 37.97 40.04 41.86 42.45 40.70 40.36 40.55 40.16 39.81 40.49 41.24 39.84 40.27 39.11 40.33 39.61 37.48 36.87 37.41 37.74 37.48 38.16 38.49 38.69 40.01 41.49 41.53 40.90 40.58 41.37 41.99 42.42 43.26 43.91 43.73 44.15 42.67 42.77 42.32

GFSCGP_sfc_wetblb_102.txt.gz
Wetbulb
49.56 45.91 43.91 45.83 46.41 45.79 44.08 42.94 42.88 45.59 47.83 46.58 46.55 46.96 48.82 51.07 51.47 51.41 52.19 52.96 53.57 54.52 56.64 58.04 59.14 60.56 61.17 63.08 65.04 66.40 67.13 73.53 74.97 74.36 73.71 73.56 72.90 73.74 73.87 74.11 74.43 73.96 72.98 73.46
46.51 43.37 47.16 47.62 46.65 44.64 44.08 43.06 43.45 46.22 47.72 46.74 46.63 46.40 49.23 50.48 51.12 51.86 52.18 52.88 53.58 54.52 55.78 56.93 58.29 59.26 61.08 62.72 64.48 65.78 67.39 68.88 73.31 73.66 73.89 73.63 73.19 73.50 74.17 74.57 74.85 74.28 73.92 73.66
44.71 45.66 46.63 46.08 45.11 43.61 44.11 43.04 43.64 43.69 46.32 47.67 46.30 44.76 47.08 49.79 51.28 51.82 52.67 53.52 54.10 54.41 54.98 56.33 57.24 58.88 60.38 61.47 63.23 64.73 66.72 68.64 69.73 73.49 72.91 73.64 73.81 74.16 73.63 73.83 73.74 74.13 73.94 74.03
45.76 48.02 46.00 45.09 43.83 45.01 41.93 46.02 45.12 44.17 43.38 40.26 46.84 38.59 45.73 48.21 49.13 50.60 52.06 53.00 53.67 54.57 55.70 56.45 56.92 57.84 59.24 60.05 61.51 63.57 65.24 66.97 68.21 70.51 71.95 74.65 72.02 70.29 71.76 73.42 73.92 74.38 73.97 73.53
43.87 44.81 44.11 43.87 44.56 46.17 43.52 46.41 45.06 44.81 43.64 43.60 43.71 41.61 44.90 49.07 46.86 48.93 51.36 52.74 53.95 54.98 54.97 55.99 57.30 58.46 59.41 60.62 61.27 62.85 64.53 66.01 67.56 68.64 71.24 71.10 72.20 70.26 71.11 71.85 74.75 75.53 75.61 73.98
46.40 49.36 47.05 46.93 46.85 46.85 47.58 45.81 46.14 46.35 44.55 38.27 42.97 42.37 42.93 46.01 48.25 50.17 52.06 52.39 52.92 54.30 55.26 56.25 57.80 58.64 58.91 60.12 61.26 63.25 64.02 64.58 65.73 67.04 68.19 70.62 72.17 72.44 69.99 71.34 71.57 72.82 74.19 74.62
45.66 46.15 48.53 48.31 45.17 48.04 46.63 44.04 38.08 37.52 38.49 37.67 45.45 42.89 44.50 48.59 50.14 50.65 50.94 51.81 53.68 53.65 54.19 54.85 55.87 57.04 58.20 59.29 60.76 62.37 63.24 63.78 65.10 65.22 65.59 66.75 69.71 72.69 74.01 73.74 71.47 73.48 72.24 72.33
39.80 38.15 45.26 47.59 46.26 44.55 45.73 45.22 39.48 32.62 34.01 38.48 44.87 40.08 44.40 49.16 50.35 51.27 52.02 52.92 52.97 53.04 53.60 54.12 55.13 55.98 57.25 58.54 59.45 60.12 61.53 62.64 63.99 64.28 64.71 65.44 65.91 66.92 69.71 72.26 71.10 71.09 71.14 71.83
39.93 40.23 46.26 46.29 47.52 46.86 44.74 42.48 46.49 40.43 41.93 38.18 41.25 44.98 48.52 50.09 49.85 50.33 50.91 50.93 51.51 52.72 53.58 53.72 55.10 56.15 56.84 57.81 59.09 59.62 60.39 61.78 63.25 63.94 64.66 64.78 65.19 66.20 68.02 72.01 72.42 71.53 72.83 70.51
43.30 37.07 45.97 47.62 48.57 47.78 45.04 47.31 39.48 40.53 32.20 31.39 38.81 39.99 41.69 45.08 46.24 48.71 49.36 49.22 50.70 52.45 52.65 53.47 54.35 55.69 56.94 57.53 58.34 59.62 60.25 60.11 61.73 62.67 63.45 64.34 65.02 65.95 67.70 69.41 70.00 69.99 69.16 69.00
44.08 40.89 41.67 45.19 42.71 41.26 42.75 41.47 42.36 41.56 40.02 33.22 32.85 38.38 46.95 46.59 48.00 47.97 48.46 49.76 50.99 51.65 52.08 52.80 54.43 55.61 56.41 57.33 57.50 58.06 58.61 59.09 59.04 60.36 62.43 62.74 63.84 64.06 65.94 66.87 67.54 66.76 66.16 65.16
44.74 40.92 36.87 40.62 46.92 47.93 45.88 43.23 42.22 35.94 36.36 40.02 37.78 37.79 49.22 49.18 48.72 48.80 49.41 50.23 51.16 51.66 52.13 52.84 54.03 55.22 55.55 55.94 56.58 56.81 57.30 57.02 58.25 59.19 59.92 61.60 62.38 62.44 62.40 62.85 63.90 64.80 65.11 65.07
43.35 38.43 34.23 37.12 42.25 44.92 41.88 43.65 43.63 42.37 38.43 34.82 33.92 37.85 47.45 47.34 48.30 49.06 48.13 49.10 50.17 51.11 51.57 51.95 52.84 53.30 54.37 55.32 55.85 56.15 56.42 56.31 56.45 56.76 57.45 58.86 60.40 62.24 62.77 63.20 63.75 63.34 63.53 64.73
43.11 40.10 37.95 33.01 37.44 40.58 37.52 40.00 42.21 40.35 33.85 35.50 36.94 40.17 44.26 45.85 45.51 46.70 48.14 49.93 50.48 50.63 50.68 51.04 51.18 52.01 53.43 53.68 53.71 54.25 55.22 56.05 55.90 55.65 54.89 56.09 56.50 57.61 60.62 62.74 62.54 63.06 62.91 62.28
41.76 34.51 38.34 38.50 39.54 39.31 38.39 38.49 40.20 38.05 38.32 34.35 38.33 38.96 42.82 44.12 45.49 47.28 48.92 49.47 49.14 49.07 49.62 50.31 50.21 50.75 51.75 51.97 52.41 52.69 53.27 54.03 54.50 53.81 53.99 53.65 56.13 57.14 57.31 59.07 60.79 61.81 60.83 61.05
41.68 36.17 37.76 35.53 39.10 38.19 36.19 38.99 39.44 39.56 39.41 39.91 40.21 39.11 45.04 47.00 48.20 47.85 48.42 48.31 47.28 47.74 48.44 49.14 49.74 49.68 49.80 50.33 50.78 51.31 51.74 52.21 53.18 52.22 51.77 53.48 54.78 55.52 57.07 58.72 58.59 59.74 58.86 59.81
38.94 37.50 34.63 32.10 37.45 37.07 33.77 38.89 40.08 40.81 42.01 40.66 37.28 42.28 46.56 46.12 45.54 46.93 47.35 47.18 47.20 47.91 47.99 48.28 48.46 48.83 49.54 50.17 50.72 50.50 51.27 52.08 51.46 51.34 50.78 51.44 53.26 53.69 54.97 56.65 58.03 59.08 59.90 60.19
37.36 36.51 35.04 33.00 34.78 26.38 39.14 44.28 42.95 41.25 42.23 43.52 43.69 45.00 45.36 45.59 47.27 47.80 48.52 47.93 48.11 48.26 48.07 48.24 48.61 49.07 49.73 50.41 50.04 50.35 51.03 50.98 50.23 50.40 50.89 51.44 52.03 52.34 53.23 54.42 55.97 57.58 58.92 59.73
41.10 36.70 34.10 30.92 31.09 36.13 38.91 41.13 41.25 40.18 39.93 45.10 44.41 45.14 45.91 46.45 46.13 45.70 48.44 48.65 48.33 48.17 48.34 48.71 49.09 48.82 48.73 48.67 49.16 47.31 47.02 47.96 47.77 48.89 50.61 51.30 51.48 51.23 51.78 52.19 53.85 56.06 56.58 57.87
40.85 38.12 35.54 34.09 28.33 26.85 38.58 43.02 44.96 44.62 35.79 44.88 44.34 43.64 42.33 43.79 35.95 41.80 47.42 47.52 47.21 47.60 47.64 45.05 45.76 47.02 46.05 46.60 47.41 46.47 46.58 45.82 45.80 47.66 48.62 49.71 50.50 50.97 50.76 51.70 52.74 53.99 55.26 56.05
34.35 34.80 32.66 32.03 31.53 36.02 42.40 43.79 44.88 33.19 36.24 44.64 43.86 43.78 43.07 40.06 42.15 45.40 45.14 43.34 44.34 44.84 44.71 46.90 45.57 43.89 45.03 46.68 46.09 45.03 45.19 44.89 47.18 48.05 48.23 48.20 49.67 50.24 51.02 51.33 52.17 52.62 53.24 54.35
33.52 32.67 32.78 34.04 31.61 28.96 44.64 43.45 37.44 43.73 46.11 44.18 44.81 44.58 40.85 40.73 41.45 41.79 43.59 43.92 43.52 44.18 44.20 46.76 44.46 43.94 45.20 45.59 44.19 43.93 43.84 47.03 47.33 46.83 46.12 46.09 46.77 47.73 49.04 50.15 51.00 52.26 52.71 52.53
33.82 37.38 36.84 37.49 38.07 43.66 46.37 45.30 47.18 47.10 43.62 45.23 44.38 44.35 41.61 40.84 40.98 42.71 42.53 42.82 43.96 43.90 44.87 44.37 42.89 42.64 44.92 43.83 43.63 42.71 44.14 45.38 45.99 45.43 45.08 45.68 46.18 46.56 48.01 48.16 48.68 48.79 50.30 49.74
40.01 42.63 38.73 39.69 41.96 43.46 45.32 46.81 46.40 45.30 45.68 45.73 45.42 43.88 41.85 40.50 41.83 42.25 41.94 42.23 43.83 43.22 41.80 42.14 42.02 41.24 40.12 41.31 42.10 43.01 43.70 43.89 42.90 42.83 43.45 44.65 44.62 45.23 46.64 47.29 47.93 47.77 47.86 48.67
39.45 41.41 39.20 39.78 42.30 43.89 44.29 45.14 46.20 46.23 46.16 44.92 45.04 43.82 43.45 42.37 40.86 41.89 41.86 42.05 41.36 40.65 40.82 39.88 38.95 39.20 38.66 40.10 40.71 42.19 42.95 41.91 40.31 41.21 41.79 42.12 42.83 43.48 44.05 45.47 46.02 46.53 48.40 48.68
42.85 40.24 38.98 36.56 41.86 42.31 43.09 46.10 46.64 45.04 43.87 44.57 43.21 40.75 41.26 42.31 41.38 41.05 39.64 39.88 39.57 39.39 39.14 37.75 37.89 37.51 37.99 38.49 39.02 40.29 41.45 41.17 40.28 39.33 40.11 41.16 42.04 42.71 43.03 43.15 43.76 42.43 42.36 41.82

GFSCGP_sfc_wetblb_105.txt.gz
Wetbulb
51.64 47.88 45.74 47.53 48.81 48.06 47.13 45.60 45.18 47.60 49.18 47.65 48.03 48.49 50.21 52.31 52.64 52.58 53.45 54.22 55.10 55.66 57.63 58.88 59.71 60.84 61.95 63.75 64.68 66.68 68.17 73.94 75.66 74.95 74.18 74.55 73.91 74.79 74.98 75.66 77.50 77.47 76.22 75.58
48.81 45.64 49.33 49.99 49.28 47.42 46.62 44.81 45.13 47.52 49.35 48.82 48.19 47.86 50.48 51.75 52.29 53.36 53.53 54.08 54.89 55.83 56.95 57.99 59.27 60.43 61.22 63.04 65.10 66.46 67.64 70.61 72.41 72.51 75.42 75.00 75.14 73.95 74.29 74.78 76.81 76.72 76.50 77.15
46.81 48.67 49.71 48.09 47.40 46.07 46.36 45.00 45.51 45.43 48.15 49.35 48.04 46.43 48.48 51.18 52.45 53.18 54.02 54.77 55.22 55.58 56.06 57.30 58.12 59.47 60.45 61.32 63.51 66.23 68.38 70.29 71.74 73.16 73.13 76.16 75.50 74.90 72.55 72.69 73.80 76.01 76.69 76.38
48.84 50.72 48.54 47.28 45.47 46.73 43.93 47.99 46.88 45.45 44.78 41.50 48.45 40.70 47.70 50.14 50.89 52.22 53.36 54.26 54.87 55.48 56.43 57.14 57.85 59.14 60.32 60.92 62.18 63.62 66.02 68.74 69.56 72.62 70.55 72.05 70.93 70.20 70.78 71.38 72.28 75.21 77.11 76.51
46.54 47.51 46.38 45.44 46.37 48.04 45.17 48.24 46.84 46.51 45.17 44.86 44.85 42.83 46.47 50.60 49.44 51.52 53.26 54.05 55.18 56.15 57.04 56.96 57.69 59.41 60.35 61.42 61.61 63.15 66.46 66.99 68.09 69.96 71.97 69.12 70.22 68.76 70.36 71.69 73.75 75.45 76.70 77.08
47.64 50.73 48.44 48.22 49.34 48.30 49.19 46.94 47.24 47.16 45.75 40.19 44.98 44.60 44.96 47.80 50.10 51.95 53.85 54.93 55.58 55.88 56.57 57.27 58.40 59.66 60.03 60.78 61.70 63.19 64.65 66.19 67.22 67.51 69.03 71.15 71.42 71.51 69.73 70.19 70.45 71.73 73.81 75.44
45.08 46.80 49.19 49.92 46.44 49.15 48.25 45.61 39.78 38.90 39.76 39.03 47.09 44.76 46.97 51.07 52.29 52.68 53.10 54.20 55.89 56.09 55.77 55.74 56.68 57.39 58.57 59.74 60.77 61.54 62.69 63.72 65.72 66.21 66.75 67.24 69.69 71.08 72.47 71.86 69.56 69.95 71.15 72.74
41.34 40.11 46.68 49.37 47.28 45.23 46.39 45.31 38.82 32.75 35.64 39.74 46.41 41.58 46.75 52.93 53.36 53.56 53.41 54.29 55.06 54.96 56.07 55.70 56.54 57.00 57.65 58.72 59.81 60.43 61.09 61.51 63.25 64.76 65.78 66.78 67.47 65.94 66.47 69.32 69.46 70.40 69.16 70.59
40.68 41.85 49.13 49.37 49.74 48.39 45.43 42.66 47.15 41.41 43.29 40.11 42.59 46.40 50.67 52.64 52.64 52.64 52.67 53.74 53.57 54.38 55.18 55.91 56.38 56.88 57.49 58.41 59.37 59.80 60.33 61.11 61.76 62.94 64.78 65.69 66.68 67.50 66.96 69.45 70.39 70.46 72.11 71.84
43.88 38.94 46.68 48.57 50.06 50.34 47.10 48.35 39.38 41.27 33.94 33.50 39.60 42.31 43.84 48.06 50.03 51.51 51.75 52.43 53.47 54.03 54.98 55.54 55.86 56.75 57.75 58.40 59.24 59.71 59.75 59.90 60.88 61.55 62.65 63.70 64.96 66.38 67.23 69.14 69.53 70.42 72.46 73.24
46.91 42.91 42.26 45.85 44.77 43.49 44.02 42.27 43.30 42.88 41.33 35.21 34.80 39.41 49.07 48.56 50.08 51.01 51.39 51.68 51.81 52.59 54.22 54.84 55.67 56.43 56.57 57.57 57.84 58.52 58.78 58.63 59.09 60.61 61.33 62.12 63.44 64.58 65.51 66.84 67.76 69.59 71.52 71.26
45.87 42.40 38.89 41.96 47.68 48.79 46.93 44.22 43.52 37.00 37.68 40.36 38.97 39.62 51.44 50.50 51.59 51.53 51.49 51.43 52.55 53.44 53.71 54.31 54.22 54.72 55.17 56.04 57.14 57.56 58.16 58.16 58.68 59.05 59.20 60.32 62.19 63.84 64.04 64.61 65.69 67.50 67.96 68.74
46.59 40.76 36.87 39.58 44.80 47.30 43.47 44.74 44.74 43.62 42.86 38.18 35.29 39.55 49.62 50.59 49.81 50.52 50.14 51.12 51.31 51.77 53.18 53.67 53.79 53.84 54.17 55.04 56.07 56.16 56.60 56.81 58.03 58.49 58.34 58.64 59.60 60.77 63.66 63.93 64.15 64.76 65.31 65.70
45.11 42.16 37.14 34.86 39.33 41.00 38.53 41.91 43.26 42.03 38.09 38.61 39.30 40.83 45.07 46.54 47.90 49.13 50.26 50.18 51.16 52.33 52.62 52.93 53.31 53.70 53.95 54.37 54.77 55.02 55.16 55.58 56.00 56.44 56.90 57.44 58.23 58.98 59.71 60.87 60.47 60.73 63.45 63.73
43.66 37.41 39.89 40.53 40.55 41.24 41.43 40.81 41.58 38.94 40.46 36.44 40.49 40.70 43.24 47.12 48.48 48.80 49.64 50.58 50.47 50.93 51.68 51.74 52.10 52.72 53.11 53.38 53.67 53.74 54.17 54.57 55.01 54.62 54.77 55.74 57.13 58.28 58.35 59.49 57.53 57.96 57.27 61.73
44.42 36.56 40.42 38.01 41.05 40.50 38.82 41.44 41.92 41.97 41.66 40.62 41.70 41.52 47.81 48.99 48.50 48.24 48.70 48.32 48.65 50.10 50.64 51.35 52.03 52.19 52.05 52.56 52.34 52.97 53.09 53.56 54.28 53.70 53.65 54.49 55.03 55.67 56.93 57.72 59.51 57.24 56.17 58.84
39.94 37.89 37.49 34.91 39.83 39.60 35.43 40.04 42.29 42.45 43.49 42.65 38.52 43.34 46.79 46.62 47.56 48.57 48.85 49.39 49.16 49.74 50.36 50.92 51.62 51.93 52.28 52.48 52.97 52.25 52.62 53.56 53.03 53.05 53.48 53.45 53.75 53.92 54.82 56.50 57.14 56.80 55.80 56.61
37.87 38.19 37.48 34.34 36.73 28.98 40.49 46.07 44.66 42.68 44.09 45.31 45.07 46.07 46.93 47.61 48.59 49.42 49.90 48.98 49.14 49.79 50.07 50.57 50.87 51.06 51.54 51.28 50.83 51.93 51.68 50.90 49.85 49.67 50.86 52.20 52.60 52.77 53.92 54.67 56.03 58.58 60.33 58.57
44.33 38.95 34.32 32.85 33.11 38.04 40.77 43.41 43.17 41.64 41.34 46.67 45.26 46.29 46.73 47.87 47.74 47.42 50.13 50.25 49.61 49.72 49.79 49.67 50.15 49.76 50.04 50.28 50.27 49.11 49.77 48.82 49.10 48.36 49.11 50.25 50.95 51.43 53.18 53.61 56.28 57.59 58.05 59.89
43.98 41.71 35.85 34.81 30.69 29.10 39.99 43.44 47.20 46.19 37.78 46.04 45.04 45.26 45.70 46.49 40.49 44.35 48.40 48.37 48.43 48.36 48.15 48.56 48.73 47.72 48.06 47.88 49.14 47.36 47.63 46.37 46.13 47.27 48.00 50.11 50.07 51.05 52.26 54.19 55.55 56.45 56.85 57.01
37.83 36.96 31.90 34.17 33.13 37.62 44.30 45.92 46.80 35.83 37.60 44.73 45.63 46.68 45.86 42.96 45.16 47.12 47.57 46.89 47.64 47.55 46.95 46.86 47.13 46.59 47.01 47.49 48.77 46.48 45.70 44.98 47.11 47.58 48.90 48.55 49.60 49.06 49.97 51.58 54.38 55.73 54.92 55.00
36.68 35.34 34.73 36.13 33.42 30.79 46.55 45.38 39.48 43.50 47.22 47.14 47.10 47.32 45.93 46.29 46.62 46.46 46.39 46.16 46.62 45.71 46.57 47.16 45.39 46.68 46.50 47.46 46.37 45.48 43.81 46.83 47.65 46.67 47.62 47.51 48.20 48.75 49.10 49.86 49.06 51.56 53.50 54.54
36.50 40.30 36.89 37.47 39.24 45.26 46.86 46.91 47.12 47.08 46.31 46.34 46.97 47.41 46.67 45.71 45.60 45.90 45.17 45.41 44.80 44.79 44.74 44.46 43.89 42.91 44.48 44.34 44.78 43.30 45.21 45.68 45.17 45.66 45.60 45.96 47.37 47.76 47.87 47.53 48.13 48.31 50.14 50.16
41.72 44.78 39.26 39.40 43.37 43.56 46.86 47.60 47.73 47.20 45.94 48.50 48.06 47.07 47.00 45.14 44.87 44.26 44.19 44.18 44.32 43.56 42.52 41.91 41.67 39.59 40.90 41.93 42.98 43.20 43.14 43.49 43.54 43.29 44.49 44.99 44.00 44.38 46.91 46.97 46.51 46.16 46.60 48.16
41.67 42.69 40.47 40.66 43.75 45.84 46.45 47.16 46.87 46.76 48.65 47.69 47.50 47.09 45.62 44.59 43.63 44.00 43.72 43.74 42.18 41.03 40.63 40.20 38.38 38.16 39.04 40.42 40.26 41.30 41.84 41.99 40.99 41.28 42.56 41.81 41.48 41.88 43.41 44.85 46.12 45.92 47.11 47.89
42.70 41.53 39.44 39.03 44.14 43.84 43.95 46.75 48.01 47.51 46.18 46.74 45.87 44.79 45.34 45.25 44.24 43.98 43.37 42.79 41.01 39.46 38.69 37.04 36.59 36.58 37.07 37.45 37.74 38.97 39.66 39.49 39.09 39.02 40.24 40.98 41.54 41.42 42.10 42.74 43.41 42.42 41.93 41.45

GFSCGP_sfc_wetblb_108.txt.gz
Wetbulb
50.56 46.39 43.90 46.39 47.86 47.71 46.73 45.58 45.01 47.70 49.81 48.25 47.29 47.70 49.30 51.37 51.48 51.65 53.19 54.32 55.56 56.29 58.38 60.92 62.43 64.25 65.99 65.76 66.88 69.67 70.05 71.23 72.95 75.63 74.64 75.21 74.44 75.27 75.11 75.53 75.78 75.36 75.55 75.37
47.53 44.98 48.87 49.83 49.35 47.97 47.09 45.19 44.76 47.19 49.03 48.11 47.34 46.94 49.57 50.97 52.07 52.81 53.12 54.39 55.44 56.50 57.50 59.00 61.75 64.32 65.24 66.24 67.79 68.41 69.15 72.77 71.60 70.65 75.22 75.47 75.16 74.21 75.34 75.33 75.23 76.55 75.16 74.93
45.58 47.76 50.74 49.06 47.60 46.30 46.33 44.95 44.92 44.67 47.61 48.72 47.49 45.68 47.69 50.58 52.03 53.18 54.10 55.35 55.87 56.29 57.14 59.27 60.56 63.79 64.71 65.78 66.27 67.84 70.21 71.04 73.26 71.60 69.97 71.12 74.19 73.66 72.51 73.08 74.00 74.86 75.70 75.27
47.82 50.54 48.93 47.99 46.25 46.61 43.19 48.02 47.03 45.76 44.33 40.14 47.22 39.65 47.08 49.55 50.70 52.37 53.57 54.32 54.89 55.75 57.36 58.55 59.75 62.61 63.09 63.64 65.67 67.90 69.85 71.05 70.06 72.07 70.86 69.97 68.45 69.65 70.78 72.01 72.82 73.66 74.60 74.53
45.86 47.96 47.61 46.30 46.49 48.22 45.51 48.23 46.62 46.06 44.18 43.72 43.73 41.16 44.54 48.93 48.09 50.74 53.52 54.88 55.88 56.84 57.71 58.10 58.67 60.81 61.37 63.62 64.78 66.70 68.89 68.86 70.59 71.77 71.61 68.37 67.92 67.50 68.12 69.58 71.06 71.54 74.13 74.33
46.64 50.09 48.69 47.95 49.17 49.22 49.27 46.82 46.46 46.10 43.79 38.39 42.42 42.15 42.65 46.51 49.46 52.21 54.40 55.27 55.83 55.90 57.04 57.81 59.03 60.16 60.94 62.09 63.47 65.48 65.87 67.91 69.25 70.28 70.22 69.53 69.10 68.52 67.86 68.53 69.53 70.58 70.10 74.06
44.85 45.57 48.56 49.05 45.86 48.50 47.49 44.70 37.91 36.88 37.52 37.17 45.19 43.15 45.81 51.26 52.99 53.31 53.33 54.33 55.93 56.43 56.32 56.53 56.69 56.87 60.15 61.35 63.19 62.52 65.35 64.59 66.53 66.87 67.77 68.33 69.19 69.69 68.65 67.50 67.69 68.40 67.98 68.68
40.66 39.10 46.41 49.74 47.16 44.59 45.11 44.56 38.19 31.44 33.94 37.58 45.33 40.15 45.09 52.79 54.15 55.12 55.33 55.24 56.02 55.77 56.00 56.07 56.32 57.20 57.05 59.89 62.07 62.60 62.91 61.85 64.14 63.67 65.15 68.04 69.16 66.42 66.24 67.03 66.85 66.68 66.64 66.93
41.06 40.97 48.94 49.87 50.59 48.87 44.61 41.04 46.32 40.25 41.46 37.73 40.94 45.05 49.64 52.20 52.54 53.56 53.68 54.15 54.71 55.85 55.86 55.51 56.28 57.53 58.92 60.06 62.35 63.03 62.73 63.00 62.83 61.79 62.39 65.32 67.16 66.81 66.37 67.57 66.94 66.00 66.61 67.63
45.31 39.16 46.40 48.11 49.88 49.95 46.80 48.17 38.64 39.63 33.08 31.74 38.53 41.07 42.51 46.36 49.11 51.80 52.18 52.60 53.91 55.20 54.55 55.23 55.82 57.86 59.01 59.81 62.59 62.10 62.37 61.92 61.98 61.60 61.86 61.57 62.50 62.81 66.14 66.81 66.82 67.11 67.77 67.58
47.44 43.53 42.24 46.24 43.94 42.94 44.30 42.57 43.43 42.98 40.05 33.28 32.74 38.38 49.68 48.44 50.23 50.66 52.29 52.89 53.58 53.74 53.99 54.56 54.98 56.56 56.48 56.81 56.66 57.86 60.68 60.36 60.17 60.80 61.58 61.07 60.77 61.48 62.35 63.95 65.01 66.47 67.06 67.85
47.29 43.57 38.82 41.08 46.73 48.28 47.19 44.51 44.47 37.74 36.30 39.67 38.40 37.73 50.69 50.46 50.78 51.73 51.79 52.57 53.28 53.72 53.54 53.48 54.17 54.76 54.51 55.15 55.91 56.57 59.66 59.19 58.74 59.28 58.91 61.04 61.40 60.29 60.68 61.31 63.12 65.22 65.29 66.27
47.07 41.75 35.36 37.02 42.24 46.26 42.18 43.74 43.76 42.93 42.57 36.70 34.77 37.90 49.75 50.20 48.93 50.46 50.73 51.90 52.29 52.80 52.45 52.95 53.74 53.93 54.31 54.82 55.52 55.31 55.78 56.54 57.06 56.91 56.38 57.26 60.32 60.00 59.52 60.21 61.15 62.85 62.41 61.45
46.41 41.65 37.17 32.76 36.47 41.46 38.73 40.98 41.83 40.40 34.48 36.43 37.80 40.41 44.94 47.39 47.17 49.27 50.85 51.39 51.39 51.86 52.61 52.62 53.24 53.50 54.14 54.70 54.76 54.77 55.00 55.73 55.58 55.59 55.33 55.64 56.37 58.50 58.98 59.15 59.06 60.87 61.58 61.10
43.94 37.11 40.18 40.46 40.64 40.74 40.13 40.21 40.92 39.50 40.78 36.73 39.76 39.91 43.80 46.76 48.33 49.06 49.51 50.44 50.31 50.90 51.88 52.34 52.58 52.97 53.64 53.82 54.80 54.66 54.79 54.58 55.10 54.19 53.95 54.44 55.71 56.39 56.82 57.19 58.34 58.73 59.95 59.62
44.31 37.50 40.05 37.81 40.95 40.60 39.19 41.53 41.95 41.87 42.13 41.75 41.81 41.22 47.67 48.63 48.87 48.60 49.34 49.73 49.30 49.68 50.82 51.53 52.58 52.94 53.28 53.05 53.35 54.01 54.27 54.44 54.86 53.57 53.50 54.22 54.83 54.85 54.46 55.06 55.71 56.99 59.27 59.25
41.46 39.01 36.39 32.65 39.50 38.99 35.65 40.59 41.80 42.50 44.02 43.09 38.65 43.58 47.05 46.35 46.80 47.52 48.18 48.67 48.14 49.37 49.99 50.46 51.27 51.57 51.99 52.18 52.81 52.21 52.86 53.38 52.42 52.30 52.38 52.43 52.48 51.90 52.66 54.24 54.40 54.63 56.67 59.28
40.56 38.81 36.73 32.51 36.06 27.84 40.09 46.23 45.79 43.61 43.84 45.14 45.00 46.03 46.93 47.00 48.00 48.34 48.99 48.47 47.80 47.99 48.17 49.33 49.86 49.82 50.12 51.02 51.31 51.28 51.26 51.02 50.85 49.94 49.99 50.39 50.72 50.65 50.78 50.64 52.23 54.13 55.55 57.84
44.57 40.37 35.32 31.52 32.31 37.21 39.96 43.37 41.67 38.95 40.82 45.82 44.75 46.01 46.83 47.66 47.28 46.71 49.66 49.09 48.63 48.69 48.44 48.63 49.23 49.59 49.31 48.79 49.80 48.94 48.50 49.11 48.93 48.52 48.82 49.18 48.85 47.93 49.03 49.15 50.76 50.90 53.25 54.58
44.75 43.58 35.47 34.86 29.96 28.06 39.77 44.61 46.81 44.36 35.45 45.90 45.86 45.29 45.50 45.80 39.52 43.41 48.81 48.95 49.03 49.36 49.14 48.62 48.79 48.83 47.42 47.78 49.33 47.45 47.27 47.05 46.50 46.79 47.58 48.32 47.71 48.09 47.57 48.46 49.63 50.25 50.92 52.98
37.67 37.71 33.09 32.10 31.21 35.67 43.74 45.70 47.55 34.99 37.34 45.83 45.93 45.79 45.30 43.42 45.41 47.81 49.00 49.05 49.28 48.70 48.52 48.60 48.24 46.80 46.83 46.88 46.32 44.16 45.31 45.55 47.25 48.25 48.02 47.40 46.97 47.41 47.72 48.17 49.98 50.09 49.18 49.86
37.19 35.54 34.09 35.40 32.00 30.18 45.91 45.37 39.78 43.25 47.13 46.67 46.36 46.74 45.88 46.30 46.94 47.23 47.86 47.14 47.02 46.63 47.10 47.30 45.99 44.81 45.07 44.62 43.69 42.64 41.64 43.64 46.46 46.74 46.23 45.45 45.55 46.63 47.41 47.84 47.98 48.64 49.03 48.81
35.98 40.04 37.58 38.76 38.43 45.23 46.76 46.43 48.36 48.26 46.48 46.61 46.74 47.33 46.54 45.23 45.76 45.66 45.24 45.42 45.80 46.76 46.49 45.44 43.45 41.81 42.37 42.08 43.08 39.16 42.43 43.65 43.71 43.55 43.30 43.51 44.22 45.50 46.07 46.27 46.25 45.72 46.47 47.49
42.16 44.67 40.39 39.53 42.81 44.62 46.34 47.53 48.05 48.62 47.12 48.13 48.44 46.58 46.50 44.72 44.66 44.83 45.09 45.35 45.14 45.53 44.31 44.07 41.51 39.85 38.76 39.21 39.42 39.72 40.10 41.18 40.67 40.47 40.99 41.98 42.76 43.74 45.28 45.84 45.90 45.78 45.71 45.37
41.31 42.29 40.54 40.32 43.39 44.94 46.07 46.45 47.46 47.61 48.25 47.72 47.17 46.90 45.86 45.26 44.68 44.74 44.17 43.99 44.15 43.82 43.00 40.93 39.08 37.42 36.51 37.46 37.51 38.56 38.62 38.89 38.24 38.73 40.07 40.19 40.73 41.80 43.18 43.89 44.05 43.96 45.93 45.79
42.78 41.15 38.99 37.29 43.94 43.63 44.38 46.74 48.12 46.99 46.65 46.42 45.99 45.27 46.18 45.92 44.32 44.40 43.36 44.07 43.51 41.93 40.26 37.70 37.03 35.86 35.81 35.99 36.29 37.05 38.05 37.75 37.42 37.12 37.70 38.31 39.07 40.02 41.33 41.76 41.84 41.06 40.84 41.28

GFSCGP_sfc_wetblb_114.txt.gz
Wetbulb
44.41 39.12 35.67 39.32 40.62 41.16 40.38 38.38 38.01 41.50 44.52 41.65 39.96 40.97 42.85 44.92 43.38 43.30 45.66 46.15 47.54 49.02 51.25 51.66 53.25 53.79 56.76 61.63 65.16 64.77 61.62 62.21 62.05 62.64 69.61 69.88 70.62 70.70 71.22 71.47 72.11 70.23 69.38 69.42
40.27 36.60 42.12 43.93 43.34 42.18 40.94 38.53 38.07 40.81 44.36 42.21 40.73 40.94 43.21 44.49 43.97 45.19 46.02 46.49 47.35 47.52 48.94 50.89 51.66 52.73 56.05 56.59 59.38 57.68 57.71 60.04 59.67 58.17 62.12 68.88 69.11 68.86 70.35 71.23 71.19 70.77 70.70 70.44
37.55 41.43 45.89 44.42 42.99 42.13 40.77 38.69 38.92 39.57 43.08 42.33 40.64 38.17 40.63 44.11 45.81 46.78 46.66 46.92 47.40 48.08 48.74 49.55 50.56 51.04 53.86 54.18 55.10 56.11 57.55 58.36 59.13 59.87 60.52 61.01 61.28 62.40 64.88 65.02 67.25 68.99 70.42 70.77
39.95 45.01 44.01 42.78 42.38 43.22 39.23 43.90 43.00 41.65 38.58 33.18 40.11 30.18 36.91 41.17 42.63 45.06 46.16 45.63 46.26 47.57 49.53 50.03 51.45 52.72 55.03 55.17 56.65 58.20 59.56 59.24 60.70 62.51 61.31 59.99 58.97 58.19 60.08 60.97 63.43 64.31 66.42 69.39
40.21 42.03 42.01 41.05 42.46 44.15 40.59 44.50 42.34 41.90 36.84 33.31 35.67 31.11 35.53 39.96 40.94 42.60 44.65 46.75 48.78 49.32 48.33 50.90 51.60 53.00 53.96 55.21 54.66 56.14 57.96 59.40 59.87 59.84 59.01 58.42 57.77 58.51 59.92 60.27 59.89 61.32 64.36 67.20
42.64 46.50 44.84 43.56 46.24 45.43 45.89 41.90 39.59 36.90 34.08 28.17 33.92 32.75 32.39 37.18 39.82 42.79 46.29 49.04 49.49 48.00 50.38 50.51 50.80 52.98 53.32 53.27 54.35 53.81 54.68 54.95 56.74 57.35 57.23 57.58 58.09 58.82 59.56 60.11 60.46 59.99 59.58 62.03
40.53 41.24 44.11 46.73 42.33 45.26 42.66 35.72 28.91 26.94 27.30 27.47 37.75 35.16 34.67 41.34 47.48 47.88 47.57 47.63 48.66 48.05 48.02 48.77 49.22 49.81 51.26 51.53 52.96 53.24 53.09 54.37 54.49 54.99 55.05 54.38 55.24 57.76 58.23 58.07 58.64 59.10 59.24 59.61
34.64 35.34 43.54 47.50 43.40 39.68 39.64 36.01 28.91 23.86 24.74 28.79 38.55 31.94 37.86 46.74 48.97 50.09 50.53 48.14 48.96 48.25 47.71 48.18 48.30 49.18 50.48 51.16 51.68 52.72 51.88 53.20 53.31 53.68 53.41 53.61 56.49 56.57 55.94 56.32 57.31 58.45 59.60 61.18
34.90 38.07 46.89 47.67 47.65 44.34 40.66 37.05 39.38 32.69 33.53 28.90 32.68 37.36 42.65 47.09 47.83 48.90 48.66 48.38 46.95 47.82 48.23 48.34 49.47 49.42 49.69 50.32 50.67 51.17 51.00 50.89 52.81 52.91 52.69 53.13 53.89 53.23 53.90 54.69 55.66 56.57 57.48 60.56
39.76 34.05 43.05 45.32 45.94 45.71 41.33 43.95 33.91 32.63 24.66 24.01 30.95 33.38 35.47 42.80 44.37 47.52 47.69 47.29 47.09 47.34 48.19 49.46 49.75 49.96 48.66 48.13 48.89 49.60 50.87 51.35 53.17 52.55 51.92 52.36 52.76 52.35 53.14 53.32 53.92 54.61 55.90 57.60
40.71 37.15 37.96 41.74 38.87 36.52 36.91 34.88 37.06 36.91 36.81 30.28 26.93 30.27 41.35 41.97 44.21 45.33 47.13 48.10 48.88 48.99 48.69 48.15 48.60 49.89 49.41 49.14 49.05 49.48 49.72 51.24 51.57 51.99 51.67 51.77 52.56 52.36 52.56 51.89 52.75 54.12 55.67 55.94
41.23 37.70 33.15 36.18 41.62 43.04 39.03 36.51 37.66 32.35 32.88 36.42 35.38 33.33 43.26 44.30 44.75 46.09 45.76 48.09 49.64 50.29 51.08 50.54 50.36 49.45 50.66 50.47 49.26 47.51 47.48 49.80 50.74 51.52 51.93 51.24 51.46 52.38 51.89 52.05 52.81 53.47 53.79 54.59
40.06 34.02 27.98 29.46 33.72 38.86 37.37 38.51 38.30 38.64 35.53 33.18 32.33 32.29 46.12 46.12 44.71 46.82 46.36 47.53 48.90 49.65 49.08 49.63 48.52 47.72 47.12 46.69 46.97 47.49 47.38 47.72 48.08 49.29 48.72 48.10 47.96 49.69 51.77 50.78 51.42 52.65 52.47 52.01
43.13 34.86 31.17 25.71 29.84 33.90 33.54 36.24 37.49 37.71 31.76 32.20 33.49 34.82 39.26 42.15 44.16 45.27 46.31 46.63 46.31 46.68 46.95 45.87 44.42 44.80 46.30 47.42 47.13 47.05 46.90 47.56 47.76 47.98 47.33 46.54 46.56 46.87 47.50 49.05 50.32 50.49 51.00 51.59
36.90 30.05 33.32 34.85 36.80 37.41 36.12 36.17 36.79 33.27 33.75 30.51 33.73 34.60 38.81 41.15 40.73 42.24 44.30 45.02 44.72 44.21 45.00 44.87 43.75 43.70 44.19 44.42 45.03 45.49 45.70 47.32 46.58 46.54 46.01 45.84 46.57 47.26 47.75 47.90 48.28 49.32 50.32 51.02
37.02 29.99 34.54 33.45 37.39 36.89 34.90 36.69 36.82 37.36 37.79 36.38 36.65 36.34 42.12 43.94 43.13 42.63 41.78 42.80 43.20 43.49 44.25 44.61 44.66 44.55 44.04 44.20 44.47 45.36 45.48 45.85 45.94 45.27 45.32 46.50 47.13 47.41 47.24 47.40 47.45 47.17 47.30 48.08
35.01 32.59 29.84 27.69 34.43 33.69 28.77 34.15 35.73 37.27 39.80 38.30 33.63 36.92 42.01 41.41 41.39 39.64 40.31 41.62 41.59 42.71 43.39 43.74 43.67 43.30 42.83 42.79 44.20 43.07 43.94 44.74 45.02 45.28 46.32 46.86 46.60 46.66 46.93 47.48 46.95 45.97 44.76 45.33
34.40 32.78 33.50 28.77 29.35 22.25 33.10 41.56 43.30 40.65 41.52 41.78 41.94 43.20 42.96 42.36 44.37 44.60 41.58 38.48 40.92 41.93 42.15 42.16 41.43 40.72 40.98 41.70 42.30 42.53 43.46 43.70 44.05 44.12 44.74 45.86 45.93 45.99 46.38 46.27 46.38 46.01 43.73 43.34
39.36 35.87 31.54 25.73 23.37 30.84 34.98 40.81 39.53 36.73 36.91 42.69 41.26 42.94 42.34 41.61 40.66 40.45 42.92 42.20 40.66 40.20 40.44 40.22 40.36 40.65 41.79 40.83 41.54 41.77 41.89 42.20 42.59 42.69 42.81 43.57 44.11 43.31 43.79 44.75 45.98 45.79 43.21 42.46
39.46 39.57 34.30 31.11 26.36 23.02 34.56 42.93 44.95 42.71 31.77 43.79 43.28 39.73 39.38 39.10 33.20 36.12 41.74 41.67 40.79 40.66 40.47 40.23 40.84 40.17 40.42 41.53 41.91 40.96 41.26 41.33 41.01 41.53 41.90 42.51 42.17 42.43 43.89 45.20 46.16 46.43 43.70 44.56
35.64 35.28 32.42 31.97 29.56 31.67 40.70 43.66 45.65 29.31 31.75 42.99 42.86 40.41 38.06 36.63 37.85 40.13 40.71 40.26 40.33 40.12 40.01 40.35 39.50 39.47 39.40 40.54 40.63 40.38 40.64 40.14 40.44 42.03 41.65 41.11 42.07 40.49 40.91 41.47 43.31 46.34 45.59 44.99
32.56 32.34 31.07 32.59 30.19 27.66 43.11 42.66 36.04 37.95 40.64 42.74 40.92 39.68 38.96 38.42 39.09 39.71 40.33 39.92 40.19 39.03 39.14 39.42 38.65 40.11 41.39 41.82 41.19 40.11 38.83 39.79 40.16 39.94 38.99 38.75 39.15 40.88 41.02 41.84 43.61 44.54 44.97 44.30
28.43 34.03 34.47 34.91 34.92 42.33 44.42 41.69 42.42 42.39 40.71 41.35 39.46 40.23 38.53 37.89 38.45 39.23 39.51 39.26 38.12 38.25 39.00 40.35 40.09 39.80 39.88 40.33 39.71 37.41 38.35 38.74 38.17 37.75 37.27 37.54 38.14 38.94 39.44 39.08 40.42 42.60 43.59 43.07
36.57 41.77 37.78 37.06 40.35 41.80 42.62 42.86 42.44 42.60 41.89 44.12 41.58 39.08 38.88 37.97 39.01 38.85 38.76 37.39 39.15 38.65 39.25 39.26 38.24 37.17 37.84 37.87 37.59 37.89 37.87 37.33 36.00 35.33 35.47 36.17 36.51 36.84 37.56 38.99 39.36 39.40 39.89 40.09
34.18 36.83 35.30 35.26 39.01 39.73 42.16 42.93 42.83 43.55 44.66 42.47 41.50 40.66 40.21 39.33 38.56 38.77 37.82 38.05 38.23 38.37 38.57 37.81 36.24 37.03 36.06 36.12 35.44 35.92 35.98 35.49 34.25 34.44 34.71 35.10 35.71 36.02 36.64 37.52 38.48 40.03 41.54 42.35
34.97 33.30 31.90 31.27 39.31 38.01 39.08 42.23 43.77 42.12 43.61 43.17 40.78 39.89 39.91 39.91 38.68 38.63 37.45 37.56 37.55 37.44 36.71 35.74 36.16 35.27 35.10 34.72 33.78 34.15 34.86 34.53 33.15 32.89 33.25 34.42 35.05 35.84 36.64 36.83 37.46 39.06 38.93 39.16

GFSCGP_sfc_wetblb_117.txt.gz
Wetbulb
43.34 38.96 36.08 39.63 40.13 40.64 39.53 37.44 37.06 39.98 42.90 40.11 39.53 39.25 42.25 44.32 42.67 42.30 43.07 44.73 45.93 46.54 49.37 49.61 50.16 52.39 58.99 62.81 65.12 65.88 64.33 64.13 64.83 64.70 63.86 65.40 67.33 69.00 70.40 70.49 69.75 67.85 68.16 68.62
39.43 36.43 41.51 42.67 42.04 40.71 39.29 36.61 36.63 39.86 42.30 39.92 39.46 39.66 41.85 43.19 43.30 42.47 42.94 43.99 45.36 45.42 47.56 49.18 49.44 50.62 55.86 61.58 64.20 63.90 64.02 61.92 61.56 60.62 67.04 68.46 68.41 68.48 68.63 68.55 68.56 70.12 70.00 68.77
36.59 40.62 44.60 42.66 40.64 39.90 38.56 36.29 36.90 37.85 41.50 40.62 38.90 36.66 39.20 42.96 43.91 44.85 44.95 44.81 45.36 46.03 46.34 47.56 48.29 49.68 53.24 57.54 59.69 61.20 59.63 60.25 59.07 57.01 59.79 60.37 60.56 60.79 61.81 62.16 63.36 64.79 65.78 67.79
38.39 42.55 42.27 40.25 40.22 40.64 35.55 41.90 42.23 40.13 36.97 31.84 38.15 29.00 35.58 39.45 41.41 43.00 44.15 44.03 44.51 45.14 46.59 47.91 47.51 48.56 52.30 53.00 54.16 55.98 56.99 57.10 57.99 58.10 58.24 57.19 55.66 55.55 58.45 58.96 61.11 61.91 64.67 65.63
38.63 40.13 40.28 39.11 40.54 42.50 39.04 42.80 40.98 40.15 35.75 32.35 33.69 30.14 33.87 37.75 39.43 40.62 44.07 45.22 46.22 48.29 47.98 46.67 47.43 50.37 51.64 54.14 54.88 56.18 56.48 58.40 59.53 58.68 57.50 56.85 56.35 57.06 58.16 58.66 58.05 59.17 61.05 64.51
40.67 44.65 43.15 42.18 44.60 44.49 45.05 39.98 37.52 34.66 32.17 27.18 32.21 31.94 30.42 35.74 37.97 43.76 46.75 46.80 47.32 46.64 47.40 48.63 50.62 52.70 52.36 53.05 53.62 54.54 55.71 55.40 56.92 57.06 56.84 56.82 56.40 57.25 57.89 58.00 57.80 57.69 58.20 59.33
38.69 39.47 42.34 45.02 39.94 44.02 40.24 33.34 26.94 25.65 25.55 26.22 35.23 32.38 33.92 40.04 45.70 46.10 45.21 45.69 46.34 47.01 48.21 49.62 49.94 50.47 51.18 51.01 51.84 53.07 54.03 53.15 53.41 54.05 53.56 53.54 54.24 56.45 57.39 56.47 56.16 55.67 56.76 57.84
33.91 33.00 41.52 46.00 42.18 38.49 37.29 34.30 27.83 23.25 23.59 27.09 35.93 30.21 35.75 45.18 47.18 46.66 47.04 45.78 46.52 45.96 45.45 46.44 47.52 48.85 49.74 50.47 50.81 51.10 52.17 52.23 51.98 52.66 52.37 52.49 54.58 54.73 54.25 55.01 55.35 55.97 56.23 57.61
35.42 37.87 46.18 46.29 46.62 44.76 39.52 34.78 36.65 31.46 31.37 28.57 31.11 35.66 41.02 45.17 45.81 47.00 47.23 47.06 46.24 45.77 45.70 46.50 47.42 47.33 48.58 49.26 50.13 50.27 49.98 50.17 51.78 51.99 51.60 51.76 53.68 53.01 52.81 53.30 54.11 54.98 55.71 57.94
39.78 33.88 41.75 44.64 45.31 44.00 40.28 42.53 33.62 31.92 25.30 22.91 28.74 31.46 33.03 40.12 42.62 45.56 45.60 46.18 47.10 48.45 48.25 46.69 46.56 47.63 48.54 49.17 49.86 50.21 50.33 50.74 50.90 52.11 51.60 51.72 51.88 52.02 52.02 51.86 52.62 53.28 53.90 56.22
39.17 35.88 36.34 39.97 37.18 35.35 35.91 33.53 34.79 33.74 31.72 24.95 24.78 29.26 38.28 40.40 41.60 42.39 43.94 46.52 48.61 50.31 52.24 51.30 49.65 47.86 48.42 47.34 47.61 48.03 48.92 49.80 51.21 51.54 51.14 50.51 50.69 51.47 51.13 50.75 51.27 52.19 53.08 54.62
40.23 36.17 31.90 34.75 39.71 41.10 37.34 35.49 34.66 26.91 28.02 34.23 34.94 32.11 42.78 41.92 41.03 41.63 42.83 44.59 45.33 46.58 48.25 49.50 50.36 48.62 47.70 46.01 47.95 47.51 47.96 47.86 47.24 47.96 49.34 49.42 49.05 49.40 49.89 50.53 50.74 51.33 52.48 53.06
39.30 32.69 26.94 27.93 32.34 37.38 35.66 36.99 37.10 34.71 32.48 30.46 26.07 29.61 42.99 43.00 43.30 43.83 44.00 44.81 45.32 46.61 45.92 44.91 44.69 46.45 47.08 47.03 47.08 46.70 46.03 46.16 46.71 47.09 46.53 46.17 45.94 45.79 46.26 48.35 49.51 49.57 50.70 51.88
42.87 33.75 29.96 24.83 27.46 32.39 31.41 34.75 36.02 33.71 29.54 27.49 30.66 32.63 37.31 39.88 40.79 42.36 43.27 43.66 43.10 43.94 44.83 44.11 42.86 42.78 44.00 45.20 45.32 45.32 44.78 45.17 46.05 46.28 45.51 45.13 45.22 45.47 45.42 46.01 46.89 47.98 49.55 49.45
36.02 29.87 32.93 33.65 35.25 35.93 34.93 34.92 34.67 31.35 31.99 28.64 31.12 32.91 36.39 37.62 38.83 40.68 40.90 41.85 42.12 42.70 43.95 43.47 42.70 42.07 42.28 42.49 43.12 44.00 43.95 44.63 45.23 45.20 44.87 44.37 44.94 45.39 45.73 46.37 46.99 47.56 48.33 49.31
35.19 29.26 32.31 32.11 36.11 35.64 33.48 35.45 35.60 34.93 35.26 34.44 34.54 33.93 38.85 40.44 39.66 38.83 39.38 40.60 40.67 41.27 42.52 43.10 43.45 43.63 43.09 42.43 42.92 43.77 43.73 43.92 44.13 43.52 43.94 45.21 44.98 45.37 45.40 45.67 45.62 46.01 46.58 46.90
33.72 31.60 28.80 26.71 33.39 32.45 27.77 32.16 33.67 34.47 36.50 35.76 32.29 36.09 39.95 40.41 40.80 38.98 38.09 40.24 41.76 41.39 41.68 41.41 41.51 41.40 41.13 41.18 42.62 41.56 42.58 42.82 42.42 42.72 44.21 45.10 45.29 45.31 45.16 45.36 45.33 45.09 44.88 45.11
32.54 30.31 28.38 26.24 27.96 21.77 31.60 38.81 40.99 38.63 40.52 40.53 39.94 40.09 40.43 40.27 41.98 41.23 43.46 39.02 39.74 40.38 40.60 40.09 39.77 39.22 39.38 39.91 39.70 40.17 41.60 42.38 42.88 42.81 43.14 43.94 43.97 43.68 44.24 44.26 44.11 44.25 44.89 45.17
36.61 33.23 31.52 24.96 22.63 29.35 33.71 39.68 38.07 34.93 35.08 41.50 40.00 41.55 42.68 41.07 39.51 39.45 41.62 40.21 39.38 39.48 39.90 39.57 39.39 39.13 38.68 38.12 40.32 41.27 41.84 42.52 42.36 42.18 42.28 42.63 42.42 41.21 41.64 41.65 41.00 41.32 42.06 43.92
37.27 38.64 33.87 31.01 26.03 23.46 31.64 41.50 44.13 41.07 30.56 41.73 41.26 40.56 40.48 37.44 32.26 35.09 40.19 40.82 40.36 40.82 40.02 39.36 38.90 38.78 38.24 39.61 39.90 39.64 40.73 40.78 40.42 41.79 42.11 41.88 40.48 41.70 40.63 39.97 42.07 41.92 41.86 44.28
29.28 31.04 31.25 31.50 29.25 31.31 37.97 42.33 44.76 28.80 29.06 39.86 41.47 40.73 38.66 35.56 36.97 38.14 39.39 39.34 39.62 39.38 39.08 38.97 38.29 36.94 37.76 39.73 40.13 39.41 39.54 39.97 41.44 40.84 40.85 40.49 39.64 39.41 39.48 39.45 39.57 39.07 40.04 41.23
30.07 31.22 30.89 32.53 30.15 27.22 43.23 41.67 35.15 36.49 39.16 40.87 41.10 40.01 37.98 38.16 38.20 38.50 39.20 38.86 39.22 38.42 38.15 37.87 37.25 39.12 40.22 40.25 38.92 37.91 38.34 39.24 39.01 39.28 39.13 37.79 37.93 38.53 39.20 38.18 38.41 38.81 39.89 41.61
28.08 31.88 27.68 30.43 29.63 39.67 43.72 43.00 42.96 42.42 40.47 39.67 39.62 39.65 38.79 37.49 37.80 38.50 37.94 38.25 38.00 37.29 36.96 38.60 38.52 38.45 38.44 38.18 38.35 37.72 37.24 37.68 37.54 36.82 35.85 35.95 36.26 37.06 37.52 36.71 36.59 36.68 37.58 37.73
34.07 38.90 33.91 35.78 36.94 39.54 42.07 44.40 43.74 42.60 42.39 44.18 41.95 39.12 38.58 37.05 37.83 37.56 37.23 37.47 36.62 37.16 37.66 38.28 37.51 36.24 35.81 37.19 37.58 36.77 37.16 36.74 35.67 34.81 34.21 34.97 34.83 34.67 35.84 36.86 37.14 36.71 37.22 37.19
32.48 33.51 32.97 33.37 36.24 38.67 40.66 42.63 42.58 43.12 43.55 42.19 40.15 39.06 38.88 37.92 37.52 37.11 37.24 36.54 36.54 37.12 37.49 37.31 35.79 35.53 35.44 36.53 35.84 35.36 35.96 35.42 33.97 33.73 33.62 33.03 33.81 34.33 34.99 36.18 36.62 37.25 38.36 38.97
32.94 31.41 28.97 28.27 35.89 37.18 37.70 42.30 43.41 41.30 40.77 40.08 38.80 38.41 38.42 38.03 37.52 37.59 36.21 36.05 36.51 36.22 36.43 35.54 35.41 34.78 35.15 34.92 34.52 34.28 34.84 34.56 32.97 31.60 32.37 32.93 33.39 33.81 34.71 34.91 35.54 37.84 37.63 38.25

GFSCGP_sfc_wetblb_120.txt.gz
Wetbulb
41.43 37.60 35.53 38.65 40.18 40.30 38.82 36.94 36.57 39.18 41.72 39.05 38.16 38.12 41.44 43.25 42.56 43.20 44.36 43.25 44.15 45.74 48.41 48.77 49.88 50.50 51.12 54.22 64.08 66.10 65.63 65.27 65.41 65.02 65.08 65.95 69.22 69.97 69.77 68.07 68.33 68.10 67.86 68.71
38.38 35.32 40.95 42.29 41.55 40.07 38.45 36.03 35.91 39.17 41.37 39.10 38.59 38.94 41.15 42.53 42.52 43.01 43.72 43.85 43.40 44.67 46.65 48.36 48.64 49.86 55.95 57.94 62.42 65.11 65.97 64.05 66.32 66.58 65.72 65.48 66.75 68.43 69.38 70.33 70.32 70.47 69.07 68.55
35.95 39.32 43.16 41.79 39.49 38.67 36.85 35.24 36.10 37.28 40.03 39.48 38.12 36.13 38.14 42.29 42.61 43.92 44.24 44.45 44.83 45.38 45.87 47.13 47.93 48.65 49.99 55.14 60.39 64.02 65.44 64.13 63.49 61.30 64.09 62.23 61.73 61.86 62.33 63.44 64.55 65.12 66.84 69.17
36.71 41.14 41.29 39.30 38.91 39.55 33.56 40.58 40.84 39.43 36.18 31.52 36.70 28.73 35.01 38.64 40.61 41.89 43.88 45.00 45.23 45.52 46.18 46.84 47.61 47.42 48.82 52.70 57.86 60.31 60.14 60.08 59.07 59.29 59.71 59.67 57.41 57.31 59.42 60.12 61.92 62.99 64.98 65.49
36.82 38.19 38.81 37.45 39.26 41.16 38.46 41.55 39.42 39.01 34.82 31.73 32.04 29.62 33.92 37.01 38.42 40.40 45.02 46.03 46.27 46.47 46.71 47.09 47.35 46.85 48.96 52.02 53.63 56.24 57.37 58.80 59.36 59.73 58.32 57.42 57.24 57.79 59.31 60.03 60.05 60.85 61.91 63.14
39.29 42.92 41.62 41.26 43.54 43.14 43.50 38.49 36.40 33.54 31.33 26.27 30.96 31.09 30.34 34.53 37.72 43.48 45.09 44.72 45.45 45.57 47.28 49.51 50.75 51.64 51.49 52.83 54.55 56.23 57.36 57.52 58.85 58.75 58.39 58.39 58.14 58.14 58.12 58.60 58.15 58.79 59.74 61.19
37.14 37.73 40.78 43.25 38.65 42.27 38.47 32.71 26.33 25.67 25.26 25.82 33.11 31.52 32.85 38.34 44.23 44.21 42.96 43.87 44.49 44.82 44.92 45.97 48.12 49.83 51.18 51.94 53.46 54.84 55.48 54.94 55.53 55.81 56.02 56.40 57.10 58.02 57.88 58.38 57.17 57.22 57.56 58.50
32.20 30.47 39.90 44.39 40.01 37.76 35.96 33.29 27.09 22.83 23.03 25.88 34.09 29.39 34.03 43.96 44.98 45.69 46.30 45.75 46.67 45.32 44.66 45.99 46.31 47.46 48.73 50.47 50.81 52.41 52.76 52.74 53.24 53.97 53.91 53.93 54.84 55.94 56.83 56.83 56.13 55.89 56.27 57.31
34.13 35.14 43.67 44.98 44.14 41.72 36.95 32.87 34.22 29.66 29.98 27.93 29.88 34.13 40.45 43.71 44.80 45.70 46.38 47.33 46.88 47.36 47.23 46.65 47.48 46.80 47.47 48.90 49.65 50.21 50.95 51.91 53.09 53.13 52.83 52.65 53.34 54.75 54.44 55.58 56.04 56.14 56.82 57.62
40.36 34.43 41.94 44.04 43.51 42.82 38.88 40.86 32.54 30.50 24.11 23.37 27.49 30.17 31.72 39.60 40.99 42.93 42.59 43.04 45.32 47.23 47.93 48.53 49.43 49.27 47.94 47.67 47.40 47.72 48.05 49.24 50.50 51.40 52.16 52.48 52.39 53.84 54.28 53.98 54.43 55.37 55.84 56.80
39.25 35.92 36.56 39.69 36.81 35.01 35.59 32.81 33.80 32.81 29.79 24.21 24.17 28.27 37.23 40.11 41.32 41.02 41.05 42.56 43.51 45.43 47.65 48.93 50.27 49.20 49.07 48.00 48.02 48.15 48.21 48.39 48.90 49.09 50.09 51.33 51.99 52.28 52.50 52.64 52.47 52.84 53.77 54.94
38.45 35.23 31.36 33.61 37.46 39.26 36.22 34.14 32.93 26.89 27.26 30.89 32.89 30.54 41.42 40.93 40.78 41.30 41.12 42.97 44.15 44.72 45.85 46.45 45.20 46.15 46.09 46.60 46.97 47.43 47.89 47.96 48.26 49.36 48.85 49.20 48.98 49.52 49.41 49.83 51.25 52.37 52.45 53.46
38.63 31.49 26.28 26.45 32.54 36.36 34.29 35.53 34.90 32.73 30.05 30.75 26.93 28.34 41.83 41.75 40.79 40.85 40.89 42.38 43.66 44.52 43.87 43.74 43.43 44.07 44.96 45.35 45.38 45.53 45.70 45.57 47.20 47.62 47.30 47.26 47.21 47.43 47.62 48.13 48.97 49.40 50.35 51.11
42.05 32.72 29.39 24.54 25.67 31.66 30.66 33.59 34.62 31.38 29.11 26.53 28.03 30.92 36.63 39.22 39.67 40.96 40.89 41.52 41.14 42.25 43.42 43.16 42.24 42.14 43.07 43.93 44.11 44.59 44.52 45.02 45.20 45.83 45.75 45.84 46.29 46.47 46.57 47.28 47.90 48.61 49.52 49.83
35.87 29.70 31.02 31.87 33.88 34.34 33.28 33.33 33.37 31.26 30.84 27.84 29.84 32.39 34.73 37.11 38.36 39.19 40.24 41.28 41.40 41.42 42.02 42.40 41.98 41.99 42.57 42.75 43.03 43.61 43.61 44.22 44.56 44.27 44.67 45.00 45.50 45.91 46.13 46.41 46.85 47.69 48.42 49.16
34.04 29.39 31.41 30.78 34.45 34.19 32.66 34.23 34.37 33.75 33.74 32.51 33.54 32.85 39.01 39.89 38.94 38.63 39.50 40.40 40.70 40.88 42.09 42.55 42.70 42.69 42.09 42.14 42.15 42.93 42.85 42.67 43.26 43.02 43.30 44.64 45.20 45.91 45.93 46.22 46.53 46.76 47.08 47.63
32.40 31.08 28.57 26.70 31.74 31.32 26.73 30.81 32.49 33.10 34.21 33.51 29.47 33.65 39.72 39.45 39.68 38.70 39.00 40.35 40.89 40.81 41.35 41.22 41.39 41.21 41.17 41.23 42.16 40.97 41.75 42.01 42.74 43.10 43.99 44.56 44.61 44.62 44.78 45.27 45.42 45.42 45.58 46.24
31.53 29.55 26.85 25.06 27.40 21.50 30.45 36.47 38.70 35.94 37.84 39.80 39.66 39.72 40.38 39.98 40.60 40.82 41.99 41.99 41.33 40.91 40.78 40.57 40.09 39.48 39.56 40.06 39.98 40.84 41.16 42.20 42.65 42.74 42.84 43.41 43.44 43.49 43.67 43.57 43.07 42.68 43.00 43.47
34.62 30.05 25.16 22.78 22.66 28.27 32.62 38.28 36.92 33.83 34.18 40.79 39.57 41.01 41.36 40.18 38.89 38.77 44.23 41.39 40.69 40.30 40.27 39.85 40.27 39.77 39.50 39.23 40.38 40.59 41.10 41.75 41.91 41.28 41.42 42.29 42.93 42.95 42.65 41.64 40.92 41.87 42.37 41.97
36.41 34.75 27.71 29.07 21.02 22.34 30.56 40.22 43.39 39.86 29.57 39.67 41.32 39.60 39.08 37.73 32.25 35.07 40.51 40.94 40.70 40.87 40.78 40.36 40.30 39.37 38.53 39.15 39.70 39.91 39.88 40.02 39.88 40.38 41.40 42.49 41.03 40.41 40.21 40.51 40.29 40.55 40.27 39.77
28.79 29.26 26.11 29.88 27.93 31.14 37.46 41.35 43.51 28.08 29.27 39.41 40.14 39.91 38.44 35.56 36.98 39.06 39.39 39.41 40.23 39.98 40.22 39.82 38.91 37.53 37.72 39.98 39.86 38.99 38.91 38.06 39.79 41.61 40.25 39.12 39.52 39.51 39.53 38.52 38.97 39.30 39.17 39.25
30.43 31.64 31.13 32.40 29.83 25.29 41.52 41.15 34.95 35.70 38.40 40.59 40.73 40.87 39.76 38.42 38.58 38.46 39.09 38.84 39.36 39.28 38.88 38.53 36.82 38.94 40.14 40.66 39.34 37.68 37.02 39.27 39.57 38.57 38.18 37.27 37.35 37.88 38.25 37.34 36.71 37.23 37.59 37.70
27.87 30.98 27.46 29.91 28.58 36.22 41.00 40.51 42.87 41.83 41.09 41.46 39.41 40.14 39.28 37.70 37.77 38.39 37.86 38.09 38.71 38.15 37.68 38.36 37.92 38.32 38.61 38.62 37.96 36.25 37.74 38.45 36.96 35.99 36.00 35.83 36.31 36.30 36.57 35.54 34.80 34.67 36.28 35.57
32.79 36.68 32.84 33.91 34.69 38.47 40.41 41.52 42.63 42.94 41.98 42.98 42.69 40.11 38.50 37.54 38.00 37.30 37.32 37.55 38.25 37.60 37.46 38.05 37.15 36.08 35.69 37.30 37.21 37.55 37.66 36.93 35.20 34.36 34.47 34.80 34.29 34.66 35.53 35.57 35.46 35.45 35.40 35.99
31.67 31.97 31.53 32.04 34.68 36.75 38.90 40.25 41.58 42.41 44.13 43.09 41.41 39.53 38.82 37.73 37.02 36.90 37.39 37.69 36.82 36.65 36.84 36.98 35.70 35.03 35.35 36.00 35.89 36.48 35.85 35.26 33.87 33.63 33.63 33.36 33.33 33.72 33.97 35.00 35.37 35.72 36.98 37.12
31.30 30.32 27.47 27.05 33.70 34.82 35.34 39.48 41.93 41.49 40.47 39.76 38.82 37.95 38.14 37.86 37.27 37.37 37.11 36.43 36.35 35.62 36.16 35.29 35.01 35.12 34.56 34.68 34.44 34.76 34.49 34.34 33.05 31.56 31.38 31.66 32.18 32.40 32.88 33.19 33.57 36.21 36.89 37.15

GFSCGP_sfc_wetblb_123.txt.gz
Wetbulb
44.70 42.16 40.50 43.49 44.36 44.22 43.41 41.73 41.08 42.99 45.63 44.81 44.79 45.25 48.43 48.84 49.55 50.68 51.36 51.18 51.82 52.23 54.80 55.90 56.98 58.29 59.45 60.36 63.54 69.59 71.32 72.85 72.52 71.53 70.69 71.18 70.84 71.78 72.11 72.82 73.69 73.66 73.58 73.58
42.57 41.03 45.15 46.07 45.21 43.94 42.89 41.45 41.21 43.29 44.97 44.84 44.95 44.95 47.77 49.07 49.40 49.88 50.34 51.30 52.47 54.42 55.77 56.65 57.03 57.62 58.65 61.24 62.05 66.05 70.81 72.28 71.97 71.97 72.25 71.98 71.85 72.51 73.06 73.89 73.87 73.56 72.77 73.02
41.53 43.68 46.04 44.76 43.13 42.60 42.45 41.51 41.45 41.40 43.42 44.75 43.61 43.16 44.96 47.56 48.10 49.25 51.11 53.40 54.50 54.17 54.65 56.24 57.14 57.63 58.17 60.04 64.55 65.67 69.00 71.58 71.69 72.44 71.47 69.90 70.69 70.90 71.57 72.86 73.33 73.06 72.74 73.00
44.16 45.40 44.32 43.58 42.45 43.74 39.86 44.51 43.85 42.83 41.58 38.50 42.91 37.15 42.75 45.88 47.37 48.04 52.49 53.13 53.28 54.12 55.51 57.01 57.83 58.70 57.86 57.27 58.93 64.42 68.35 69.93 69.83 70.47 70.70 70.59 69.59 68.15 69.69 69.68 70.09 68.45 69.60 69.38
41.77 43.29 42.70 41.97 42.93 44.87 42.62 45.29 44.17 43.21 41.27 40.57 39.86 39.29 42.35 43.12 44.78 48.61 50.52 51.45 53.03 54.31 55.69 56.93 57.88 58.25 59.14 59.63 59.97 62.61 65.64 67.45 67.49 68.22 70.05 69.47 68.04 68.31 66.51 66.66 67.42 67.87 68.55 68.86
44.48 47.23 46.49 45.67 45.67 45.92 46.04 43.58 42.20 41.27 40.74 36.31 40.33 39.95 40.30 42.70 45.39 49.24 49.69 51.01 51.93 53.51 55.36 56.41 57.96 59.76 60.55 61.76 62.50 64.18 65.50 65.28 66.16 66.40 66.63 67.37 66.59 65.71 65.12 65.48 65.16 65.12 65.96 66.85
42.74 43.84 46.26 47.01 44.92 46.78 44.39 42.41 36.79 35.03 35.33 34.65 39.19 38.26 41.92 44.36 47.49 48.56 49.44 50.83 52.41 53.62 54.59 55.64 56.11 56.67 57.76 59.24 61.54 63.73 64.39 63.80 65.14 65.52 65.73 66.16 66.96 67.08 66.74 66.10 64.90 65.00 64.36 64.56
38.24 36.21 44.23 47.72 45.22 43.58 44.00 43.12 37.27 29.89 32.01 35.88 39.49 37.31 42.12 48.04 49.64 50.72 51.77 52.89 54.43 55.18 55.44 55.39 55.37 56.35 56.97 57.81 58.59 59.51 60.43 60.29 61.26 61.67 61.83 62.43 63.36 64.28 64.62 65.75 64.62 64.00 63.63 64.05
39.04 38.99 46.50 46.96 47.97 47.37 42.95 41.06 42.40 38.16 37.76 36.70 39.61 41.14 46.52 49.03 49.06 49.55 49.37 50.35 51.44 53.16 54.40 55.78 57.19 56.86 56.75 56.92 57.26 57.97 58.70 59.04 58.99 59.58 60.87 61.12 61.53 61.31 62.61 63.83 64.16 63.35 64.41 63.32
43.76 38.85 44.52 46.01 47.54 47.33 46.12 46.08 40.17 41.27 32.38 30.62 36.39 37.91 40.99 45.09 46.69 47.66 48.24 48.82 50.11 52.05 53.32 54.47 55.85 57.34 57.71 56.30 56.22 56.75 56.81 56.32 56.85 57.69 58.22 58.61 59.35 59.84 60.23 60.97 61.30 62.55 63.09 62.97
45.59 42.92 41.12 44.57 42.28 42.08 43.28 42.59 41.61 42.29 40.48 34.69 33.00 37.95 45.43 47.99 48.40 47.34 47.93 48.88 49.79 51.39 52.58 53.59 54.26 54.79 54.37 54.57 54.09 53.87 53.79 53.95 53.95 54.43 55.30 55.66 56.09 56.87 58.34 58.86 59.48 59.64 60.17 60.32
44.67 42.91 38.82 38.86 42.35 43.98 43.34 41.89 42.91 39.18 36.26 39.09 38.17 38.62 47.75 49.43 48.58 48.07 47.68 48.67 50.52 51.93 52.16 51.87 52.20 52.83 52.68 52.29 52.38 52.50 52.74 52.43 52.68 53.22 53.61 54.19 54.71 54.84 54.93 55.47 56.43 57.31 57.52 58.11
45.34 40.40 35.24 35.60 40.05 42.47 40.66 41.56 41.45 41.27 40.52 37.89 35.47 38.41 47.35 48.32 48.96 48.37 47.98 48.50 49.29 50.18 50.46 50.33 50.41 50.20 50.56 50.95 51.05 51.36 51.87 51.73 52.09 51.96 51.88 52.45 53.01 53.31 53.84 54.48 55.16 55.25 55.05 55.08
46.76 39.71 38.53 36.02 35.29 40.06 37.57 39.29 40.78 39.81 35.76 36.03 37.04 39.32 43.05 46.04 47.27 48.61 48.18 48.71 48.18 48.09 48.32 49.17 49.54 49.83 50.29 50.56 50.71 50.81 50.97 51.09 51.06 50.74 50.82 50.99 51.67 52.06 52.35 52.96 53.32 53.41 53.73 53.37
44.50 38.58 38.71 37.62 38.32 38.48 37.69 37.68 38.79 37.42 38.83 34.78 37.83 37.36 41.30 44.07 45.43 46.61 47.73 47.60 46.66 46.92 47.41 47.94 48.64 49.33 49.93 50.15 50.39 50.38 50.22 50.15 50.36 49.55 49.54 50.03 50.72 51.07 51.07 50.93 51.26 51.48 51.80 52.02
42.03 37.70 38.59 36.35 37.95 37.75 36.24 38.64 38.78 38.51 38.54 38.39 38.62 38.18 45.28 46.74 47.09 45.94 46.04 45.67 45.73 46.41 46.99 47.57 48.55 48.88 48.99 49.18 49.10 49.13 49.12 49.30 49.43 48.70 48.46 49.56 49.62 49.58 49.47 49.61 49.84 50.17 50.31 50.57
41.23 39.81 37.60 33.33 36.25 36.00 32.87 37.21 38.43 38.79 40.17 39.86 36.45 41.64 45.60 45.58 45.31 45.97 46.47 46.65 47.13 47.32 47.00 47.50 48.12 48.44 48.91 48.87 48.72 47.94 48.23 48.44 48.18 48.03 48.16 48.10 48.25 47.62 47.73 48.50 48.64 48.82 48.86 49.36
40.67 40.01 38.45 33.83 34.52 26.23 37.02 41.50 41.22 39.77 41.19 42.59 42.44 44.13 46.36 46.63 47.20 47.55 48.29 47.31 47.28 47.43 47.57 48.10 48.64 48.82 49.21 49.19 48.56 48.62 48.09 47.82 47.35 46.84 46.59 46.83 46.57 46.32 47.14 47.57 47.10 47.08 46.88 45.66
42.82 40.37 35.15 32.74 31.49 35.18 37.37 41.23 40.94 40.19 40.06 45.23 45.17 46.16 46.32 46.73 45.94 46.87 48.08 48.37 47.96 48.06 48.23 48.56 49.11 48.74 48.64 48.10 48.10 47.09 46.77 46.73 46.04 45.04 45.07 45.33 45.49 45.25 45.48 44.24 43.83 44.21 44.14 43.65
41.22 42.14 38.45 32.19 29.07 27.02 37.11 42.94 46.23 44.62 36.10 45.13 45.39 45.26 45.08 45.03 41.12 44.67 47.87 47.96 47.90 48.50 48.86 48.04 48.04 47.82 47.40 47.31 47.26 45.80 45.08 44.73 43.66 43.81 43.55 43.99 43.80 42.38 42.12 39.83 39.82 40.99 40.68 39.51
36.34 37.28 34.34 32.34 32.18 35.79 41.60 43.78 46.46 34.00 37.04 45.05 45.64 46.24 45.96 44.01 45.88 47.54 48.05 47.51 48.05 47.82 47.47 47.49 46.97 45.89 46.10 46.48 45.42 43.45 43.34 42.43 43.36 43.05 42.41 42.33 41.18 38.83 39.34 38.70 39.26 38.88 38.34 38.52
35.24 34.04 33.35 34.68 30.97 28.95 44.54 43.78 38.93 43.57 46.01 46.03 46.35 46.86 45.70 46.30 46.81 46.97 46.78 46.77 46.63 46.11 45.97 46.37 45.06 44.72 45.15 44.83 43.18 41.44 40.81 42.67 41.98 41.39 40.45 38.73 37.25 38.20 38.68 37.41 37.36 37.57 37.44 36.57
36.26 39.99 37.65 38.37 38.00 43.00 46.10 45.42 47.57 47.71 45.71 46.29 46.53 47.39 46.57 45.43 45.44 45.58 45.28 45.37 45.30 45.15 45.19 45.15 43.62 42.91 43.22 42.86 41.94 39.82 40.79 40.20 40.26 38.72 36.00 36.24 36.65 36.85 36.98 36.76 36.30 35.63 36.24 35.22
39.69 41.63 40.48 39.46 41.05 42.84 45.19 46.88 47.68 47.78 46.93 48.08 48.05 47.14 46.01 44.34 44.84 44.25 44.46 44.19 44.03 44.53 43.53 43.22 41.79 40.53 40.06 41.10 40.47 38.68 38.94 38.89 37.39 34.52 34.34 35.01 34.66 34.85 35.89 36.21 36.08 35.65 35.32 34.84
39.53 41.34 39.65 39.24 40.89 42.00 43.07 44.71 45.76 46.50 47.33 46.03 44.99 44.68 44.09 43.87 43.58 43.36 42.98 43.31 43.43 42.89 42.10 41.51 39.73 38.88 38.53 37.80 37.28 37.89 37.42 36.56 33.82 33.46 33.42 33.22 33.39 33.15 33.72 34.53 34.82 35.33 36.42 36.74
39.08 38.10 36.74 36.56 39.92 40.60 42.33 45.23 46.62 45.85 44.48 44.47 43.80 43.50 43.98 43.46 42.77 43.34 42.73 43.12 41.84 40.33 40.24 39.00 38.62 37.18 36.23 35.99 35.72 36.04 34.98 34.49 32.52 31.34 31.03 31.15 31.69 31.92 32.76 33.24 33.21 35.96 35.96 36.12

GFSCGP_sfc_wetblb_126.txt.gz
Wetbulb
47.02 43.83 42.39 45.52 48.22 47.19 45.75 43.57 42.10 44.49 47.34 46.45 46.20 46.05 49.49 52.51 52.68 52.89 53.87 54.48 55.61 56.98 58.43 58.74 60.36 61.81 62.91 64.55 66.58 68.03 70.92 74.69 75.47 74.55 74.36 74.40 74.40 75.24 75.29 75.22 75.80 76.00 76.30 76.53
44.44 41.63 46.35 47.73 48.48 46.77 45.54 43.23 42.80 46.10 47.45 48.13 46.49 46.10 49.34 51.71 51.90 53.01 53.66 54.63 56.90 58.37 59.91 61.42 62.10 62.03 62.42 64.77 65.94 66.62 69.59 73.25 75.22 74.23 74.58 74.51 75.20 75.53 75.55 74.74 75.46 76.38 76.36 76.53
42.90 44.73 47.78 46.99 46.26 45.53 45.28 43.98 44.01 43.88 46.71 47.95 46.18 44.63 47.80 49.92 52.47 53.13 55.82 57.18 58.00 58.65 59.86 61.79 62.82 63.80 63.85 63.22 64.73 67.47 68.54 71.92 74.87 74.87 74.96 75.12 75.46 75.40 74.07 74.45 75.15 75.82 76.40 76.28
44.80 47.88 47.28 46.67 45.48 46.71 43.73 46.74 45.95 45.24 43.35 40.15 47.41 40.25 47.00 48.89 49.65 51.67 54.80 55.76 57.67 59.16 61.27 62.51 63.34 63.60 63.89 63.96 63.63 63.34 68.33 71.61 73.11 74.75 74.44 74.37 72.66 72.32 73.40 74.61 75.47 74.93 74.83 74.34
44.94 46.22 46.25 45.44 46.18 47.74 44.83 47.14 45.58 46.03 45.24 44.66 43.79 41.10 45.90 49.08 47.25 50.89 53.85 55.79 57.96 59.48 60.55 61.63 62.93 63.97 65.12 66.07 65.73 66.11 67.18 69.94 71.92 73.17 73.94 73.23 73.09 73.06 73.39 73.14 72.83 72.70 71.74 70.99
47.19 50.07 48.56 47.87 48.19 48.23 48.40 46.82 46.57 46.58 45.75 40.06 43.83 42.80 43.54 46.10 47.43 52.33 54.04 55.55 56.76 58.22 59.45 60.61 62.58 63.91 64.71 66.84 68.38 68.71 68.87 69.51 70.38 71.69 73.00 73.53 72.96 72.34 70.88 70.25 69.24 68.44 68.38 69.16
45.52 46.29 48.88 49.53 46.51 48.37 48.09 45.86 39.88 37.85 38.91 38.50 45.22 42.73 44.83 50.55 51.98 52.77 53.45 54.48 56.15 57.57 58.38 58.83 59.64 60.67 62.35 64.01 65.71 66.97 67.95 67.81 68.71 68.94 69.32 70.05 70.73 70.41 69.68 68.75 66.57 66.51 65.22 65.48
41.09 39.54 46.49 49.29 48.14 46.13 46.57 46.16 40.84 34.65 36.92 39.95 44.45 40.07 46.37 51.66 53.35 54.49 55.19 56.13 56.86 57.16 58.37 58.67 58.78 59.44 59.84 60.68 61.88 62.75 63.39 63.84 64.83 65.29 65.72 66.57 66.37 66.27 66.76 66.49 66.08 64.33 63.96 64.70
41.94 42.09 48.69 49.60 49.77 49.49 46.68 43.75 47.79 42.29 43.21 39.97 42.64 45.61 49.74 51.62 51.84 53.07 53.05 53.79 54.22 55.46 56.07 57.65 59.14 59.31 59.67 60.58 61.64 62.00 62.58 62.47 62.62 63.25 64.00 64.76 65.06 65.44 65.14 66.61 67.46 64.95 66.84 65.22
46.79 41.99 47.26 48.65 50.82 50.21 49.13 49.77 42.39 43.46 35.44 34.88 40.24 41.72 44.91 48.61 50.31 51.75 51.91 52.30 53.39 55.12 56.05 57.20 58.32 59.53 60.15 60.18 60.56 60.65 60.93 60.33 60.42 60.96 61.09 61.02 61.89 62.00 63.19 63.82 63.54 64.33 65.67 66.28
49.19 46.81 45.08 48.30 46.18 46.00 46.67 45.41 45.93 46.59 44.59 38.36 37.21 43.27 50.00 50.79 52.34 51.87 52.53 52.79 53.90 54.62 55.39 56.03 56.90 58.31 58.51 58.79 58.51 58.61 58.58 58.18 58.34 58.56 58.93 59.27 59.30 59.38 59.85 60.13 61.17 62.37 63.61 63.82
49.51 47.25 42.60 43.62 47.51 48.60 48.41 47.15 47.02 42.39 39.73 42.88 42.12 42.29 51.91 52.77 54.05 53.54 52.83 53.30 53.89 54.92 55.12 55.30 55.51 55.99 56.06 55.75 55.99 56.33 56.86 56.63 56.84 57.06 57.18 57.52 58.16 58.48 58.72 59.17 59.55 59.92 59.65 60.38
49.40 44.65 38.85 40.24 44.24 46.46 45.28 46.57 47.16 46.58 46.86 41.90 39.21 42.82 51.23 52.65 52.44 53.50 53.11 53.60 53.07 53.05 53.53 54.71 55.67 55.06 55.19 54.99 55.12 55.38 55.86 55.99 56.20 55.98 55.89 56.54 56.67 57.03 57.13 57.54 57.92 58.30 58.30 58.31
51.61 47.04 43.14 37.69 40.79 46.05 42.59 44.35 46.13 46.05 41.90 41.76 42.44 44.36 47.86 49.51 49.67 51.05 51.94 52.30 52.32 52.51 51.64 53.98 55.36 55.06 54.62 54.54 54.95 55.12 55.29 55.39 55.28 54.96 54.91 55.03 55.67 55.97 56.02 56.20 56.27 56.37 56.31 55.86
50.03 43.65 44.72 43.15 42.86 42.90 42.61 42.40 43.18 41.95 43.50 39.56 42.19 41.86 45.02 47.12 47.84 49.67 51.34 51.52 51.33 51.57 51.73 52.92 52.93 53.54 54.25 54.61 54.60 54.61 54.37 54.54 54.74 53.73 53.51 53.90 54.73 54.98 54.86 54.67 54.87 55.07 54.91 54.72
48.18 42.97 43.79 40.58 41.32 41.40 39.82 41.98 42.19 42.28 42.44 42.14 42.70 42.13 47.62 49.09 50.56 49.90 50.96 50.60 50.11 50.52 51.01 51.92 52.59 53.07 53.29 53.51 53.58 53.55 53.61 53.74 53.91 52.85 52.54 53.12 53.19 53.24 53.19 53.24 53.20 53.43 53.19 53.55
46.52 44.56 41.46 37.54 40.45 39.73 36.58 41.01 42.01 42.78 43.82 43.09 39.92 44.64 48.56 47.82 49.03 49.59 50.19 50.63 50.56 51.28 51.93 52.04 52.56 52.84 53.33 53.59 53.78 53.01 53.26 53.50 52.58 51.86 51.95 51.84 51.98 51.25 51.42 51.87 51.62 51.88 52.30 53.30
45.92 44.93 43.20 39.83 38.56 30.49 41.24 45.39 44.29 42.76 43.87 45.85 45.99 47.05 48.11 49.56 50.95 51.33 52.08 51.37 50.98 51.28 51.58 52.45 52.97 53.23 53.65 53.70 53.41 53.43 52.86 51.88 51.23 50.84 50.77 50.82 50.49 49.84 50.23 50.44 50.67 51.23 50.30 48.92
48.65 45.09 39.70 36.35 36.01 39.62 41.30 43.82 43.41 42.61 43.29 47.61 47.07 48.19 49.21 50.06 50.46 50.29 52.24 51.84 51.70 51.99 52.37 52.61 53.26 52.98 52.86 52.46 52.68 51.89 51.08 50.80 49.83 49.35 49.38 49.42 49.39 48.75 48.88 48.77 47.19 46.91 46.62 44.13
46.09 46.22 41.54 39.14 31.58 31.40 42.06 45.88 48.54 47.54 39.02 47.98 47.96 47.67 47.62 47.20 43.10 46.17 50.87 52.44 52.19 52.62 52.76 52.20 52.51 52.22 52.00 52.03 51.93 50.19 49.26 48.67 48.07 48.15 48.16 48.56 48.30 46.84 45.00 44.90 44.40 40.40 40.57 40.13
40.39 41.30 37.82 37.04 35.69 39.55 45.47 46.77 48.43 36.79 40.43 48.04 48.35 48.59 48.51 46.90 48.18 49.67 52.40 51.95 52.36 52.11 51.99 52.23 51.42 50.84 51.11 51.37 50.05 48.27 47.80 46.94 47.81 48.22 47.48 46.11 44.81 43.22 43.10 39.25 38.81 39.85 39.79 39.46
39.31 38.45 37.14 36.95 32.51 31.47 47.73 46.38 40.92 47.15 49.45 48.99 49.02 49.50 48.88 49.87 50.24 49.41 50.34 50.91 50.98 50.54 50.62 50.85 49.98 49.86 50.10 49.40 48.28 46.73 45.88 47.46 46.99 44.58 42.50 41.89 41.63 38.42 38.48 38.05 38.24 38.24 38.44 38.60
40.42 44.02 41.54 41.73 42.06 47.79 48.89 48.48 49.97 49.63 48.13 48.61 48.78 49.93 50.09 48.97 49.20 49.36 49.48 49.88 49.80 49.66 49.89 50.23 48.98 47.77 48.02 47.98 47.17 45.19 45.49 43.47 41.51 40.46 39.84 37.69 37.12 36.76 37.07 36.40 36.04 35.76 37.10 36.86
44.49 46.45 44.26 42.33 45.48 46.20 47.83 49.28 49.18 49.43 48.86 49.71 50.37 49.96 49.40 48.24 48.69 48.36 48.57 48.46 48.53 48.90 48.45 48.22 46.69 45.73 45.16 46.35 45.54 42.85 41.19 40.45 39.27 36.73 35.58 35.36 35.23 35.21 35.88 35.70 35.53 35.46 35.69 35.47
44.70 45.71 43.36 42.72 45.31 44.93 45.92 47.08 47.96 48.59 49.69 49.38 49.36 48.92 48.12 47.70 47.17 47.45 47.12 47.36 47.22 47.14 46.71 46.14 44.72 44.40 43.90 43.47 40.74 40.18 39.63 37.61 34.62 34.17 34.29 34.53 34.31 33.98 34.07 34.26 35.06 35.69 37.07 36.59
44.39 42.44 41.69 42.18 44.84 45.54 45.69 48.43 48.82 47.96 47.49 47.36 46.61 46.91 47.58 47.28 46.28 46.27 45.53 45.80 45.39 44.81 44.40 44.05 43.86 41.67 39.33 38.92 37.93 38.44 35.20 34.18 33.12 32.38 32.42 32.37 32.66 33.02 33.40 33.61 34.47 36.68 36.19 36.40

GFSCGP_sfc_wetblb_129.txt.gz
Wetbulb
48.63 45.24 43.92 46.61 48.43 48.49 47.88 46.81 45.70 47.83 49.97 47.92 45.79 46.68 50.58 52.95 53.35 53.47 54.93 57.08 59.24 59.67 59.67 60.65 61.73 63.32 64.47 66.33 68.13 71.15 71.93 78.05 75.94 73.49 73.45 74.30 73.83 75.35 75.94 76.64 78.21 77.27 76.48 76.26
45.81 43.06 47.67 48.82 48.80 47.72 47.36 45.95 45.70 47.56 49.02 48.49 46.54 45.45 48.35 50.85 52.53 53.58 53.64 55.24 56.80 57.06 59.37 61.92 62.96 63.44 64.06 65.44 67.54 69.90 71.18 75.48 76.70 74.22 76.08 74.60 74.41 74.00 75.25 76.44 77.32 76.98 76.43 77.03
43.94 45.76 48.27 47.30 46.94 46.91 47.21 45.93 46.04 45.66 48.29 48.99 47.11 44.22 46.50 50.21 52.49 53.79 54.25 56.57 58.23 58.56 59.41 62.06 63.36 65.15 64.60 65.16 66.69 68.70 69.65 73.54 76.43 77.25 75.91 75.72 75.67 75.92 75.03 75.50 75.32 76.01 76.43 76.90
46.02 48.38 46.39 46.19 45.90 47.79 44.92 48.40 47.67 46.53 45.93 41.90 47.26 37.77 45.41 48.06 49.34 51.44 53.77 56.30 57.21 58.75 60.51 62.11 63.35 65.14 65.71 66.10 66.20 65.40 69.28 71.37 73.05 76.27 75.47 78.11 73.74 72.06 73.00 74.60 74.65 75.84 76.63 76.52
44.91 46.09 45.68 45.43 46.22 48.45 46.46 49.54 47.84 47.46 46.20 45.37 44.61 40.42 43.73 49.00 46.92 49.59 52.53 55.61 57.93 59.47 60.58 61.75 63.52 65.05 66.65 68.32 68.29 68.84 68.62 70.93 73.31 74.25 75.04 74.13 74.44 72.86 73.39 73.78 77.82 77.60 76.68 76.04
47.50 50.16 49.38 48.92 49.70 49.65 50.31 47.64 48.01 47.43 46.10 40.27 44.05 42.86 42.16 46.11 49.07 50.77 53.85 55.64 56.69 58.46 60.03 61.33 63.61 64.98 66.07 68.48 69.73 69.92 70.32 70.94 71.13 71.67 72.93 73.72 73.80 74.20 73.59 74.10 73.65 73.94 72.84 72.53
47.07 47.34 49.81 50.69 47.85 49.87 48.67 46.48 40.76 39.31 39.29 39.24 46.90 44.20 45.44 50.55 50.65 54.38 54.94 55.99 57.06 57.72 58.25 59.04 60.54 61.86 63.83 65.29 66.53 67.76 68.68 68.78 70.07 70.61 71.08 71.44 72.86 72.71 72.92 71.46 71.47 71.90 69.59 68.91
42.72 41.01 47.08 49.34 48.13 46.50 46.74 46.86 42.04 36.25 37.71 40.28 46.55 41.93 46.76 53.61 55.20 55.27 56.48 56.77 57.95 58.09 59.39 59.34 59.73 60.80 60.88 62.29 63.36 63.78 64.29 64.53 65.59 66.07 66.46 67.46 68.12 67.69 68.24 68.96 67.55 66.57 66.04 67.00
43.26 43.34 49.42 50.06 50.77 50.44 47.04 44.48 49.35 44.80 46.00 42.66 43.87 48.47 51.96 53.28 53.58 54.70 55.72 56.82 56.77 57.35 58.06 59.47 60.41 60.28 61.33 62.04 62.64 63.15 63.52 63.74 63.87 64.25 65.34 65.76 66.26 66.65 66.27 67.96 68.50 65.11 69.92 65.86
48.11 42.12 48.34 49.43 50.81 50.71 49.87 50.74 44.22 45.12 38.12 37.07 41.82 44.02 44.21 49.86 51.40 53.64 54.18 54.97 55.88 56.76 57.39 58.51 60.12 60.52 61.84 61.63 61.98 62.12 62.02 61.77 62.07 62.47 62.63 62.58 63.03 63.02 63.16 64.80 65.09 65.51 66.10 66.42
50.38 47.65 45.77 48.96 47.11 46.46 47.35 47.55 47.61 47.59 44.95 39.14 38.26 42.08 52.48 51.32 53.72 53.53 54.48 55.61 55.89 56.30 56.78 57.87 59.09 59.26 60.24 60.79 60.20 60.34 60.32 60.10 60.11 60.51 60.85 61.16 61.20 61.69 62.01 62.06 62.27 62.86 63.72 63.93
50.94 47.90 43.67 45.80 50.38 51.21 51.08 47.23 48.18 43.80 41.88 45.52 44.42 42.99 53.27 53.90 55.22 55.50 54.70 55.43 55.96 56.24 56.81 57.48 57.82 57.98 58.12 58.72 58.01 59.00 58.84 58.81 58.93 59.34 59.12 59.31 59.81 60.22 60.54 60.58 61.08 61.78 61.49 61.80
50.85 47.25 41.74 42.12 47.26 49.83 47.73 49.57 49.51 49.15 48.05 43.93 40.68 43.78 53.20 54.26 54.64 55.23 54.86 54.95 55.45 55.19 56.01 56.60 56.81 57.36 57.48 57.76 57.97 57.68 57.83 58.02 58.37 58.10 58.01 58.71 58.84 59.09 59.45 59.60 59.98 59.72 59.39 59.34
53.25 47.06 45.29 40.59 42.70 46.55 44.58 46.30 48.15 47.48 44.06 43.25 43.83 45.13 50.12 51.59 51.70 53.28 53.87 54.66 54.86 54.06 54.70 55.04 55.55 56.02 56.73 57.10 56.82 57.20 57.38 57.92 57.66 57.23 57.23 57.18 57.47 57.65 57.66 58.07 58.08 57.84 57.77 57.22
50.42 44.18 46.10 44.65 45.97 45.88 46.26 45.93 46.68 45.51 46.68 43.91 45.33 44.97 47.98 50.05 49.81 50.39 51.82 52.83 52.82 52.89 53.85 54.38 54.78 55.67 56.22 56.73 56.97 57.00 57.10 57.00 57.06 56.20 55.86 55.99 56.47 56.76 56.42 56.20 56.59 57.07 57.23 56.18
51.59 43.90 45.96 42.96 45.03 45.00 43.22 44.89 45.18 45.51 45.57 45.30 45.55 44.84 49.47 50.04 50.57 50.77 52.02 52.31 51.95 52.39 53.10 53.97 54.75 55.32 55.55 55.93 56.06 56.37 56.15 56.24 56.56 55.64 54.99 55.39 55.23 55.11 55.19 56.14 56.24 56.70 55.38 55.79
48.29 45.77 44.14 40.79 44.24 42.70 39.10 43.30 44.15 44.86 45.88 45.15 42.08 46.27 50.27 49.63 49.98 51.23 51.88 52.33 52.28 52.84 53.56 54.39 54.86 55.19 55.54 55.67 56.18 55.47 55.59 55.67 54.99 54.40 54.13 53.88 53.88 53.33 53.37 53.59 53.27 54.47 55.49 56.31
48.37 46.60 44.88 41.42 41.79 32.40 43.95 47.62 46.47 44.80 46.28 46.83 46.87 47.97 49.47 49.99 52.02 52.75 53.64 53.11 52.90 52.97 53.24 53.97 54.72 55.03 55.46 55.86 55.40 55.31 54.93 54.32 53.75 53.16 52.63 52.53 52.35 51.84 52.04 52.06 52.00 54.11 53.69 52.94
50.47 47.72 43.49 39.14 38.39 41.83 43.57 45.03 45.45 44.26 44.81 48.52 48.77 49.44 50.31 52.09 52.15 51.63 54.13 54.23 53.65 53.47 53.24 53.64 54.37 54.83 55.26 54.69 54.76 54.30 53.66 53.35 52.26 51.36 51.27 51.21 51.10 50.64 50.45 50.19 50.26 49.76 48.08 47.62
48.24 49.50 44.39 40.74 36.19 34.39 45.19 48.16 49.79 48.38 41.73 50.18 49.71 49.01 49.37 49.90 44.65 49.06 52.45 54.18 53.58 53.11 53.49 53.19 54.53 54.60 54.10 54.23 54.44 52.98 51.91 51.18 50.35 50.33 50.25 50.55 50.50 49.53 47.95 46.53 45.91 46.05 44.41 42.00
42.46 43.47 40.16 39.76 38.82 42.51 48.76 48.80 49.35 38.61 41.40 49.30 50.02 49.62 49.47 47.89 49.06 51.83 53.02 52.62 52.05 52.50 53.07 54.05 54.02 53.10 53.39 54.03 53.24 50.86 50.21 49.42 50.11 50.05 49.64 48.35 46.96 44.69 44.31 44.03 42.18 39.29 39.01 38.72
41.66 40.69 40.34 41.79 36.67 33.91 50.48 47.93 42.53 47.86 49.92 50.18 49.74 49.85 49.37 50.75 51.29 51.24 51.18 50.05 50.42 50.29 52.22 52.87 52.12 52.24 52.94 52.49 50.91 49.22 48.42 49.70 49.16 46.31 44.20 43.25 43.12 42.40 39.52 37.88 37.52 37.80 37.37 36.80
41.45 45.55 43.07 43.63 44.12 50.82 50.68 50.73 51.57 50.47 49.35 49.56 50.05 50.54 49.41 48.35 48.16 48.76 49.99 49.93 50.99 51.47 51.59 52.05 51.35 50.88 50.90 50.36 49.62 47.84 48.24 46.50 43.21 41.82 40.76 40.47 38.19 37.14 37.26 37.49 37.07 36.24 36.42 35.83
47.57 49.95 46.88 45.13 48.18 48.23 49.26 50.56 50.39 50.31 49.91 50.74 49.49 49.10 50.03 49.00 49.94 49.74 50.06 50.45 50.37 50.34 49.72 49.92 49.09 48.17 47.67 48.74 48.37 46.49 43.66 42.35 40.22 38.57 37.88 35.23 35.27 37.13 37.07 36.83 36.48 35.71 34.83 34.96
47.39 48.25 45.69 45.36 48.10 47.85 47.51 49.13 49.86 49.89 50.37 49.07 50.21 50.29 49.41 49.33 48.74 48.92 48.21 47.84 47.59 47.51 47.75 47.84 46.78 46.49 46.29 45.18 43.55 41.90 40.82 38.26 36.83 33.41 33.77 35.31 34.82 34.09 34.57 35.34 35.67 35.31 35.99 36.25
47.78 44.98 44.78 43.93 48.15 47.93 47.20 49.04 49.95 48.29 47.94 48.83 48.14 47.53 48.35 47.55 46.17 46.22 45.79 46.57 46.53 46.08 46.12 45.67 43.97 42.30 40.90 39.61 39.11 39.04 37.90 34.91 32.63 33.29 33.11 32.66 32.35 32.51 33.37 34.25 34.82 36.66 36.74 36.92

GFSCGP_sfc_wetblb_132.txt.gz
Wetbulb
48.83 44.53 42.92 45.01 46.27 46.29 48.91 48.14 47.85 51.37 52.41 50.05 48.90 50.29 52.73 56.40 56.01 54.53 55.27 55.25 57.25 59.02 60.48 63.70 65.16 66.31 66.70 68.98 69.71 72.61 73.85 75.80 77.44 75.87 75.36 74.96 74.22 75.70 75.51 76.29 78.15 75.84 75.57 76.23
45.13 41.81 46.35 47.38 47.13 46.13 47.16 47.06 46.16 48.99 52.13 48.78 47.94 47.16 49.77 51.60 53.18 56.41 54.96 55.29 56.32 57.51 58.66 63.26 65.00 66.80 67.78 68.49 70.23 72.32 72.68 74.89 77.38 76.27 76.02 75.95 74.94 73.89 74.86 75.19 76.03 77.02 74.76 74.68
42.71 44.71 47.74 46.40 45.71 46.08 45.65 44.58 45.67 45.27 48.00 48.70 47.48 45.60 47.61 50.24 51.52 56.13 56.76 56.31 57.33 58.94 58.97 62.72 64.16 66.47 67.51 68.11 69.18 70.58 73.21 74.29 75.07 76.96 76.98 77.69 76.99 76.79 75.71 75.39 76.26 75.27 74.48 74.52
44.89 47.32 45.79 45.63 45.05 46.29 43.18 47.43 46.87 46.47 45.50 40.78 47.33 38.69 46.47 48.92 49.39 53.53 55.16 55.33 56.63 58.29 60.57 63.05 66.57 66.86 68.80 68.38 69.42 69.51 70.20 73.88 72.87 76.96 75.25 76.94 73.68 71.33 73.80 73.35 74.83 75.13 75.96 75.76
43.68 45.12 44.47 44.21 45.20 47.43 45.14 48.37 47.27 46.94 45.31 44.46 44.67 41.10 45.01 49.39 47.18 49.38 52.94 54.85 56.99 59.12 60.21 61.34 62.89 65.99 68.00 69.33 69.84 70.81 72.29 73.41 74.90 76.89 77.19 74.99 74.42 74.54 74.85 73.87 77.41 75.85 76.44 76.70
45.96 49.32 47.67 46.35 47.78 48.02 49.12 47.78 47.18 46.78 45.39 39.25 43.69 42.55 42.73 46.07 48.40 50.16 52.15 55.85 57.26 58.20 60.01 61.43 63.73 65.64 66.15 68.45 69.49 70.57 71.29 72.35 73.09 73.14 74.35 74.19 73.79 73.51 73.26 72.47 71.85 73.55 74.57 74.31
44.88 45.70 48.15 48.83 45.95 48.13 47.78 45.88 38.89 37.20 37.57 36.88 45.43 43.04 45.43 50.49 51.40 51.53 52.29 55.25 56.41 57.48 58.44 59.68 61.02 61.63 64.02 64.70 66.60 67.03 68.33 67.76 68.85 68.74 68.09 69.24 68.03 72.79 72.97 72.34 69.97 70.80 71.97 72.13
40.34 39.57 45.61 49.34 47.60 45.45 46.12 45.77 39.66 33.82 35.67 38.45 44.99 41.14 45.24 52.16 53.22 54.62 56.12 55.78 56.75 57.23 58.02 58.65 60.08 60.38 60.60 62.40 63.40 63.73 63.70 63.59 65.02 66.66 66.09 67.43 67.57 65.83 66.03 67.89 67.86 67.33 66.54 65.07
41.78 42.29 48.67 49.13 49.96 48.99 45.99 43.18 47.65 42.13 43.06 40.09 43.01 46.78 51.04 52.80 53.63 54.94 55.01 56.13 56.51 58.49 59.58 59.00 59.07 60.65 59.96 61.02 63.14 62.57 63.33 63.81 64.61 64.73 65.31 65.74 65.72 65.67 64.85 65.51 66.83 65.55 66.14 64.86
47.29 41.54 47.36 48.36 49.50 49.51 47.92 49.03 41.86 43.54 35.86 33.77 40.97 43.48 44.20 49.18 50.72 53.45 53.88 55.47 56.62 58.18 58.15 58.64 59.16 61.73 62.37 62.81 62.59 64.61 63.92 63.50 63.41 64.00 64.22 63.40 64.59 64.41 64.88 64.90 64.34 64.64 65.74 64.27
49.04 47.26 44.83 48.20 46.02 45.08 46.41 45.25 47.42 46.49 44.44 39.21 35.06 38.00 52.14 51.52 52.66 53.23 54.37 55.27 55.91 56.35 56.80 57.59 58.61 60.09 60.16 61.46 60.73 62.31 61.98 61.74 62.61 62.74 63.51 63.93 62.84 62.50 63.39 63.05 63.14 63.85 64.18 64.02
50.61 48.41 43.17 44.83 49.65 50.42 49.05 47.05 48.62 43.64 41.48 44.40 42.66 42.85 53.13 54.37 54.07 55.05 54.26 55.29 56.20 56.77 56.66 57.41 57.65 58.48 58.56 59.09 58.95 59.34 60.81 59.73 61.14 61.29 61.15 61.88 62.20 61.78 62.31 62.24 62.08 62.50 61.69 61.61
51.07 47.05 41.78 42.11 46.00 49.65 46.63 48.87 48.87 48.84 48.95 43.39 40.88 39.92 53.66 54.30 54.42 54.07 54.65 54.83 55.76 56.08 55.95 56.30 56.68 56.42 57.22 57.16 57.26 57.45 58.73 58.82 59.29 59.19 58.60 60.33 61.57 60.97 60.90 61.01 61.15 60.95 59.93 59.18
53.45 47.92 44.89 39.66 42.85 47.59 44.60 47.32 49.06 47.70 43.56 43.16 44.19 45.30 49.96 51.84 52.81 54.25 54.81 55.08 54.85 55.71 55.53 54.94 55.40 55.79 56.41 56.64 56.75 57.04 57.63 58.39 58.40 57.87 57.38 57.91 59.02 59.04 58.33 58.42 58.58 58.38 58.37 57.43
51.49 44.12 46.54 46.79 45.73 47.22 47.23 46.00 46.21 44.91 46.15 42.44 45.22 45.23 47.94 50.50 50.96 52.03 52.57 52.20 52.36 52.73 53.46 54.07 54.86 55.51 56.66 57.46 57.58 57.16 57.18 57.51 57.79 56.83 56.25 56.58 57.26 57.44 57.25 57.06 57.02 57.23 56.89 56.12
51.43 44.86 46.25 43.02 46.65 45.30 43.71 46.03 46.31 46.26 46.61 45.60 46.07 45.43 51.07 53.36 51.01 49.92 50.85 52.03 51.77 52.41 53.19 53.85 54.67 55.19 55.78 56.47 56.87 57.37 57.33 57.18 57.04 55.71 54.98 55.40 55.19 55.07 55.20 55.54 55.77 55.74 55.27 55.47
48.43 43.54 42.36 38.78 44.01 43.82 39.79 44.28 45.00 45.23 46.45 46.03 42.44 46.13 49.63 49.56 50.02 50.66 51.87 52.32 52.43 52.97 53.37 53.79 54.32 55.66 56.38 56.92 57.52 56.67 56.03 56.33 55.48 54.69 54.44 54.23 53.99 53.11 53.09 53.68 53.52 53.15 53.31 53.80
47.38 42.37 43.15 39.84 41.56 32.73 43.21 47.57 46.95 45.34 46.18 46.98 46.91 47.63 49.42 50.01 51.25 52.13 53.38 53.09 53.13 53.16 53.33 53.84 54.20 55.16 56.12 56.87 57.03 57.03 55.89 55.07 54.45 53.65 53.20 52.97 52.46 51.65 51.74 51.28 51.15 51.63 51.07 49.77
52.20 48.19 43.77 38.91 38.39 41.62 43.29 45.42 44.43 43.72 44.04 49.23 48.80 48.92 50.57 51.61 51.98 51.11 53.96 54.14 53.46 53.71 54.11 54.25 54.57 55.13 55.95 55.62 56.08 55.45 54.83 54.15 53.46 52.10 51.60 51.60 51.08 50.07 50.08 48.79 47.56 46.99 46.51 46.20
49.36 50.23 46.06 41.77 36.82 34.00 43.91 47.91 49.79 48.98 41.38 50.19 49.84 49.36 49.20 49.55 44.16 47.23 52.28 52.69 52.44 53.08 53.51 53.30 53.97 54.72 55.26 55.62 56.91 53.81 52.64 52.46 51.04 50.92 50.55 50.36 48.67 47.39 45.82 45.23 44.76 44.60 43.96 40.89
42.78 44.97 40.69 39.84 39.54 41.32 47.95 49.14 48.77 38.22 41.72 49.93 50.32 49.37 48.70 46.58 48.94 51.87 52.33 52.10 52.91 52.66 52.71 53.49 53.94 53.49 54.67 55.96 54.46 52.02 51.08 50.05 50.70 48.96 47.14 46.47 45.83 44.31 43.84 42.65 40.76 38.33 37.74 38.07
41.77 40.57 41.13 42.61 38.04 34.90 50.52 47.56 44.20 48.31 51.15 50.07 49.54 49.59 49.18 49.79 50.36 50.38 51.05 51.17 51.65 51.43 51.68 51.85 51.76 52.16 52.93 52.84 51.51 49.72 48.98 47.97 47.10 46.09 44.53 43.53 42.53 41.70 39.53 36.82 36.93 37.53 37.74 37.59
40.82 45.00 43.20 44.10 43.15 51.24 51.88 50.46 51.99 51.49 49.18 49.42 49.86 50.05 49.47 48.64 48.60 49.05 49.71 50.33 50.50 50.75 50.74 49.89 49.50 49.44 50.36 50.29 49.02 45.96 45.79 44.84 43.37 41.94 40.95 39.95 38.51 35.81 36.10 36.01 36.79 35.72 36.72 36.21
47.47 50.40 45.50 45.97 48.44 48.42 49.74 50.81 50.75 50.75 50.12 50.35 50.30 49.67 49.66 47.93 48.89 48.50 48.53 47.64 47.19 47.43 47.34 47.72 47.07 46.48 46.31 46.31 44.82 44.04 42.42 41.36 38.97 37.63 37.04 34.56 34.01 34.91 36.20 35.36 35.10 35.02 35.49 34.98
47.65 48.74 46.82 46.29 48.07 48.66 48.62 49.57 49.75 50.12 50.22 49.44 49.76 48.92 47.74 47.03 45.93 45.42 44.96 45.38 45.80 46.09 46.20 45.44 43.97 42.83 41.79 41.47 40.48 40.09 39.91 38.44 35.37 34.95 32.86 32.69 34.15 32.64 32.70 33.27 34.10 34.83 36.32 36.29
48.79 46.61 43.89 42.36 48.21 47.68 47.87 49.67 50.15 48.72 48.29 48.34 46.51 45.46 45.92 45.40 44.74 45.27 44.62 45.21 44.30 43.18 42.90 41.23 40.10 39.06 38.21 38.09 37.70 37.91 37.85 35.62 33.38 30.55 30.65 30.80 31.14 31.54 31.87 32.60 33.99 36.53 36.71 36.99